[[{"header":{"parameterUnit":"m.s-1","parameterCategory":1,"la1":31.0,"la2":29.5877,"lo1":-88.7671,"lo2":-86.6584,"dy":0.0162,"dx":0.0185,"nx":115,"ny":88,"refTime":"2024-06-17T06:00:00:Z","depth":0,"parameterNumber":2,"parameterNumberName":"U-component_of_WINDS"},"data":[0.0,0.0,0.0,0.0,0.0,0.0,0.0,0.0,0.0,0.0,0.0,0.0,0.0,0.0,0.0,0.0,0.0,0.0,0.0,0.0,0.0,0.0,0.0,0.0,0.0,0.0,0.0,0.0,0.0,0.0,0.0,0.0,0.0,0.0,0.0,0.0,0.0,0.0,0.0,0.0,0.0,0.0,0.0,0.0,0.0,0.0,0.0,0.0,0.0,0.0,0.0,0.0,0.0,0.0,0.0,0.0,0.0,0.0,0.0,0.0,0.0,0.0,0.0,0.0,0.0,0.0,0.0,0.0,0.0,0.0,0.0,0.0,0.0,0.0,0.0,0.0,0.0,0.0,0.0,0.0,0.0,0.0,0.0,0.0,0.0,0.0,0.0,0.0,0.0,0.0,0.0,0.0,0.0,0.0,0.0,0.0,0.0,0.0,0.0,0.0,0.0,0.0,0.0,0.0,0.0,0.0,0.0,0.0,0.0,0.0,0.0,0.0,0.0,0.0,0.0,0.0,0.0,0.0,0.0,0.0,0.0,0.0,0.0,0.0,0.0,0.0,0.0,0.0,0.0,0.0,0.0,0.0,0.0,0.0,0.0,0.0,0.0,0.0,0.0,0.0,0.0,0.0,0.0,0.0,0.0,0.0,0.0,0.0,0.0,0.0,0.0,0.0,0.0,0.0,0.0,0.0,0.0,0.0,0.0,0.0,0.0,0.0,0.0,0.0,0.0,0.0,0.0,0.0,0.0,0.0,0.0,0.0,0.0,0.0,0.0,0.0,0.0,0.0,0.0,0.0,0.0,0.0,0.0,0.0,0.0,0.0,0.0,0.0,0.0,0.0,0.0,0.0,0.0,0.0,0.0,0.0,0.0,0.0,0.0,0.0,0.0,0.0,0.0,0.0,0.0,0.0,0.0,0.0,0.0,0.0,0.0,0.0,0.0,0.0,0.0,0.0,0.0,0.0,0.0,0.0,0.0,0.0,0.0,0.0,0.0,0.0,0.0,0.0,0.0,0.0,0.0,0.0,0.0,0.0,0.0,0.0,0.0,0.0,0.0,0.0,0.0,0.0,0.0,0.0,0.0,0.0,0.0,0.0,0.0,0.0,0.0,0.0,0.0,0.0,0.0,0.0,0.0,0.0,0.0,0.0,0.0,0.0,0.0,0.0,0.0,0.0,0.0,0.0,0.0,0.0,0.0,0.0,0.0,0.0,0.0,0.0,0.0,0.0,0.0,0.0,0.0,0.0,0.0,0.0,0.0,0.0,0.0,0.0,0.0,0.0,0.0,0.0,0.0,0.0,0.0,0.0,0.0,0.0,0.0,0.0,0.0,0.0,0.0,0.0,0.0,0.0,0.0,0.0,0.0,0.0,0.0,0.0,0.0,0.0,0.0,0.0,0.0,0.0,0.0,0.0,0.0,0.0,0.0,0.0,0.0,0.0,0.0,0.0,0.0,0.0,0.0,0.0,0.0,0.0,0.0,0.0,0.0,0.0,0.0,0.0,0.0,0.0,0.0,0.0,0.0,0.0,0.0,0.0,0.0,0.0,0.0,0.0,0.0,0.0,0.0,0.0,0.0,0.0,0.0,0.0,0.0,0.0,0.0,0.0,0.0,0.0,0.0,0.0,0.0,0.0,0.0,0.0,0.0,0.0,0.0,0.0,0.0,0.0,0.0,0.0,0.0,0.0,0.0,0.0,0.0,0.0,0.0,0.0,0.0,0.0,0.0,0.0,0.0,0.0,0.0,0.0,0.0,0.0,0.0,0.0,0.0,0.0,0.0,0.0,0.0,0.0,0.0,0.0,0.0,0.0,0.0,0.0,0.0,0.0,0.0,0.0,0.0,0.0,0.0,0.0,0.0,0.0,0.0,0.0,0.0,0.0,0.0,0.0,0.0,0.0,0.0,0.0,0.0,0.0,0.0,0.0,0.0,0.0,0.0,0.0,0.0,0.0,0.0,0.0,0.0,0.0,0.0,0.0,0.0,0.0,0.0,0.0,0.0,0.0,0.0,0.0,0.0,0.0,0.0,0.0,0.0,0.0,0.0,0.0,0.0,0.0,0.0,0.0,0.0,0.0,0.0,0.0,0.0,0.0,0.0,0.0,0.0,0.0,0.0,0.0,0.0,0.0,0.0,0.0,0.0,0.0,0.0,0.0,0.0,0.0,0.0,0.0,0.0,0.0,0.0,0.0,0.0,0.0,0.0,0.0,0.0,0.0,0.0,0.0,0.0,0.0,0.0,0.0,0.0,0.0,0.0,0.0,0.0,0.0,0.0,0.0,0.0,0.0,0.0,0.0,0.0,0.0,0.0,0.0,0.0,0.0,0.0,0.0,0.0,0.0,0.0,0.0,0.0,0.0,0.0,0.0,0.0,0.0,0.0,0.0,0.0,0.0,0.0,0.0,0.0,0.0,0.0,0.0,0.0,0.0,0.0,0.0,0.0,0.0,0.0,0.0,0.0,0.0,0.0,0.0,0.0,0.0,0.0,0.0,0.0,0.0,0.0,0.0,0.0,0.0,0.0,0.0,0.0,0.0,0.0,0.0,0.0,0.0,0.0,0.0,0.0,0.0,0.0,0.0,0.0,0.0,0.0,0.0,0.0,0.0,0.0,0.0,0.0,0.0,0.0,0.0,0.0,0.0,0.0,0.0,0.0,0.0,0.0,0.0,0.0,0.0,0.0,0.0,0.0,0.0,0.0,0.0,0.0,0.0,0.0,0.0,0.0,0.0,0.0,0.0,0.0,0.0,0.0,0.0,0.0,0.0,0.0,0.0,0.0,0.0,0.0,0.0,0.0,0.0,0.0,0.0,0.0,0.0,0.0,0.0,0.0,0.0,0.0,0.0,0.0,0.0,0.0,0.0,0.0,0.0,0.0,0.0,0.0,0.0,0.0,0.0,0.0,0.0,0.0,0.0,0.0,0.0,0.0,0.0,0.0,0.0,0.0,0.0,0.0,0.0,0.0,0.0,0.0,0.0,0.0,0.0,0.0,0.0,0.0,0.0,0.0,0.0,0.0,0.0,0.0,0.0,0.0,0.0,0.0,0.0,0.0,0.0,0.0,0.0,0.0,0.0,0.0,0.0,0.0,0.0,0.0,0.0,0.0,0.0,0.0,0.0,0.0,0.0,0.0,0.0,0.0,0.0,0.0,0.0,0.0,0.0,0.0,0.0,0.0,0.0,0.0,0.0,0.0,0.0,0.0,0.0,0.0,0.0,0.0,0.0,0.0,0.0,0.0,0.0,0.0,0.0,0.0,0.0,0.0,0.0,0.0,0.0,0.0,0.0,0.0,0.0,0.0,0.0,0.0,0.0,0.0,0.0,0.0,0.0,0.0,0.0,0.0,0.0,0.0,0.0,0.0,0.0,0.0,0.0,0.0,0.0,0.0,0.0,0.0,0.0,0.0,0.0,0.0,0.0,0.0,0.0,0.0,0.0,0.0,0.0,0.0,0.0,0.0,0.0,0.0,0.0,0.0,0.0,0.0,0.0,0.0,0.0,0.0,0.0,0.0,0.0,0.0,0.0,0.0,0.0,0.0,0.0,0.0,0.0,0.0,0.0,0.0,0.0,0.0,0.0,0.0,0.0,0.0,0.0,0.0,0.0,0.0,0.0,0.0,0.0,0.0,0.0,0.0,0.0,0.0,0.0,0.0,0.0,0.0,0.0,0.0,0.0,0.0,0.0,0.0,0.0,0.0,0.0,0.0,0.0,0.0,0.0,0.0,0.0,0.0,0.0,0.0,0.0,0.0,0.0,0.0,0.0,0.0,0.0,0.0,0.0,0.0,0.0,0.0,0.0,0.0,0.0,0.0,0.0,0.0,0.0,0.0,0.0,0.0,0.0,0.0,0.0,0.0,0.0,0.0,0.0,0.0,0.0,0.0,0.0,0.0,0.0,0.0,0.0,0.0,0.0,0.0,0.0,0.0,0.0,0.0,0.0,0.0,0.0,0.0,0.0,0.0,0.0,0.0,0.0,0.0,0.0,0.0,0.0,0.0,0.0,0.0,0.0,0.0,0.0,0.0,0.0,0.0,0.0,0.0,0.0,0.0,0.0,0.0,0.0,0.0,0.0,0.0,0.0,0.0,0.0,0.0,0.0,0.0,0.0,0.0,0.0,0.0,0.0,0.0,0.0,0.0,0.0,0.0,0.0,0.0,0.0,0.0,0.0,0.0,0.0,0.0,0.0,0.0,0.0,0.0,0.0,0.0,0.0,0.0,0.0,0.0,0.0,0.0,0.0,0.0,0.0,0.0,0.0,0.0,0.0,0.0,0.0,0.0,0.0,0.0,0.0,0.0,0.0,0.0,0.0,0.0,0.0,0.0,0.0,0.0,0.0,0.0,0.0,0.0,0.0,0.0,0.0,0.0,0.0,0.0,0.0,0.0,0.0,0.0,0.0,0.0,0.0,0.0,0.0,0.0,0.0,0.0,0.0,0.0,0.0,0.0,0.0,0.0,0.0,0.0,0.0,0.0,0.0,0.0,0.0,0.0,0.0,0.0,0.0,0.0,0.0,0.0,0.0,0.0,0.0,0.0,0.0,0.0,0.0,0.0,0.0,0.0,0.0,0.0,0.0,0.0,0.0,0.0,0.0,0.0,0.0,0.0,0.0,0.0,0.0,0.0,0.0,0.0,0.0,0.0,0.0,0.0,0.0,0.0,0.0,0.0,0.0,0.0,0.0,0.0,0.0,0.0,0.0,0.0,0.0,0.0,0.0,0.0,0.0,0.0,0.0,0.0,0.0,0.0,0.0,0.0,0.0,0.0,0.0,0.0,0.0,0.0,0.0,0.0,0.0,0.0,0.0,0.0,0.0,0.0,0.0,0.0,0.0,0.0,0.0,0.0,0.0,0.0,0.0,0.0,0.0,0.0,0.0,0.0,0.0,0.0,0.0,0.0,0.0,0.0,0.0,0.0,0.0,0.0,0.0,0.0,0.0,0.0,0.0,0.0,0.0,0.0,0.0,0.0,0.0,0.0,0.0,0.0,0.0,0.0,0.0,0.0,0.0,0.0,0.0,0.0,0.0,0.0,0.0,0.0,0.0,0.0,0.0,0.0,0.0,0.0,0.0,0.0,0.0,0.0,0.0,0.0,0.0,0.0,0.0,0.0,0.0,0.0,0.0,0.0,0.0,0.0,0.0,0.0,0.0,0.0,0.0,0.0,0.0,0.0,0.0,0.0,0.0,0.0,0.0,0.0,0.0,0.0,0.0,0.0,0.0,0.0,0.0,0.0,0.0,0.0,0.0,0.0,0.0,0.0,0.0,0.0,0.0,0.0,0.0,0.0,0.0,0.0,0.0,0.0,0.0,0.0,0.0,0.0,0.0,0.0,0.0,0.0,0.0,0.0,0.0,0.0,0.0,0.0,0.0,0.0,0.0,0.0,0.0,0.0,0.0,0.0,0.0,0.0,0.0,0.0,0.0,0.0,0.0,0.0,0.0,0.0,0.0,0.0,0.0,0.0,0.0,0.0,0.0,0.0,0.0,0.0,0.0,0.0,0.0,0.0,0.0,0.0,0.0,0.0,0.0,0.0,0.0,0.0,0.0,0.0,0.0,0.0,0.0,0.0,0.0,0.0,0.0,0.0,0.0,0.0,0.0,0.0,0.0,0.0,0.0,0.0,0.0,0.0,0.0,0.0,0.0,0.0,0.0,0.0,0.0,0.0,0.0,0.0,0.0,0.0,0.0,0.0,0.0,0.0,0.0,0.0,0.0,0.0,0.0,0.0,0.0,0.0,0.0,0.0,0.0,0.0,0.0,0.0,0.0,0.0,0.0,0.0,0.0,0.0,0.0,0.0,0.0,0.0,0.0,0.0,0.0,0.0,0.0,0.0,0.0,0.0,0.0,0.0,0.0,0.0,0.0,0.0,0.0,0.0,0.0,0.0,0.0,0.0,0.0,0.0,0.0,0.0,0.0,0.0,0.0,0.0,0.0,0.0,0.0,0.0,0.0,0.0,0.0,0.0,0.0,0.0,0.0,0.0,0.0,0.0,0.0,0.0,0.0,0.0,0.0,0.0,0.0,0.0,0.0,0.0,0.0,0.0,0.0,0.0,0.0,0.0,0.0,0.0,0.0,0.0,0.0,0.0,0.0,0.0,0.0,0.0,0.0,0.0,0.0,0.0,0.0,0.0,0.0,0.0,0.0,0.0,0.0,0.0,0.0,0.0,0.0,0.0,0.0,0.0,0.0,0.0,0.0,0.0,0.0,0.0,0.0,0.0,0.0,0.0,0.0,0.0,0.0,0.0,0.0,0.0,0.0,0.0,0.0,0.0,0.0,0.0,0.0,0.0,0.0,0.0,0.0,0.0,0.0,0.0,0.0,0.0,0.0,0.0,0.0,0.0,0.0,0.0,0.0,0.0,0.0,0.0,0.0,0.0,0.0,0.0,0.0,0.0,0.0,0.0,0.0,0.0,0.0,0.0,0.0,0.0,0.0,0.0,0.0,0.0,0.0,0.0,0.0,0.0,0.0,0.0,0.0,0.0,0.0,0.0,0.0,0.0,0.0,0.0,0.0,0.0,0.0,0.0,0.0,0.0,0.0,0.0,0.0,0.0,0.0,0.0,0.0,0.0,0.0,0.0,0.0,0.0,0.0,0.0,0.0,0.0,0.0,0.0,0.0,0.0,0.0,0.0,0.0,0.0,0.0,0.0,0.0,0.0,0.0,0.0,0.0,0.0,0.0,0.0,0.0,0.0,0.0,0.0,0.0,0.0,0.0,0.0,0.0,0.0,0.0,0.0,0.0,0.0,0.0,0.0,0.0,0.0,0.0,0.0,0.0,0.0,0.0,0.0,0.0,0.0,0.0,0.0,0.0,0.0,0.0,0.0,0.0,0.0,0.0,0.0,0.0,0.0,0.0,0.0,0.0,0.0,0.0,0.0,0.0,0.0,0.0,0.0,0.0,0.0,0.0,0.0,0.0,0.0,0.0,0.0,0.0,0.0,0.0,0.0,0.0,0.0,0.0,0.0,0.0,0.0,0.0,0.0,0.0,0.0,0.0,0.0,0.0,0.0,0.0,0.0,0.0,0.0,0.0,0.0,0.0,0.0,0.0,0.0,0.0,0.0,0.0,0.0,0.0,0.0,0.0,0.0,0.0,0.0,0.0,0.0,0.0,0.0,0.0,0.0,0.0,0.0,0.0,0.0,0.0,0.0,0.0,0.0,0.0,0.0,0.0,0.0,0.0,0.0,0.0,0.0,0.0,0.0,0.0,0.0,0.0,0.0,0.0,0.0,0.0,0.0,0.0,0.0,0.0,0.0,0.0,0.0,0.0,0.0,0.0,0.0,0.0,0.0,0.0,0.0,0.0,0.0,0.0,0.0,0.0,0.0,0.0,0.0,0.0,0.0,0.0,0.0,0.0,0.0,0.0,0.0,0.0,0.0,0.0,0.0,0.0,0.0,0.0,0.0,0.0,0.0,0.0,0.0,0.0,0.0,0.0,0.0,0.0,0.0,0.0,0.0,0.0,0.0,0.0,0.0,0.0,0.0,0.0,0.0,0.0,0.0,0.0,0.0,0.0,0.0,0.0,0.0,0.0,0.0,0.0,0.0,0.0,0.0,0.0,0.0,0.0,0.0,0.0,0.0,0.0,0.0,0.0,0.0,0.0,0.0,0.0,0.0,0.0,0.0,0.0,0.0,0.0,0.0,0.0,0.0,0.0,0.0,0.0,0.0,0.0,0.0,0.0,0.0,0.0,0.0,0.0,0.0,0.0,0.0,0.0,0.0,0.0,0.0,0.0,0.0,0.0,0.0,0.0,0.0,0.0,0.0,0.0,0.0,0.0,0.0,0.0,0.0,0.0,0.0,0.0,0.0,0.0,0.0,0.0,0.0,0.0,0.0,0.0,0.0,0.0,0.0,0.0,0.0,0.0,0.0,0.0,0.0,0.0,0.0,0.0,0.0,0.0,0.0,0.0,0.0,0.0,0.0,0.0,0.0,0.0,0.0,0.0,0.0,0.0,0.0,0.0,0.0,0.0,0.0,0.0,0.0,0.0,0.0,0.0,0.0,0.0,0.0,0.0,0.0,0.0,0.0,0.0,0.0,0.0,0.0,0.0,0.0,0.0,0.0,0.0,0.0,0.0,0.0,0.0,0.0,0.0,0.0,0.0,0.0,0.0,0.0,0.0,0.0,0.0,0.0,0.0,0.0,0.0,0.0,0.0,0.0,0.0,0.0,0.0,0.0,0.0,0.0,0.0,0.0,0.0,0.0,0.0,0.0,0.0,0.0,0.0,0.0,0.0,0.0,0.0,0.0,0.0,0.0,0.0,0.0,0.0,0.0,0.0,0.0,0.0,0.0,0.0,0.0,0.0,0.0,0.0,0.0,0.0,0.0,0.0,0.0,0.0,0.0,0.0,0.0,0.0,0.0,0.0,0.0,0.0,0.0,0.0,0.0,0.0,0.0,0.0,0.0,0.0,0.0,0.0,0.0,0.0,0.0,0.0,0.0,0.0,0.0,0.0,0.0,0.0,0.0,0.0,0.0,0.0,0.0,0.0,0.0,0.0,0.0,0.0,0.0,0.0,0.0,0.0,0.0,0.0,0.0,0.0,0.0,0.0,0.0,0.0,0.0,0.0,0.0,0.0,0.0,0.0,0.0,0.0,0.0,0.0,0.0,0.0,0.0,0.0,0.0,0.0,0.0,0.0,0.0,0.0,0.0,0.0,0.0,0.0,0.0,0.0,0.0,0.0,0.0,0.0,0.0,0.0,0.0,0.0,0.0,0.0,0.0,0.0,0.0,0.0,0.0,0.0,0.0,0.0,0.0,0.0,0.0,0.0,0.0,0.0,0.0,0.0,0.0,0.0,0.0,0.0,0.0,0.0,0.0,0.0,0.0,0.0,0.0,0.0,0.0,0.0,0.0,0.0,0.0,0.0,0.0,0.0,0.0,0.0,0.0,0.0,0.0,0.0,0.0,0.0,0.0,0.0,0.0,0.0,0.0,0.0,0.0,0.0,0.0,0.0,0.0,0.0,0.0,0.0,0.0,0.0,0.0,0.0,0.0,0.0,0.0,0.0,0.0,0.0,0.0,0.0,0.0,0.0,0.0,0.0,0.0,0.0,0.0,0.0,0.0,0.0,0.0,0.0,0.0,0.0,0.0,0.0,0.0,0.0,0.0,0.0,0.0,0.0,0.0,0.0,0.0,0.0,0.0,0.0,0.0,0.0,0.0,0.0,0.0,0.0,0.0,0.0,0.0,0.0,0.0,0.0,0.0,0.0,0.0,0.0,0.0,0.0,0.0,0.0,0.0,0.0,0.0,0.0,0.0,0.0,0.0,0.0,0.0,0.0,0.0,0.0,0.0,0.0,0.0,0.0,0.0,0.0,0.0,0.0,0.0,0.0,0.0,0.0,0.0,0.0,0.0,0.0,0.0,0.0,0.0,0.0,0.0,0.0,0.0,0.0,0.0,0.0,0.0,0.0,0.0,0.0,0.0,0.0,0.0,0.0,0.0,0.0,0.0,0.0,0.0,0.0,0.0,0.0,0.0,0.0,0.0,0.0,0.0,0.0,0.0,0.0,0.0,0.0,0.0,0.0,0.0,0.0,0.0,0.0,0.0,0.0,0.0,0.0,0.0,0.0,0.0,0.0,0.0,0.0,0.0,0.0,0.0,0.0,0.0,0.0,0.0,0.0,0.0,0.0,0.0,0.0,0.0,0.0,0.0,0.0,0.0,0.0,0.0,0.0,0.0,0.0,0.0,0.0,0.0,0.0,0.0,0.0,0.0,0.0,0.0,0.0,0.0,0.0,0.0,0.0,0.0,0.0,0.0,0.0,0.0,0.0,0.0,0.0,0.0,0.0,0.0,0.0,0.0,0.0,0.0,0.0,0.0,0.0,0.0,0.0,0.0,0.0,0.0,0.0,0.0,0.0,0.0,0.0,0.0,0.0,0.0,0.0,0.0,0.0,0.0,0.0,0.0,0.0,0.0,0.0,0.0,0.0,0.0,0.0,0.0,0.0,0.0,0.0,0.0,0.0,0.0,0.0,0.0,0.0,0.0,0.0,0.0,0.0,0.0,0.0,0.0,0.0,0.0,0.0,0.0,0.0,0.0,0.0,0.0,0.0,0.0,0.0,0.0,0.0,0.0,0.0,0.0,0.0,0.0,0.0,0.0,0.0,0.0,0.0,0.0,0.0,0.0,0.0,0.0,0.0,0.0,0.0,0.0,0.0,0.0,0.0,0.0,0.0,0.0,0.0,0.0,0.0,0.0,0.0,0.0,0.0,0.0,0.0,0.0,0.0,0.0,0.0,0.0,0.0,0.0,0.0,0.0,0.0,0.0,0.0,0.0,0.0,0.0,0.0,0.0,0.0,0.0,0.0,0.0,0.0,0.0,0.0,0.0,0.0,0.0,0.0,0.0,0.0,0.0,0.0,0.0,0.0,0.0,0.0,0.0,0.0,0.0,0.0,0.0,0.0,0.0,0.0,0.0,0.0,0.0,0.0,0.0,0.0,0.0,0.0,0.0,0.0,0.0,0.0,0.0,0.0,0.0,0.0,0.0,0.0,0.0,0.0,0.0,0.0,0.0,0.0,0.0,0.0,0.0,0.0,0.0,0.0,0.0,0.0,0.0,0.0,0.0,0.0,0.0,0.0,0.0,0.0,0.0,0.0,0.0,0.0,0.0,0.0,0.0,0.0,0.0,0.0,0.0,0.0,0.0,0.0,0.0,0.0,0.0,0.0,0.0,0.0,0.0,0.0,0.0,0.0,0.0,0.0,0.0,0.0,0.0,0.0,0.0,0.0,0.0,0.0,0.0,0.0,0.0,0.0,0.0,0.0,0.0,0.0,0.0,0.0,0.0,0.0,0.0,0.0,0.0,0.0,0.0,0.0,0.0,0.0,0.0,0.0,0.0,0.0,0.0,0.0,0.0,0.0,0.0,0.0,0.0,0.0,0.0,0.0,0.0,0.0,0.0,0.0,0.0,0.0,0.0,0.0,0.0,0.0,0.0,0.0,0.0,0.0,0.0,0.0,0.0,0.0,0.0,0.0,0.0,0.0,0.0,0.0,0.0,0.0,0.0,0.0,0.0,0.0,0.0,0.0,0.0,0.0,0.0,0.0,0.0,0.0,0.0,0.0,0.0,0.0,0.0,0.0,0.0,0.0,0.0,0.0,0.0,0.0,0.0,0.0,0.0,0.0,0.0,0.0,0.0,0.0,0.0,0.0,0.0,0.0,0.0,0.0,0.0,0.0,0.0,0.0,0.0,0.0,0.0,0.0,0.0,0.0,0.0,0.0,0.0,0.0,0.0,0.0,0.0,0.0,0.0,0.0,0.0,0.0,0.0,0.0,0.0,0.0,0.0,0.0,0.0,0.0,0.0,0.0,0.0,0.0,0.0,0.0,0.0,0.0,0.0,0.0,0.0,0.0,0.0,0.0,0.0,0.0,0.0,0.0,0.0,0.0,0.0,0.0,0.0,0.0,0.0,0.0,0.0,0.0,0.0,0.0,0.0,0.0,0.0,0.0,0.0,0.0,0.0,0.0,0.0,0.0,0.0,0.0,0.0,0.0,0.0,0.0,0.0,0.0,0.0,0.0,0.0,0.0,0.0,0.0,0.0,0.0,0.0,0.0,0.0,0.0,0.0,0.0,0.0,0.0,0.0,0.0,0.0,0.0,0.0,0.0,0.0,0.0,0.0,0.0,0.0,0.0,0.0,0.0,0.0,0.0,0.0,0.0,0.0,0.0,0.0,0.0,0.0,0.0,0.0,0.0,0.0,0.0,0.0,0.0,0.0,0.0,0.0,0.0,0.0,0.0,0.0,0.0,0.0,0.0,0.0,0.0,0.0,0.0,0.0,0.0,0.0,0.0,0.0,0.0,0.0,0.0,0.0,0.0,0.0,0.0,0.0,0.0,0.0,0.0,0.0,0.0,0.0,0.0,0.0,0.0,0.0,0.0,0.0,0.0,0.0,0.0,0.0,0.0,0.0,0.0,0.0,0.0,0.0,0.0,0.0,0.0,0.0,0.0,0.0,0.0,0.0,0.0,0.0,0.0,0.0,0.0,0.0,0.0,0.0,0.0,0.0,0.0,0.0,0.0,0.0,0.0,0.0,0.0,0.0,0.0,0.0,0.0,0.0,0.0,0.0,0.0,0.0,0.0,0.0,0.0,0.0,0.0,0.0,0.0,0.0,0.0,0.0,0.0,0.0,0.0,0.0,0.0,0.0,0.0,0.0,0.0,0.0,0.0,0.0,0.0,0.0,0.0,0.0,0.0,0.0,0.0,0.0,0.0,0.0,0.0,0.0,0.0,0.0,0.0,0.0,0.0,0.0,0.0,0.0,0.0,0.0,0.0,0.0,0.0,0.0,0.0,0.0,0.0,0.0,0.0,0.0,0.0,0.0,0.0,0.0,0.0,0.0,0.0,0.0,0.0,0.0,0.0,0.0,0.0,0.0,0.0,0.0,0.0,0.0,0.0,0.0,0.0,0.0,0.0,0.0,0.0,0.0,0.0,0.0,0.0,0.0,0.0,0.0,0.0,0.0,0.0,0.0,0.0,0.0,0.0,0.0,0.0,0.0,0.0,0.0,0.0,0.0,0.0,0.0,0.0,0.0,0.0,0.0,0.0,0.0,0.0,0.0,0.0,0.0,0.0,0.0,0.0,0.0,0.0,0.0,0.0,0.0,0.0,0.0,0.0,0.0,0.0,0.0,0.0,0.0,0.0,0.0,0.0,0.0,0.0,0.0,0.0,0.0,0.0,0.0,0.0,0.0,0.0,0.0,0.0,0.0,0.0,0.0,0.0,0.0,0.0,0.0,0.0,0.0,0.0,0.0,0.0,0.0,0.0,0.0,0.0,0.0,0.0,0.0,0.0,0.0,0.0,0.0,0.0,0.0,0.0,0.0,0.0,0.0,0.0,0.0,0.0,0.0,0.0,0.0,0.0,0.0,0.0,0.0,0.0,0.0,0.0,0.0,0.0,0.0,0.0,0.0,0.0,0.0,0.0,0.0,0.0,0.0,0.0,0.0,0.0,0.0,0.0,0.0,0.0,0.0,0.0,0.0,0.0,0.0,0.0,0.0,0.0,0.0,0.0,0.0,0.0,0.0,0.0,0.0,0.0,0.0,0.0,0.0,0.0,0.0,0.0,0.0,0.0,0.0,0.0,0.0,0.0,0.0,0.0,0.0,0.0,0.0,0.0,0.0,0.0,0.0,0.0,0.0,0.0,0.0,0.0,0.0,0.0,0.0,0.0,0.0,0.0,0.0,0.0,0.0,0.0,0.0,0.0,0.0,0.0,0.0,0.0,0.0,0.0,0.0,0.0,0.0,0.0,0.0,0.0,0.0,0.0,0.0,0.0,0.0,0.0,0.0,0.0,0.0,0.0,0.0,0.0,0.0,0.0,0.0,0.0,0.0,0.0,0.0,0.0,0.0,0.0,0.0,0.0,0.0,0.0,0.0,0.0,0.0,0.0,0.0,0.0,0.0,0.0,0.0,0.0,0.0,0.0,0.0,0.0,0.0,0.0,0.0,0.0,0.0,0.0,0.0,0.0,0.0,0.0,0.0,0.0,0.0,0.0,0.0,0.0,0.0,0.0,0.0,0.0,0.0,0.0,0.0,0.0,0.0,0.0,0.0,0.0,0.0,0.0,0.0,0.0,0.0,0.0,0.0,0.0,0.0,0.0,0.0,0.0,0.0,0.0,0.0,0.0,0.0,0.0,0.0,0.0,0.0,0.0,0.0,0.0,0.0,0.0,0.0,0.0,0.0,0.0,0.0,0.0,0.0,0.0,0.0,0.0,0.0,0.0,0.0,0.0,0.0,0.0,0.0,0.0,0.0,0.0,0.0,0.0,0.0,0.0,0.0,0.0,0.0,0.0,0.0,0.0,0.0,0.0,0.0,0.0,0.0,0.0,0.0,0.0,0.0,0.0,0.0,0.0,0.0,0.0,0.0,0.0,0.0,0.0,0.0,0.0,0.0,0.0,0.0,0.0,0.0,0.0,0.0,0.0,0.0,0.0,0.0,0.0,0.0,0.0,0.0,0.0,0.0,0.0,0.0,0.0,0.0,0.0,0.0,0.0,0.0,0.0,0.0,0.0,0.0,0.0,0.0,0.0,0.0,0.0,0.0,0.0,0.0,0.0,0.0,0.0,0.0,0.0,0.0,0.0,0.0,0.0,0.0,0.0,0.0,0.0,0.0,0.0,0.0,0.0,0.0,0.0,0.0,0.0,0.0,0.0,0.0,0.0,0.0,0.0,0.0,0.0,0.0,0.0,0.0,0.0,0.0,0.0,0.0,0.0,0.0,0.0,0.0,0.0,0.0,0.0,0.0,0.0,0.0,0.0,0.0,0.0,0.0,0.0,0.0,0.0,0.0,0.0,0.0,0.0,0.0,0.0,0.0,0.0,0.0,0.0,0.0,0.0,0.0,0.0,0.0,0.0,0.0,0.0,0.0,0.0,0.0,0.0,0.0,0.0,0.0,0.0,0.0,0.0,0.0,0.0,0.0,0.0,0.0,0.0,0.0,0.0,0.0,0.0,0.0,0.0,0.0,0.0,0.0,0.0,0.0,0.0,0.0,0.0,0.0,0.0,0.0,0.0,0.0,0.0,0.0,0.0,0.0,0.0,0.0,0.0,0.0,0.0,0.0,0.0,0.0,0.0,0.0,0.0,0.0,0.0,0.0,0.0,0.0,0.0,0.0,0.0,0.0,0.0,0.0,0.0,0.0,0.0,0.0,0.0,0.0,0.0,0.0,0.0,0.0,0.0,0.0,0.0,0.0,0.0,0.0,0.0,0.0,0.0,0.0,0.0,0.0,0.0,0.0,0.0,0.0,0.0,0.0,0.0,0.0,0.0,0.0,0.0,0.0,0.0,0.0,0.0,0.0,0.0,0.0,0.0,0.0,0.0,0.0,0.0,0.0,0.0,0.0,0.0,0.0,0.0,0.0,0.0,0.0,0.0,0.0,0.0,0.0,0.0,0.0,0.0,0.0,0.0,0.0,0.0,0.0,0.0,0.0,0.0,0.0,0.0,0.0,0.0,0.0,0.0,0.0,0.0,0.0,0.0,0.0,0.0,0.0,0.0,0.0,0.0,0.0,0.0,0.0,0.0,0.0,0.0,0.0,0.0,0.0,0.0,0.0,0.0,0.0,0.0,0.0,0.0,0.0,0.0,0.0,0.0,0.0,0.0,0.0,0.0,0.0,0.0,0.0,0.0,0.0,0.0,0.0,0.0,0.0,0.0,0.0,0.0,0.0,0.0,0.0,0.0,0.0,0.0,0.0,0.0,0.0,0.0,0.0,0.0,0.0,0.0,0.0,0.0,0.0,0.0,0.0,0.0,0.0,0.0,0.0,0.0,0.0,0.0,0.0,0.0,0.0,0.0,0.0,0.0,0.0,0.0,0.0,0.0,0.0,0.0,0.0,0.0,0.0,0.0,0.0,0.0,0.0,0.0,0.0,0.0,0.0,0.0,0.0,0.0,0.0,0.0,0.0,0.0,0.0,0.0,0.0,0.0,0.0,0.0,0.0,0.0,0.0,0.0,0.0,0.0,0.0,0.0,0.0,0.0,0.0,0.0,0.0,0.0,0.0,0.0,0.0,0.0,0.0,0.0,0.0,0.0,0.0,0.0,0.0,0.0,0.0,0.0,0.0,0.0,0.0,0.0,0.0,0.0,0.0,0.0,0.0,0.0,0.0,0.0,0.0,0.0,0.0,0.0,0.0,0.0,0.0,0.0,0.0,0.0,0.0,0.0,0.0,0.0,0.0,0.0,0.0,0.0,0.0,0.0,0.0,0.0,0.0,0.0,0.0,0.0,0.0,0.0,0.0,0.0,0.0,0.0,0.0,0.0,0.0,0.0,0.0,0.0,0.0,0.0,0.0,0.0,0.0,0.0,0.0,0.0,0.0,0.0,0.0,0.0,0.0,0.0,0.0,0.0,0.0,0.0,0.0,0.0,0.0,0.0,0.0,0.0,0.0,0.0,0.0,0.0,0.0,0.0,0.0,0.0,0.0,0.0,0.0,0.0,0.0,0.0,0.0,0.0,0.0,0.0,0.0,0.0,0.0,0.0,0.0,0.0,0.0,0.0,0.0,0.0,0.0,0.0,0.0,0.0,0.0,0.0,0.0,0.0,0.0,0.0,0.0,0.0,0.0,0.0,0.0,0.0,0.0,0.0,0.0,0.0,0.0,0.0,0.0,0.0,0.0,0.0,0.0,0.0,0.0,0.0,0.0,0.0,0.0,0.0,0.0,0.0,0.0,0.0,0.0,0.0,0.0,0.0,0.0,0.0,0.0,0.0,0.0,0.0,0.0,0.0,0.0,0.0,0.0,0.0,0.0,0.0,0.0,0.0,0.0,0.0,0.0,0.0,0.0,0.0,0.0,0.0,0.0,0.0,0.0,0.0,0.0,0.0,0.0,0.0,0.0,0.0,0.0,0.0,0.0,0.0,0.0,0.0,0.0,0.0,0.0,0.0,0.0,0.0,0.0,0.0,0.0,0.0,0.0,0.0,0.0,0.0,0.0,0.0,0.0,0.0,0.0,0.0,0.0,0.0,0.0,0.0,0.0,0.0,0.0,0.0,0.0,0.0,0.0,0.0,0.0,0.0,0.0,0.0,0.0,0.0,0.0,0.0,0.0,0.0,0.0,0.0,0.0,0.0,0.0,0.0,0.0,0.0,0.0,0.0,0.0,0.0,0.0,0.0,0.0,0.0,0.0,0.0,0.0,0.0,0.0,0.0,0.0,0.0,0.0,0.0,0.0,0.0,0.0,0.0,0.0,0.0,0.0,0.0,0.0,0.0,0.0,0.0,0.0,0.0,0.0,0.0,0.0,0.0,0.0,0.0,0.0,0.0,0.0,0.0,0.0,0.0,0.0,0.0,0.0,0.0,0.0,0.0,0.0,0.0,0.0,0.0,0.0,0.0,0.0,0.0,0.0,0.0,0.0,0.0,0.0,0.0,0.0,0.0,0.0,0.0,0.0,0.0,0.0,0.0,0.0,0.0,0.0,0.0,0.0,0.0,0.0,0.0,0.0,0.0,0.0,0.0,0.0,0.0,0.0,0.0,0.0,0.0,0.0,0.0,0.0,0.0,0.0,0.0,0.0,0.0,0.0,0.0,0.0,0.0,0.0,0.0,0.0,0.0,0.0,0.0,0.0,0.0,0.0,0.0,0.0,0.0,0.0,0.0,0.0,0.0,0.0,0.0,0.0,0.0,0.0,0.0,0.0,0.0,0.0,0.0,0.0,0.0,0.0,0.0,0.0,0.0,0.0,0.0,0.0,0.0,0.0,0.0,0.0,0.0,0.0,0.0,0.0,0.0,0.0,0.0,0.0,0.0,0.0,0.0,0.0,0.0,0.0,0.0,0.0,0.0,0.0,0.0,0.0,0.0,0.0,0.0,0.0,0.0,0.0,0.0,0.0,0.0,0.0,0.0,0.0,0.0,0.0,0.0,0.0,0.0,0.0,0.0,0.0,0.0,0.0,0.0,0.0,0.0,0.0,0.0,0.0,0.0,0.0,0.0,0.0,0.0,0.0,0.0,0.0,0.0,0.0,0.0,0.0,0.0,0.0,0.0,0.0,0.0,0.0,0.0,0.0,0.0,0.0,0.0,0.0,0.0,0.0,0.0,0.0,0.0,0.0,0.0,0.0,0.0,0.0,0.0,0.0,0.0,0.0,0.0,0.0,0.0,0.0,0.0,0.0,0.0,0.0,0.0,0.0,0.0,0.0,0.0,0.0,0.0,0.0,0.0,0.0,0.0,0.0,0.0,0.0,0.0,0.0,0.0,0.0,0.0,0.0,0.0,0.0,0.0,0.0,0.0,0.0,0.0,0.0,0.0,0.0,0.0,0.0,0.0,0.0,0.0,0.0,0.0,0.0,0.0,0.0,0.0,0.0,0.0,0.0,0.0,0.0,0.0,0.0,0.0,0.0,0.0,0.0,0.0,0.0,0.0,0.0,0.0,0.0,0.0,0.0,0.0,0.0,0.0,0.0,0.0,0.0,0.0,0.0,0.0,0.0,0.0,0.0,0.0,0.0,0.0,0.0,0.0,0.0,0.0,0.0,0.0,0.0,0.0,0.0,0.0,0.0,0.0,0.0,0.0,0.0,0.0,0.0,0.0,0.0,0.0,0.0,0.0,0.0,0.0,0.0,0.0,0.0,0.0,0.0,0.0,0.0,0.0,0.0,0.0,0.0,0.0,0.0,0.0,0.0,0.0,0.0,0.0,0.0,0.0,0.0,0.0,0.0,0.0,0.0,0.0,0.0,0.0,0.0,0.0,0.0,0.0,0.0,0.0,0.0,0.0,0.0,0.0,0.0,0.0,0.0,0.0,0.0,0.0,0.0,0.0,0.0,0.0,0.0,0.0,0.0,0.0,0.0,0.0,0.0,0.0,0.0,0.0,0.0,0.0,0.0,0.0,0.0,0.0,0.0,0.0,0.0,0.0,0.0,0.0,0.0,0.0,0.0,0.0,0.0,0.0,0.0,0.0,0.0,0.0,0.0,0.0,0.0,0.0,0.0,0.0,0.0,0.0,0.0,0.0,0.0,0.0,0.0,0.0,0.0,0.0,0.0,0.0,0.0,0.0,0.0,0.0,0.0,0.0,0.0,0.0,0.0,0.0,0.0,0.0,0.0,0.0,0.0,0.0,0.0,0.0,0.0,0.0,0.0,0.0,0.0,0.0,0.0,0.0,0.0,0.0,0.0,0.0,0.0,0.0,0.0,0.0,0.0,0.0,0.0,0.0,0.0,0.0,0.0,0.0,0.0,0.0,0.0,0.0,0.0,0.0,0.0,0.0,0.0,0.0,0.0,0.0,0.0,0.0,0.0,0.0,0.0,0.0,0.0,0.0,0.0,0.0,0.0,0.0,0.0,0.0,0.0,0.0,0.0,0.0,0.0,0.0,0.0,0.0,0.0,0.0,0.0,0.0,0.0,0.0,0.0,0.0,0.0,0.0,0.0,0.0,0.0,0.0,0.0,0.0,0.0,0.0,0.0,0.0,0.0,0.0,0.0,0.0,0.0,0.0,0.0,0.0,0.0,0.0,0.0,0.0,0.0,0.0,0.0,0.0,0.0,0.0,0.0,0.0,0.0,0.0,0.0,0.0,0.0,0.0,0.0,0.0,0.0,0.0,0.0,0.0,0.0,0.0,0.0,0.0,0.0,0.0,0.0,0.0,0.0,0.0,0.0,0.0,0.0,0.0,0.0,0.0,0.0,0.0,0.0,0.0,0.0,0.0,0.0,0.0,0.0,0.0,0.0,0.0,0.0,0.0,0.0,0.0,0.0,0.0,0.0,0.0,0.0,0.0,0.0,0.0,0.0,0.0,0.0,0.0,0.0,0.0,0.0,0.0,0.0,0.0,0.0,0.0,0.0,0.0,0.0,0.0,0.0,0.0,0.0,0.0,0.0,0.0,0.0,0.0,0.0,0.0,0.0,0.0,0.0,0.0,0.0,0.0,0.0,0.0,0.0,0.0,0.0,0.0,0.0,0.0,0.0,0.0,0.0,0.0,0.0,0.0,0.0,0.0,0.0,0.0,0.0,0.0,0.0,0.0,0.0,0.0,0.0,0.0,0.0,0.0,0.0,0.0,0.0,0.0,0.0,0.0,0.0,0.0,0.0,0.0,0.0,0.0,0.0,0.0,0.0,0.0,0.0,0.0,0.0,0.0,0.0,0.0,0.0,0.0,0.0,0.0,0.0,0.0,0.0,0.0,0.0,0.0,0.0,0.0,0.0,0.0,0.0,0.0,0.0,0.0,0.0,0.0,0.0,0.0,0.0,0.0,0.0,0.0,0.0,0.0,0.0,0.0,0.0,0.0,0.0,0.0,0.0,0.0,0.0,0.0,0.0,0.0,0.0,0.0,0.0,0.0,0.0,0.0,0.0,0.0,0.0,0.0,0.0,0.0,0.0,0.0,0.0,0.0,0.0,0.0,0.0,0.0,0.0,0.0,0.0,0.0,0.0,0.0,0.0,0.0,0.0,0.0,0.0,0.0,0.0,0.0,0.0,0.0,0.0,0.0,0.0,0.0,0.0,0.0,0.0,0.0,0.0,0.0,0.0,0.0,0.0,0.0,0.0,0.0,0.0,0.0,0.0,0.0,0.0,0.0,0.0,0.0,0.0,0.0,0.0,0.0,0.0,0.0,0.0,0.0,0.0,0.0,0.0,0.0,0.0,0.0,0.0,0.0,0.0,0.0,0.0,0.0,0.0,0.0,0.0,0.0,0.0,0.0,0.0,0.0,0.0,0.0,0.0,0.0,0.0,0.0,0.0,0.0,0.0,0.0,0.0,0.0,0.0,0.0,0.0,0.0,0.0,0.0,0.0,0.0,0.0,0.0,0.0,0.0,0.0,0.0,0.0,0.0,0.0,0.0,0.0,0.0,0.0,0.0,0.0,0.0,0.0,0.0,0.0,0.0,0.0,0.0,0.0,0.0,0.0,0.0,0.0,0.0,0.0,0.0,0.0,0.0,0.0,0.0,0.0,0.0,0.0,0.0,0.0,0.0,0.0,0.0,0.0,0.0,0.0,0.0,0.0,0.0,0.0,0.0,0.0,0.0,0.0,0.0,0.0,0.0,0.0,0.0,0.0,0.0,0.0,0.0,0.0,0.0,0.0,0.0,0.0,0.0,0.0,0.0,0.0,0.0,0.0,0.0,0.0,0.0,0.0,0.0,0.0,0.0,0.0,0.0,0.0,0.0,0.0,0.0,0.0,0.0,0.0,0.0,0.0,0.0,0.0,0.0,0.0,0.0,0.0,0.0,0.0,0.0,0.0,0.0,0.0,0.0,0.0,0.0,0.0,0.0,0.0,0.0,0.0,0.0,0.0,0.0,0.0,0.0,0.0,0.0,0.0,0.0,0.0,0.0,0.0,0.0,0.0,0.0,0.0,0.0,0.0,0.0,0.0,0.0,0.0,0.0,0.0,0.0,0.0,0.0,0.0,0.0,0.0,0.0,0.0,0.0,0.0,0.0,0.0,0.0,0.0,0.0,0.0,0.0,0.0,0.0,0.0,0.0,0.0,0.0,0.0,0.0,0.0,0.0,0.0,0.0,0.0,0.0,0.0,0.0,0.0,0.0,0.0,0.0,0.0,0.0,0.0,0.0,0.0,0.0,0.0,0.0,0.0,0.0,0.0,0.0,0.0,0.0,0.0,0.0,0.0,0.0,0.0,0.0,0.0,0.0,0.0,0.0,0.0,0.0,0.0,0.0,0.0,0.0,0.0,0.0,0.0,0.0,0.0,0.0,0.0,0.0,0.0,0.0,0.0,0.0,0.0,0.0,0.0,0.0,0.0,0.0,0.0,0.0,0.0,0.0,0.0,0.0,0.0,0.0,0.0,0.0,0.0,0.0,0.0,0.0,0.0,0.0,0.0,0.0,0.0,0.0,0.0,0.0,0.0,0.0,0.0,0.0,0.0,0.0,0.0,0.0,0.0,0.0,0.0,0.0,0.0,0.0,0.0,0.0,0.0,0.0,0.0,0.0,0.0,0.0,0.0,0.0,0.0,0.0,0.0,0.0,0.0,0.0,0.0,0.0,0.0,0.0,0.0,0.0,0.0,0.0,0.0,0.0,0.0,0.0,0.0,0.0,0.0,0.0,0.0,0.0,0.0,0.0,0.0,0.0,0.0,0.0,0.0,0.0,0.0,0.0,0.0,0.0,0.0,0.0,0.0,0.0,0.0,0.0,0.0,0.0,0.0,0.0,0.0,0.0,0.0,0.0,0.0,0.0,0.0,0.0,0.0,0.0,0.0,0.0,0.0,0.0,0.0,0.0,0.0,0.0,0.0,0.0,0.0,0.0,0.0,0.0,0.0,0.0,0.0,0.0,0.0,0.0,0.0,0.0,0.0,0.0,0.0,0.0,0.0,0.0,0.0,0.0,0.0,0.0,0.0,0.0,0.0,0.0,0.0,0.0,0.0,0.0,0.0,0.0,0.0,0.0,0.0,0.0,0.0,0.0,0.0,0.0,0.0,0.0,0.0,0.0,0.0,0.0,0.0,0.0,0.0,0.0,0.0,0.0,0.0,0.0,0.0,0.0,0.0,0.0,0.0,0.0,0.0,0.0,0.0,0.0,0.0,0.0,0.0,0.0,0.0,0.0,0.0,0.0,0.0,0.0,0.0,0.0,0.0,0.0,0.0,0.0,0.0,0.0,0.0,0.0,0.0,0.0,0.0,0.0,0.0,0.0,0.0,0.0,0.0,0.0,0.0,0.0,0.0,0.0,0.0,0.0,0.0,0.0,0.0,0.0,0.0,0.0,0.0,0.0,0.0,0.0,0.0,0.0,0.0,0.0,0.0,0.0,0.0,0.0,0.0,0.0,0.0,0.0,0.0,0.0,0.0,0.0,0.0,0.0,0.0,0.0,0.0,0.0,0.0,0.0,0.0,0.0,0.0,0.0,0.0,0.0,0.0,0.0,0.0,0.0,0.0,0.0,0.0,0.0,0.0,0.0,0.0,0.0,0.0,0.0,0.0,0.0,0.0,0.0,0.0,0.0,0.0,0.0,0.0,0.0,0.0,0.0,0.0,0.0,0.0,0.0,0.0,0.0,0.0,0.0,0.0,0.0,0.0,0.0,0.0,0.0,0.0,0.0,0.0,0.0,0.0,0.0,0.0,0.0,0.0,0.0,0.0,0.0,0.0,0.0,0.0,0.0,0.0,0.0,0.0,0.0,0.0,0.0,0.0,0.0,0.0,0.0,0.0,0.0,0.0,0.0,0.0,0.0,0.0,0.0,0.0,0.0,0.0,0.0,0.0,0.0,0.0,0.0,0.0,0.0,0.0,0.0,0.0,0.0,0.0,0.0,0.0,0.0,0.0,0.0,0.0,0.0,0.0,0.0,0.0,0.0,0.0,0.0,0.0,0.0,0.0,0.0,0.0,0.0,0.0,0.0,0.0,0.0,0.0,0.0,0.0,0.0,0.0,0.0,0.0,0.0,0.0,0.0,0.0,0.0,0.0,0.0,0.0,0.0,0.0,0.0,0.0,0.0,0.0,0.0,0.0,0.0,0.0,0.0,0.0,0.0,0.0,0.0,0.0,0.0,0.0,0.0,0.0,0.0,0.0,0.0,0.0,0.0,0.0,0.0,0.0,0.0,0.0,0.0,0.0,0.0,0.0,0.0,0.0,0.0,0.0,0.0,0.0,0.0,0.0,0.0,0.0,0.0,0.0,0.0,0.0,0.0,0.0,0.0,0.0,0.0,0.0,0.0,0.0,0.0,0.0,0.0,0.0,0.0,0.0,0.0,0.0,0.0,0.0,0.0,0.0,0.0,0.0,0.0,0.0,0.0,0.0,0.0,0.0,0.0,0.0,0.0,0.0,0.0,0.0,0.0,0.0,0.0,0.0,0.0,0.0,0.0,0.0,0.0,0.0,0.0,0.0,0.0,0.0,0.0,0.0,0.0,0.0,0.0,0.0,0.0,0.0,0.0,0.0,0.0,0.0,0.0,0.0,0.0,0.0,0.0,0.0,0.0,0.0,0.0,0.0,0.0,0.0,0.0,0.0,0.0,0.0,0.0,0.0,0.0,0.0,0.0,0.0,0.0,0.0,0.0,0.0,0.0,0.0,0.0,0.0,0.0,0.0,0.0,0.0,0.0,0.0,0.0,0.0,0.0,0.0,0.0,0.0,0.0,0.0,0.0,0.0,0.0,0.0,0.0,0.0,0.0,0.0,0.0,0.0,0.0,0.0,0.0,0.0,0.0,0.0,0.0,0.0,0.0,0.0,0.0,0.0,0.0,0.0,0.0,0.0,0.0,0.0,0.0,0.0,0.0,0.0,0.0,0.0,0.0,0.0,0.0,0.0,0.0,0.0,0.0,0.0,0.0,0.0,0.0,0.0,0.0,0.0,0.0,0.0,0.0,0.0,0.0,0.0,0.0,0.0,0.0,0.0,0.0,0.0,0.0,0.0,0.0,0.0,0.0,0.0,0.0,0.0,0.0,0.0,0.0,0.0,0.0,0.0,0.0,0.0,0.0,0.0,0.0,0.0,0.0,0.0,0.0,0.0,0.0,0.0,0.0,0.0,0.0,0.0,0.0,0.0,0.0,0.0,0.0,0.0,0.0,0.0,0.0,0.0,0.0,0.0,0.0,0.0,0.0,0.0,0.0,0.0,0.0,0.0,0.0,0.0,0.0,0.0,0.0,0.0,0.0,0.0,0.0,0.0,0.0,0.0,0.0,0.0,0.0,0.0,0.0,0.0,0.0,0.0,0.0,0.0,0.0,0.0,0.0,0.0,0.0,0.0,0.0,0.0,0.0,0.0,0.0,0.0,0.0,0.0,0.0,0.0,0.0,0.0,0.0,0.0,0.0,0.0,0.0,0.0,0.0,0.0,0.0,0.0,0.0,0.0,0.0,0.0,0.0,0.0,0.0,0.0,0.0,0.0,0.0,0.0,0.0,0.0,0.0,0.0,0.0,0.0,0.0,0.0,0.0,0.0,0.0,0.0,0.0,0.0,0.0,0.0,0.0,0.0,0.0,0.0,0.0,0.0,0.0,0.0,0.0,0.0,0.0,0.0,0.0,0.0,0.0,0.0,0.0,0.0,0.0,0.0,0.0,0.0,0.0,0.0,0.0,0.0,0.0,0.0,0.0,0.0,0.0,0.0,0.0,0.0,0.0,0.0,0.0,0.0,0.0,0.0,0.0,0.0,0.0,0.0,0.0,0.0,0.0,0.0,0.0,0.0,0.0,0.0,0.0,0.0,0.0,0.0,0.0,0.0,0.0,0.0,0.0,0.0,0.0,0.0,0.0,0.0,0.0,0.0,0.0,0.0,0.0,0.0,0.0,0.0,0.0,0.0,0.0,0.0,0.0,0.0,0.0,0.0,0.0,0.0,0.0,0.0,0.0,0.0,0.0,0.0,0.0,0.0,0.0,0.0,0.0,0.0,0.0,0.0,0.0,0.0,0.0,0.0,0.0,0.0,0.0,0.0,0.0,0.0,0.0,0.0,0.0,0.0,0.0,0.0,0.0,0.0,0.0,0.0,0.0,0.0,0.0,0.0,0.0,0.0,0.0,0.0,0.0,0.0,0.0,0.0,0.0,0.0,0.0,0.0,0.0,0.0,0.0,0.0,0.0,0.0,0.0,0.0,0.0,0.0,0.0,0.0,0.0,0.0,0.0,0.0,0.0,0.0,0.0,0.0,0.0,0.0,0.0,0.0,0.0,0.0,0.0,0.0,0.0,0.0,0.0,0.0,0.0,0.0,0.0,0.0,0.0,0.0,0.0,0.0,0.0,0.0,0.0,0.0,0.0,0.0,0.0,0.0,0.0,0.0,0.0,0.0,0.0,0.0,0.0,0.0,0.0,0.0,0.0,0.0,0.0,0.0,0.0,0.0,0.0,0.0,0.0,0.0,0.0,0.0,0.0,0.0,0.0,0.0,0.0,0.0,0.0,-0.2511,-0.25,-0.2476,-0.2458,-0.2442,-0.2433,-0.2205,-0.1836,-0.1805,-0.1121,0.0,0.0,0.0,0.0,0.0,0.0,0.0,0.0,0.0,0.0,0.0,0.0,0.0,0.0,0.0,0.0,0.0,0.0,0.0,0.0,0.0,0.0,0.0,0.0,0.0,0.0,0.0,0.0,0.0,0.0,0.0,0.0,0.0,0.0,0.0,0.0,0.0,0.0,0.0,0.0,0.0,0.0,0.0,0.0,0.0,0.0,0.0,0.0,0.0,0.0,0.0,0.0,0.0,0.0,0.0,0.0,0.0,0.0,0.0,0.0,0.0,0.0,0.0,0.0,0.0,0.0,0.0,0.0,0.0,0.0,0.0,0.0,0.0,0.0,0.0,0.0,0.0,0.0,0.0,0.0,0.0,0.0,0.0,0.0,0.0,0.0,0.0,0.0,0.0,0.0,0.0,0.0,0.0,0.0,0.0,0.0,0.0,0.0,0.0,0.0,0.0,0.0,0.0,0.0,0.0,-0.5182,-0.5154,-0.5111,-0.5076,-0.4974,-0.501,-0.4631,-0.4047,-0.3865,-0.2802,-0.1246,-0.0588,-0.013,0.0,0.0,0.0,0.0,0.0,0.0,0.0,0.0,0.0,0.0,0.0,0.0,0.0,0.0,0.0,0.0,0.0,0.0,0.0,0.0,0.0,0.0,0.0,0.0,0.0,0.0,0.0,0.0,0.0,0.0,0.0,0.0,0.0,0.0,0.0,0.0,0.0,0.0,0.0,0.0,0.0,0.0,0.0,0.0,0.0,0.0,0.0,0.0,0.0,0.0,0.0,0.0,0.0,0.0,0.0,0.0,0.0,0.0,0.0,0.0,0.0,0.0,0.0,0.0,0.0,0.0,0.0,0.0,0.0,0.0,0.0,0.0,0.0,0.0,0.0,0.0,0.0,0.0,0.0,0.0,0.0,0.0,0.0,0.0,0.0,0.0,0.0,0.0,0.0,0.0,0.0,0.0,0.0,0.0,0.0,0.0,0.0,0.0,0.0,0.0,0.0,0.0,-0.685,-0.676,-0.6895,-0.6622,-0.665,-0.6607,-0.6563,-0.6311,-0.5651,-0.5186,-0.4644,-0.2164,-0.0783,0.0,0.0,0.0,0.0,0.0,0.0,0.0,0.0,0.0,0.0,0.0,0.0,0.0,0.0,0.0,0.0,0.0,0.0,0.0,0.0,0.0,0.0,0.0,0.0,0.0,0.0,0.0,0.0,0.0,0.0,0.0,0.0,0.0,0.0,0.0,0.0,0.0,0.0,0.0,0.0,0.0,0.0,0.0,0.0,0.0,0.0,0.0,0.0,0.0,0.0,0.0,0.0,0.0,0.0,0.0,0.0,0.0,0.0,0.0,0.0,0.0,0.0,0.0,0.0,0.0,0.0,0.0,0.0,0.0,0.0,0.0,0.0,0.0,0.0,0.0,0.0,0.0,0.0,0.0,0.0,0.0,0.0,0.0,0.0,0.0,0.0,0.0,0.0,0.0,0.0,0.0,0.0,0.0,0.0,0.0,0.0,0.0,0.0,0.0,0.0,0.0,0.0,-1.243,-1.2447,-1.2333,-1.2141,-1.2028,-1.206,-1.142,-1.0487,-1.0185,-0.9079,-0.7292,-0.6027,-0.4476,-0.2558,-0.2551,-0.2547,-0.2547,-0.2547,-0.2547,-0.2547,-0.2556,-0.2558,-0.2493,-0.2106,-0.1908,-0.1772,-0.1046,-0.0651,-0.0584,-0.0194,0.0,0.0,0.0,0.0,0.0,0.0,0.0,0.0,0.0,0.0,0.0,0.0,0.0,0.0,0.0,0.0,0.0,0.0,0.0,0.0,0.0,0.0,0.0,0.0,0.0,0.0,0.0,0.0,0.0,0.0,0.0,0.0,0.0,0.0,0.0,0.0,0.0,0.0,0.0,0.0,0.0,0.0,0.0,0.0,0.0,0.0,0.0,0.0,0.0,0.0,0.0,0.0,0.0,0.0,0.0,0.0,0.0,0.0,0.0,0.0,0.0,0.0,0.0,0.0,0.0,0.0,0.0,0.0,0.0,0.0,0.0,0.0,0.0,0.0,0.0,0.0,0.0,0.0,0.0,0.0,0.0,0.0,0.0,0.0,0.0,-1.6892,-1.687,-1.6664,-1.6496,-1.6328,-1.6298,-1.5622,-1.4502,-1.4193,-1.2811,-1.087,-1.0524,-0.9263,-0.7296,-0.5678,-0.4873,-0.4939,-0.4873,-0.4872,-0.4875,-0.4881,-0.4886,-0.4822,-0.4369,-0.3971,-0.3632,-0.2828,-0.2095,-0.1696,-0.1165,-0.0645,-0.0323,-0.0258,-0.0194,0.0,0.0,0.0,0.0,0.0,0.0,0.0,0.0,0.0,0.0,0.0,0.0,0.0,0.0,0.0,0.0,0.0,0.0,0.0,0.0,0.0,0.0,0.0,0.0,0.0,0.0,0.0,0.0,0.0,0.0,0.0,0.0,0.0,0.0,0.0,0.0,0.0,0.0,0.0,0.0,0.0,0.0,0.0,0.0,0.0,0.0,0.0,0.0,0.0,0.0,0.0,0.0,0.0,0.0,0.0,0.0,0.0,0.0,0.0,0.0,0.0,0.0,0.0,0.0,0.0,0.0,0.0,0.0,0.0,0.0,0.0,0.0,0.0,0.0,0.0,0.0,0.0,0.0,0.0,0.0,0.0,-1.8531,-1.8488,-1.8195,-1.8169,-1.8044,-1.7935,-1.7746,-1.7473,-1.6757,-1.6219,-1.5776,-1.5138,-1.4753,-1.4044,-0.9167,-0.6521,-0.6521,-0.6722,-0.6788,-0.6793,-0.6695,-0.6513,-0.6385,-0.6357,-0.6087,-0.5786,-0.5311,-0.4486,-0.3196,-0.2979,-0.2258,-0.1097,-0.1034,-0.0646,0.0,0.0,0.0,0.0,0.0,0.0,0.0,0.0,0.0,0.0,0.0,0.0,0.0,0.0,0.0,0.0,0.0,0.0,0.0,0.0,0.0,0.0,0.0,0.0,0.0,0.0,0.0,0.0,0.0,0.0,0.0,0.0,0.0,0.0,0.0,0.0,0.0,0.0,0.0,0.0,0.0,0.0,0.0,0.0,0.0,0.0,0.0,0.0,0.0,0.0,0.0,0.0,0.0,0.0,0.0,0.0,0.0,0.0,0.0,0.0,0.0,0.0,0.0,0.0,0.0,0.0,0.0,0.0,0.0,0.0,0.0,0.0,0.0,0.0,0.0,0.0,0.0,0.0,0.0,0.0,0.0,-2.1515,-2.142,-2.1231,-2.1067,-2.0999,-2.0796,-2.0388,-1.9846,-1.9518,-1.8832,-1.8003,-1.7546,-1.7185,-1.6565,-1.4492,-1.2912,-1.1996,-1.1925,-1.1925,-1.1929,-1.1952,-1.1967,-1.1838,-1.1065,-1.0463,-0.9963,-0.8327,-0.6685,-0.5384,-0.484,-0.4117,-0.3204,-0.2616,-0.1831,-0.0916,-0.072,-0.0522,0.0,0.0,0.0,0.0,0.0,0.0,0.0,0.0,0.0,0.0,0.0,0.0,0.0,0.0,0.0,0.0,0.0,0.0,0.0,0.0,0.0,0.0,0.0,0.0,0.0,0.0,0.0,0.0,0.0,0.0,0.0,0.0,0.0,0.0,0.0,0.0,0.0,0.0,0.0,0.0,0.0,0.0,0.0,0.0,0.0,0.0,0.0,0.0,0.0,0.0,0.0,0.0,0.0,0.0,0.0,0.0,0.0,0.0,0.0,0.0,0.0,0.0,0.0,0.0,0.0,0.0,0.0,0.0,0.0,0.0,0.0,0.0,0.0,0.0,0.0,0.0,0.0,0.0,-2.3164,-2.3063,-2.292,-2.2764,-2.2685,-2.2472,-2.2047,-2.1432,-2.138,-2.078,-1.9972,-1.9799,-1.9478,-1.9016,-1.8872,-1.8261,-1.6974,-1.6163,-1.5701,-1.5701,-1.5696,-1.5696,-1.5563,-1.4762,-1.4161,-1.3671,-1.173,-0.9941,-0.8647,-0.8034,-0.7038,-0.5725,-0.4939,-0.3756,-0.2373,-0.1714,-0.1118,-0.0458,-0.0131,0.0,0.0,0.0,0.0,0.0,0.0,0.0,0.0,0.0,0.0,0.0,0.0,0.0,0.0,0.0,0.0,0.0,0.0,0.0,0.0,0.0,0.0,0.0,0.0,0.0,0.0,0.0,0.0,0.0,0.0,0.0,0.0,0.0,0.0,0.0,0.0,0.0,0.0,0.0,0.0,0.0,0.0,0.0,0.0,0.0,0.0,0.0,0.0,0.0,0.0,0.0,0.0,0.0,0.0,0.0,0.0,0.0,0.0,0.0,0.0,0.0,0.0,0.0,0.0,0.0,0.0,0.0,0.0,0.0,0.0,0.0,0.0,0.0,0.0,0.0,0.0,-2.3219,-2.3191,-2.3069,-2.2913,-2.2764,-2.2601,-2.2466,-2.2192,-2.2119,-2.1988,-2.1842,-2.1955,-2.1609,-2.1706,-2.1375,-2.1437,-2.0517,-1.8468,-1.7462,-1.7462,-1.7401,-1.7401,-1.7407,-1.7279,-1.6744,-1.6065,-1.5275,-1.4092,-1.2694,-1.2431,-1.1208,-0.8957,-0.7912,-0.6467,-0.435,-0.3103,-0.1979,-0.1253,-0.0528,0.0,0.0,0.0,0.0,0.0,0.0,0.0,0.0,0.0,0.0,0.0,0.0,0.0,0.0,0.0,0.0,0.0,0.0,0.0,0.0,0.0,0.0,0.0,0.0,0.0,0.0,0.0,0.0,0.0,0.0,0.0,0.0,0.0,0.0,0.0,0.0,0.0,0.0,0.0,0.0,0.0,0.0,0.0,0.0,0.0,0.0,0.0,0.0,0.0,0.0,0.0,0.0,0.0,0.0,0.0,0.0,0.0,0.0,0.0,0.0,0.0,0.0,0.0,0.0,0.0,0.0,0.0,0.0,0.0,0.0,0.0,0.0,0.0,0.0,0.0,0.0,-2.3219,-2.3205,-2.3069,-2.2988,-2.2907,-2.2732,-2.259,-2.2472,-2.233,-2.2227,-2.2303,-2.2181,-2.2079,-2.1998,-2.1835,-2.174,-2.1666,-2.0707,-2.0327,-2.0273,-2.0349,-2.0314,-2.0253,-1.9848,-1.9045,-1.8021,-1.765,-1.6979,-1.6029,-1.5454,-1.4205,-1.2418,-1.1072,-0.9075,-0.6678,-0.5078,-0.3804,-0.2525,-0.1329,-0.0729,-0.0726,-0.0263,0.0,0.0,0.0,0.0,0.0,0.0,0.0,0.0,0.0,0.0,0.0,0.0,0.0,0.0,0.0,0.0,0.0,0.0,0.0,0.0,0.0,0.0,0.0,0.0,0.0,0.0,0.0,0.0,0.0,0.0,0.0,0.0,0.0,0.0,0.0,0.0,0.0,0.0,0.0,0.0,0.0,0.0,0.0,0.0,0.0,0.0,0.0,0.0,0.0,0.0,0.0,0.0,0.0,0.0,0.0,0.0,0.0,0.0,0.0,0.0,0.0,0.0,0.0,0.0,0.0,0.0,0.0,0.0,0.0,0.0,0.0,0.0,0.0,-2.3219,-2.3212,-2.3124,-2.3056,-2.2995,-2.2791,-2.2656,-2.2624,-2.2459,-2.2391,-2.2323,-2.2242,-2.2133,-2.2004,-2.1828,-2.1774,-2.1801,-2.1821,-2.1781,-2.1821,-2.1848,-2.1882,-2.1882,-2.1476,-2.0799,-2.0046,-1.9911,-1.9467,-1.8713,-1.8162,-1.724,-1.5758,-1.4268,-1.2445,-1.0016,-0.8059,-0.6348,-0.4903,-0.349,-0.2475,-0.1929,-0.1458,-0.0927,0.0,0.0,0.0,0.0,0.0,0.0,0.0,0.0,0.0,0.0,0.0,0.0,0.0,0.0,0.0,0.0,0.0,0.0,0.0,0.0,0.0,0.0,0.0,0.0,0.0,0.0,0.0,0.0,0.0,0.0,0.0,0.0,0.0,0.0,0.0,0.0,0.0,0.0,0.0,0.0,0.0,0.0,0.0,0.0,0.0,0.0,0.0,0.0,0.0,0.0,0.0,0.0,0.0,0.0,0.0,0.0,0.0,0.0,0.0,0.0,0.0,0.0,0.0,0.0,0.0,0.0,0.0,0.0,0.0,0.0,0.0,0.0,-2.3219,-2.3219,-2.3219,-2.3144,-2.3035,-2.2995,-2.2825,-2.2664,-2.2617,-2.2466,-2.2357,-2.2296,-2.216,-2.195,-2.1882,-2.1821,-2.1747,-2.1848,-2.1977,-2.2038,-2.2011,-2.1964,-2.1998,-2.1936,-2.18,-2.1705,-2.1699,-2.1394,-2.0676,-2.054,-2.0194,-1.8592,-1.7155,-1.5951,-1.4013,-1.1646,-0.9556,-0.8147,-0.6515,-0.4938,-0.3767,-0.3343,-0.2666,-0.1467,-0.1258,-0.0855,0.0,0.0,0.0,0.0,0.0,0.0,0.0,0.0,0.0,0.0,0.0,0.0,0.0,0.0,0.0,0.0,0.0,0.0,0.0,0.0,0.0,0.0,0.0,0.0,0.0,0.0,0.0,0.0,0.0,0.0,0.0,0.0,0.0,0.0,0.0,0.0,0.0,0.0,0.0,0.0,0.0,0.0,0.0,0.0,0.0,0.0,0.0,0.0,0.0,0.0,0.0,0.0,0.0,0.0,0.0,0.0,0.0,0.0,0.0,0.0,0.0,0.0,0.0,0.0,0.0,0.0,0.0,0.0,0.0,-2.3219,-2.3219,-2.3219,-2.3205,-2.3151,-2.3063,-2.2907,-2.2717,-2.2671,-2.2479,-2.2344,-2.2215,-2.214,-2.2045,-2.1937,-2.1916,-2.1977,-2.2025,-2.2133,-2.2187,-2.2249,-2.2289,-2.2357,-2.244,-2.244,-2.2433,-2.2337,-2.22,-2.1792,-2.1724,-2.1187,-2.0256,-1.9324,-1.815,-1.6569,-1.4393,-1.2867,-1.1542,-0.9184,-0.7876,-0.7178,-0.5653,-0.4428,-0.3487,-0.2533,-0.166,-0.0861,-0.0262,0.0,0.0,0.0,0.0,0.0,0.0,0.0,0.0,0.0,0.0,0.0,0.0,0.0,0.0,0.0,0.0,0.0,0.0,0.0,0.0,0.0,0.0,0.0,0.0,0.0,0.0,0.0,0.0,0.0,0.0,0.0,0.0,0.0,0.0,0.0,0.0,0.0,0.0,0.0,0.0,0.0,0.0,0.0,0.0,0.0,0.0,0.0,0.0,0.0,0.0,0.0,0.0,0.0,0.0,0.0,0.0,0.0,0.0,0.0,0.0,0.0,0.0,0.0,0.0,0.0,0.0,0.0,-2.3219,-2.3219,-2.3219,-2.3219,-2.3212,-2.313,-2.2981,-2.2791,-2.269,-2.2527,-2.2281,-2.2249,-2.2174,-2.2106,-2.2018,-2.2025,-2.2106,-2.2113,-2.2194,-2.2261,-2.2398,-2.2466,-2.2547,-2.2671,-2.2719,-2.2649,-2.2649,-2.2513,-2.2337,-2.2296,-2.2009,-2.1429,-2.0699,-1.994,-1.9131,-1.7326,-1.5923,-1.4994,-1.3088,-1.1757,-1.0626,-0.9073,-0.7292,-0.6003,-0.4563,-0.3475,-0.213,-0.1055,0.0,0.0,0.0,0.0,0.0,0.0,0.0,0.0,0.0,0.0,0.0,0.0,0.0,0.0,0.0,0.0,0.0,0.0,0.0,0.0,0.0,0.0,0.0,0.0,0.0,0.0,0.0,0.0,0.0,0.0,0.0,0.0,0.0,0.0,0.0,0.0,0.0,0.0,0.0,0.0,0.0,0.0,0.0,0.0,0.0,0.0,0.0,0.0,0.0,0.0,0.0,0.0,0.0,0.0,0.0,0.0,0.0,0.0,0.0,0.0,0.0,0.0,0.0,0.0,0.0,0.0,0.0,-2.3219,-2.3219,-2.3219,-2.3219,-2.3219,-2.3212,-2.3042,-2.2818,-2.2771,-2.2608,-2.2315,-2.2337,-2.2255,-2.2133,-2.214,-2.214,-2.2147,-2.216,-2.2249,-2.2384,-2.2506,-2.2678,-2.2662,-2.2757,-2.2805,-2.2805,-2.2805,-2.269,-2.2617,-2.259,-2.2459,-2.2047,-2.1537,-2.1343,-2.0752,-1.9734,-1.8857,-1.8014,-1.6924,-1.5493,-1.4052,-1.2675,-1.0938,-0.8958,-0.716,-0.5498,-0.3665,-0.2249,-0.1247,0.0,-0.0129,0.0,0.0,0.0,0.0,0.0,0.0,0.0,0.0,0.0,0.0,0.0,0.0,0.0,0.0,0.0,0.0,0.0,0.0,0.0,0.0,0.0,0.0,0.0,0.0,0.0,0.0,0.0,0.0,0.0,0.0,0.0,0.0,0.0,0.0,0.0,0.0,0.0,0.0,0.0,0.0,0.0,0.0,0.0,0.0,0.0,0.0,0.0,0.0,0.0,0.0,0.0,0.0,0.0,0.0,0.0,0.0,0.0,0.0,0.0,0.0,0.0,0.0,0.0,0.0,-2.3219,-2.3219,-2.3219,-2.3219,-2.3219,-2.3212,-2.3056,-2.2784,-2.2778,-2.2615,-2.2391,-2.2344,-2.2316,-2.222,-2.2276,-2.2289,-2.2214,-2.2289,-2.2371,-2.2583,-2.2662,-2.2805,-2.2886,-2.2954,-2.2961,-2.2961,-2.2961,-2.2818,-2.2698,-2.2637,-2.2479,-2.2295,-2.2136,-2.206,-2.1853,-2.1148,-2.0652,-2.0256,-1.9144,-1.8262,-1.7383,-1.564,-1.4144,-1.2555,-0.9912,-0.7271,-0.5337,-0.4122,-0.3308,-0.2299,0.0,0.0,0.0,0.0,0.0,0.0,0.0,0.0,0.0,0.0,0.0,0.0,0.0,0.0,0.0,0.0,0.0,0.0,0.0,0.0,0.0,0.0,0.0,0.0,0.0,0.0,0.0,0.0,0.0,0.0,0.0,0.0,0.0,0.0,0.0,0.0,0.0,0.0,0.0,0.0,0.0,0.0,0.0,0.0,0.0,0.0,0.0,0.0,0.0,0.0,0.0,0.0,0.0,0.0,0.0,0.0,0.0,0.0,0.0,0.0,0.0,0.0,0.0,0.0,0.0,-2.3219,-2.3219,-2.3219,-2.3219,-2.3219,-2.3212,-2.3056,-2.2818,-2.2778,-2.2615,-2.2384,-2.2344,-2.2344,-2.2344,-2.2344,-2.2337,-2.2364,-2.2418,-2.252,-2.2669,-2.2818,-2.2968,-2.3083,-2.311,-2.311,-2.311,-2.311,-2.2968,-2.2812,-2.2683,-2.2595,-2.2439,-2.2378,-2.2274,-2.2274,-2.1922,-2.1708,-2.1557,-2.0953,-2.0351,-1.9707,-1.8434,-1.6642,-1.5131,-1.2397,-1.002,-0.9093,-0.7219,-0.6129,-0.4968,-0.3494,-0.1838,-0.0653,-0.0196,0.0,0.0,0.0,0.0,0.0,0.0,0.0,0.0,0.0,0.0,0.0,0.0,0.0,0.0,0.0,0.0,0.0,0.0,0.0,0.0,0.0,0.0,0.0,0.0,0.0,0.0,0.0,0.0,0.0,0.0,0.0,0.0,0.0,0.0,0.0,0.0,0.0,0.0,0.0,0.0,0.0,0.0,0.0,0.0,0.0,0.0,0.0,0.0,0.0,0.0,0.0,0.0,0.0,0.0,0.0,0.0,0.0,0.0,0.0,0.0,0.0,-2.3219,-2.3219,-2.3219,-2.3219,-2.3219,-2.3219,-2.3069,-2.2846,-2.2791,-2.2635,-2.2335,-2.2357,-2.2344,-2.2344,-2.2344,-2.2344,-2.2371,-2.2445,-2.2561,-2.2764,-2.2866,-2.3029,-2.3158,-2.3198,-2.3198,-2.3219,-2.3205,-2.3117,-2.2988,-2.2879,-2.2717,-2.2561,-2.2439,-2.2378,-2.2281,-2.2274,-2.2199,-2.2129,-2.2047,-2.1757,-2.1192,-2.0326,-1.8793,-1.6685,-1.5071,-1.3585,-1.2611,-1.0861,-0.9107,-0.8329,-0.6794,-0.4717,-0.278,-0.0989,0.0,0.0,0.0,0.0,0.0,0.0,0.0,0.0,0.0,0.0,0.0,0.0,0.0,0.0,0.0,0.0,0.0,0.0,0.0,0.0,0.0,0.0,0.0,0.0,0.0,0.0,0.0,0.0,0.0,0.0,0.0,0.0,0.0,0.0,0.0,0.0,0.0,0.0,0.0,0.0,0.0,0.0,0.0,0.0,0.0,0.0,0.0,0.0,0.0,0.0,0.0,0.0,0.0,0.0,0.0,0.0,0.0,0.0,0.0,0.0,0.0,-2.3219,-2.3219,-2.3219,-2.3219,-2.3219,-2.3219,-2.3124,-2.2968,-2.2839,-2.2683,-2.252,-2.2405,-2.2364,-2.235,-2.2344,-2.2344,-2.2357,-2.2425,-2.2561,-2.2757,-2.2859,-2.2995,-2.3185,-2.3219,-2.3219,-2.3219,-2.3219,-2.3151,-2.3049,-2.2974,-2.2825,-2.2608,-2.259,-2.2459,-2.2378,-2.2344,-2.2344,-2.2344,-2.2344,-2.2129,-2.1909,-2.1209,-2.0245,-1.8427,-1.7471,-1.6709,-1.5511,-1.4094,-1.2745,-1.186,-0.9453,-0.8109,-0.6811,-0.4507,-0.2715,-0.1395,-0.1065,-0.0867,0.0,0.0,0.0,0.0,0.0,0.0,0.0,0.0,0.0,0.0,0.0,0.0,0.0,0.0,0.0,0.0,0.0,0.0,0.0,0.0,0.0,0.0,0.0,0.0,0.0,0.0,0.0,0.0,0.0,0.0,0.0,0.0,0.0,0.0,0.0,0.0,0.0,0.0,0.0,0.0,0.0,0.0,0.0,0.0,0.0,0.0,0.0,0.0,0.0,0.0,0.0,0.0,0.0,0.0,0.0,0.0,0.0,-2.3219,-2.3219,-2.3219,-2.3219,-2.3219,-2.3219,-2.3137,-2.3015,-2.2934,-2.2818,-2.269,-2.2595,-2.252,-2.2472,-2.2452,-2.2411,-2.2384,-2.252,-2.2649,-2.2791,-2.294,-2.3063,-2.3212,-2.3219,-2.3219,-2.3219,-2.3212,-2.3191,-2.3117,-2.3035,-2.292,-2.2798,-2.2719,-2.2513,-2.2445,-2.2378,-2.235,-2.2344,-2.2344,-2.2268,-2.2316,-2.1789,-2.0957,-2.0383,-1.9688,-1.9043,-1.8329,-1.6968,-1.5901,-1.4962,-1.3421,-1.2084,-1.0654,-0.9087,-0.6659,-0.4079,-0.2745,-0.2079,-0.1547,-0.1077,0.0,0.0,-0.0269,0.0,0.0,0.0,0.0,0.0,0.0,0.0,0.0,0.0,0.0,0.0,0.0,0.0,0.0,0.0,0.0,0.0,0.0,0.0,0.0,0.0,0.0,0.0,0.0,0.0,0.0,0.0,0.0,0.0,0.0,0.0,0.0,0.0,0.0,0.0,0.0,0.0,0.0,0.0,0.0,0.0,0.0,0.0,0.0,0.0,0.0,0.0,0.0,0.0,0.0,0.0,0.0,-2.3219,-2.3219,-2.3219,-2.3219,-2.3219,-2.3219,-2.3158,-2.3063,-2.3022,-2.294,-2.2839,-2.2784,-2.2703,-2.2628,-2.2588,-2.2547,-2.2445,-2.2662,-2.2737,-2.2866,-2.2988,-2.3124,-2.3212,-2.3219,-2.3219,-2.3219,-2.3219,-2.3219,-2.3185,-2.3117,-2.3035,-2.2879,-2.2753,-2.2617,-2.2486,-2.2378,-2.235,-2.2344,-2.2344,-2.2261,-2.2235,-2.2032,-2.1815,-2.1679,-2.099,-2.0519,-2.018,-1.9177,-1.8378,-1.764,-1.6768,-1.563,-1.429,-1.3689,-1.1678,-0.806,-0.5581,-0.4374,-0.3365,-0.2826,-0.2153,-0.1683,-0.101,0.0,0.0,0.0,0.0,0.0,0.0,0.0,0.0,0.0,0.0,0.0,0.0,0.0,0.0,0.0,0.0,0.0,0.0,0.0,0.0,0.0,0.0,0.0,0.0,0.0,0.0,0.0,0.0,0.0,0.0,0.0,0.0,0.0,0.0,0.0,0.0,0.0,0.0,0.0,0.0,0.0,0.0,0.0,0.0,0.0,0.0,0.0,0.0,0.0,0.0,0.0,0.0,-2.3219,-2.3219,-2.3219,-2.3219,-2.3219,-2.3219,-2.3212,-2.3178,-2.3069,-2.3008,-2.2974,-2.2852,-2.2791,-2.2757,-2.2744,-2.2737,-2.2703,-2.2656,-2.2757,-2.2927,-2.2934,-2.3029,-2.3191,-2.3219,-2.3219,-2.3212,-2.3212,-2.3219,-2.3191,-2.3171,-2.3042,-2.2852,-2.2751,-2.2635,-2.2432,-2.2371,-2.2344,-2.2344,-2.2344,-2.2276,-2.2133,-2.1964,-2.1815,-2.1658,-2.1396,-2.1176,-2.111,-2.0379,-1.9914,-1.9781,-1.8645,-1.7912,-1.7374,-1.6368,-1.5763,-1.3689,-1.0875,-0.7191,-0.5915,-0.5043,-0.4371,-0.3567,-0.2894,-0.2154,-0.1417,-0.0679,0.0,0.0,0.0,0.0,0.0,0.0,0.0,0.0,0.0,0.0,0.0,0.0,0.0,0.0,0.0,0.0,0.0,0.0,0.0,0.0,0.0,0.0,0.0,0.0,0.0,0.0,0.0,0.0,0.0,0.0,0.0,0.0,0.0,0.0,0.0,0.0,0.0,0.0,0.0,0.0,0.0,0.0,0.0,0.0,0.0,0.0,0.0,0.0,0.0,-2.3219,-2.3219,-2.3219,-2.3219,-2.3219,-2.3219,-2.3219,-2.3205,-2.3158,-2.313,-2.3124,-2.3069,-2.2988,-2.2913,-2.2832,-2.2778,-2.2764,-2.271,-2.2798,-2.2961,-2.2947,-2.3015,-2.3171,-2.3219,-2.3219,-2.3205,-2.3144,-2.309,-2.3103,-2.3083,-2.2981,-2.2805,-2.2696,-2.2671,-2.2425,-2.2371,-2.235,-2.2344,-2.2323,-2.2215,-2.2032,-2.1903,-2.1774,-2.1557,-2.1409,-2.1382,-2.1302,-2.1176,-2.0977,-2.0844,-2.018,-1.9848,-1.9443,-1.8778,-1.8239,-1.704,-1.5429,-1.2749,-1.0138,-0.8264,-0.7126,-0.612,-0.5181,-0.3842,-0.271,-0.205,-0.1446,0.0,0.0,-0.0487,0.0,0.0,0.0,0.0,0.0,0.0,0.0,0.0,0.0,0.0,0.0,0.0,0.0,0.0,0.0,0.0,0.0,0.0,0.0,0.0,0.0,0.0,0.0,0.0,0.0,0.0,0.0,0.0,0.0,0.0,0.0,0.0,0.0,0.0,0.0,0.0,0.0,0.0,0.0,0.0,0.0,0.0,0.0,0.0,0.0,-2.3219,-2.3219,-2.3219,-2.3219,-2.3219,-2.3219,-2.3219,-2.3219,-2.3219,-2.3219,-2.3219,-2.3205,-2.3151,-2.3069,-2.2954,-2.29,-2.2846,-2.2805,-2.2852,-2.292,-2.2968,-2.3029,-2.313,-2.3178,-2.3219,-2.3212,-2.309,-2.3008,-2.2947,-2.29,-2.2818,-2.2723,-2.2622,-2.2603,-2.2472,-2.2398,-2.2344,-2.2344,-2.2344,-2.2181,-2.195,-2.1889,-2.1706,-2.1536,-2.1375,-2.1375,-2.1375,-2.1375,-2.1375,-2.1309,-2.1242,-2.0911,-2.0579,-2.0379,-1.9974,-1.9177,-1.8239,-1.7168,-1.4624,-1.2615,-1.0611,-0.9139,-0.7615,-0.5954,-0.5112,-0.4412,-0.3469,-0.2219,-0.1814,-0.133,0.0,0.0,0.0,0.0,0.0,0.0,0.0,0.0,0.0,0.0,0.0,0.0,0.0,0.0,0.0,0.0,0.0,0.0,0.0,0.0,0.0,0.0,0.0,0.0,0.0,0.0,0.0,0.0,0.0,0.0,0.0,0.0,0.0,0.0,0.0,0.0,0.0,0.0,0.0,0.0,0.0,0.0,0.0,0.0,0.0,-2.3219,-2.3219,-2.3219,-2.3219,-2.3219,-2.3219,-2.3219,-2.3219,-2.3219,-2.3219,-2.3219,-2.3219,-2.3212,-2.3191,-2.3151,-2.3083,-2.2988,-2.2846,-2.2839,-2.2832,-2.2818,-2.2927,-2.3056,-2.3171,-2.3219,-2.3191,-2.3056,-2.2913,-2.2798,-2.2676,-2.2685,-2.263,-2.2534,-2.2459,-2.2405,-2.2364,-2.2344,-2.2337,-2.2323,-2.2174,-2.1957,-2.1848,-2.172,-2.1443,-2.1375,-2.1375,-2.1375,-2.1375,-2.1375,-2.1375,-2.1375,-2.1368,-2.1176,-2.1176,-2.0844,-2.0678,-2.0279,-1.9619,-1.8358,-1.6384,-1.4562,-1.2505,-1.0546,-0.8921,-0.8292,-0.6557,-0.5338,-0.4584,-0.4052,-0.2803,-0.1893,-0.0982,-0.0982,0.0,0.0,0.0,0.0,0.0,0.0,0.0,0.0,0.0,0.0,0.0,0.0,0.0,0.0,0.0,0.0,0.0,0.0,0.0,0.0,0.0,0.0,0.0,0.0,0.0,0.0,0.0,0.0,0.0,0.0,0.0,0.0,0.0,0.0,0.0,0.0,0.0,0.0,0.0,0.0,0.0,0.0,-2.3219,-2.3219,-2.3219,-2.3219,-2.3219,-2.3219,-2.3219,-2.3219,-2.3219,-2.3219,-2.3219,-2.3219,-2.3219,-2.3219,-2.3219,-2.3198,-2.311,-2.2879,-2.2907,-2.2934,-2.2927,-2.2947,-2.3076,-2.3171,-2.3219,-2.3171,-2.3002,-2.2859,-2.2778,-2.2554,-2.2445,-2.2425,-2.2432,-2.2398,-2.235,-2.2344,-2.2344,-2.231,-2.2242,-2.2086,-2.193,-2.1781,-2.1652,-2.1402,-2.1375,-2.1375,-2.1375,-2.1375,-2.1375,-2.1375,-2.1375,-2.1375,-2.1389,-2.1389,-2.1496,-2.1564,-2.125,-2.1216,-2.0835,-1.8879,-1.6733,-1.5427,-1.405,-1.2991,-1.1859,-1.0687,-0.9194,-0.7956,-0.6568,-0.5532,-0.4205,-0.3155,-0.2384,-0.1963,-0.1543,-0.1052,-0.084,-0.0766,0.0,0.0,0.0,0.0,0.0,0.0,0.0,0.0,0.0,0.0,0.0,0.0,0.0,0.0,0.0,0.0,0.0,0.0,0.0,0.0,0.0,0.0,0.0,0.0,0.0,0.0,0.0,0.0,0.0,0.0,0.0,0.0,0.0,0.0,0.0,0.0,0.0,-2.3219,-2.3219,-2.3219,-2.3219,-2.3219,-2.3219,-2.3219,-2.3219,-2.3219,-2.3219,-2.3219,-2.3219,-2.3219,-2.3219,-2.3219,-2.3178,-2.3103,-2.2968,-2.2974,-2.2961,-2.2947,-2.2981,-2.311,-2.3198,-2.3212,-2.3151,-2.2947,-2.2778,-2.2771,-2.2479,-2.2384,-2.2357,-2.2344,-2.2274,-2.2274,-2.2344,-2.2344,-2.2303,-2.2188,-2.2038,-2.1889,-2.1747,-2.1604,-2.1402,-2.1375,-2.1375,-2.1375,-2.1375,-2.1375,-2.1375,-2.1375,-2.1469,-2.1489,-2.153,-2.1591,-2.1679,-2.1747,-2.1794,-2.1315,-2.0253,-1.862,-1.7885,-1.7172,-1.6242,-1.5414,-1.4639,-1.2914,-1.1041,-0.9931,-0.8747,-0.7072,-0.5814,-0.4694,-0.4204,-0.3504,-0.3014,-0.2519,-0.23,-0.1804,0.0,0.0,0.0,0.0,0.0,0.0,0.0,0.0,0.0,0.0,0.0,0.0,0.0,0.0,0.0,0.0,0.0,0.0,0.0,0.0,0.0,0.0,0.0,0.0,0.0,0.0,0.0,0.0,0.0,0.0,0.0,0.0,0.0,0.0,0.0,0.0,-2.3219,-2.3219,-2.3219,-2.3219,-2.3219,-2.3219,-2.3219,-2.3219,-2.3219,-2.3219,-2.3219,-2.3219,-2.3219,-2.3219,-2.3219,-2.3171,-2.3083,-2.3015,-2.2974,-2.2927,-2.2968,-2.3008,-2.3076,-2.3158,-2.3219,-2.3151,-2.2947,-2.2778,-2.2771,-2.2486,-2.2364,-2.2344,-2.2344,-2.2344,-2.2344,-2.2344,-2.2344,-2.2316,-2.2188,-2.2038,-2.1889,-2.1747,-2.1597,-2.1482,-2.1402,-2.1416,-2.1489,-2.1523,-2.153,-2.153,-2.1523,-2.157,-2.1652,-2.1665,-2.174,-2.1862,-2.1876,-2.1889,-2.1821,-2.1063,-2.0646,-2.0313,-1.9429,-1.8731,-1.8396,-1.7533,-1.6214,-1.4326,-1.3487,-1.1954,-1.0283,-0.8817,-0.7701,-0.6792,-0.6234,-0.5182,-0.4754,-0.4043,-0.3606,-0.3248,-0.3099,0.0,0.0,0.0,0.0,0.0,0.0,0.0,0.0,0.0,0.0,0.0,0.0,0.0,0.0,0.0,0.0,0.0,0.0,0.0,0.0,0.0,0.0,0.0,0.0,0.0,0.0,0.0,0.0,0.0,0.0,0.0,0.0,0.0,0.0,-2.3219,-2.3219,-2.3219,-2.3219,-2.3219,-2.3219,-2.3219,-2.3219,-2.3219,-2.3219,-2.3219,-2.3219,-2.3219,-2.3219,-2.3219,-2.3191,-2.3144,-2.3035,-2.2974,-2.3069,-2.3049,-2.3083,-2.3137,-2.3178,-2.3219,-2.3137,-2.294,-2.2778,-2.2778,-2.2486,-2.2364,-2.2344,-2.2344,-2.2344,-2.2344,-2.2344,-2.2344,-2.2316,-2.2188,-2.2038,-2.1889,-2.1747,-2.1597,-2.1389,-2.1523,-2.1577,-2.1584,-2.1638,-2.1692,-2.1699,-2.1692,-2.174,-2.1801,-2.1815,-2.1882,-2.1998,-2.2038,-2.2086,-2.2078,-2.1838,-2.1804,-2.155,-2.1239,-2.067,-2.0381,-2.0104,-1.8926,-1.7742,-1.6695,-1.537,-1.4535,-1.2655,-1.1396,-1.0772,-0.9865,-0.8258,-0.7338,-0.6331,-0.5681,-0.5394,-0.5241,-0.4694,-0.3735,-0.2775,-0.229,-0.1664,-0.1528,-0.0485,0.0,0.0,0.0,0.0,0.0,0.0,0.0,0.0,0.0,0.0,0.0,0.0,0.0,0.0,0.0,0.0,0.0,0.0,0.0,0.0,0.0,0.0,0.0,0.0,0.0,0.0,0.0,-2.3219,-2.3219,-2.3219,-2.3219,-2.3219,-2.3219,-2.3219,-2.3219,-2.3219,-2.3219,-2.3219,-2.3219,-2.3219,-2.3219,-2.3219,-2.3219,-2.3205,-2.3137,-2.3103,-2.3205,-2.3137,-2.3151,-2.3191,-2.3219,-2.3219,-2.3137,-2.2954,-2.2778,-2.2764,-2.2486,-2.2357,-2.2344,-2.2344,-2.2344,-2.2344,-2.2344,-2.2344,-2.2296,-2.2188,-2.2038,-2.1889,-2.1747,-2.1597,-2.153,-2.1564,-2.1665,-2.1706,-2.1855,-2.1889,-2.1889,-2.1896,-2.1916,-2.1937,-2.1977,-2.2038,-2.214,-2.2201,-2.2173,-2.2227,-2.2247,-2.2124,-2.2084,-2.2227,-2.2054,-2.1708,-2.1362,-2.0803,-1.9897,-1.9267,-1.8435,-1.7395,-1.5578,-1.4952,-1.4326,-1.3282,-1.1675,-1.1041,-1.0085,-0.9452,-0.9016,-0.8457,-0.7564,-0.6248,-0.5157,-0.44,-0.3696,-0.2995,-0.1876,-0.0832,0.0,0.0,0.0,0.0,0.0,0.0,0.0,0.0,0.0,0.0,0.0,0.0,0.0,0.0,0.0,0.0,0.0,0.0,0.0,0.0,0.0,0.0,0.0,0.0,0.0,0.0,-2.3219,-2.3219,-2.3219,-2.3219,-2.3219,-2.3219,-2.3219,-2.3219,-2.3219,-2.3219,-2.3219,-2.3219,-2.3219,-2.3219,-2.3219,-2.3219,-2.3219,-2.3205,-2.3212,-2.3219,-2.3191,-2.3212,-2.3212,-2.3219,-2.3219,-2.3124,-2.2974,-2.2818,-2.2757,-2.2486,-2.2344,-2.2344,-2.2344,-2.2344,-2.2344,-2.2344,-2.2344,-2.2296,-2.2228,-2.2086,-2.1943,-2.1787,-2.1665,-2.1604,-2.1645,-2.1726,-2.1787,-2.1882,-2.1937,-2.1943,-2.1937,-2.2004,-2.2065,-2.2113,-2.2215,-2.2283,-2.2254,-2.2261,-2.2268,-2.2344,-2.2337,-2.2296,-2.2323,-2.2268,-2.2199,-2.206,-2.1639,-2.1293,-2.0733,-2.0104,-1.9198,-1.8643,-1.8158,-1.7464,-1.67,-1.5931,-1.5513,-1.4869,-1.4239,-1.3675,-1.3115,-1.1995,-0.9889,-0.8517,-0.7554,-0.6921,-0.6136,-0.4655,-0.3393,0.0,0.0,0.0,0.0,0.0,0.0,0.0,0.0,0.0,0.0,0.0,0.0,0.0,0.0,0.0,0.0,0.0,0.0,0.0,0.0,0.0,0.0,0.0,0.0,0.0,0.0,-2.3219,-2.3219,-2.3219,-2.3219,-2.3219,-2.3219,-2.3219,-2.3219,-2.3219,-2.3219,-2.3219,-2.3219,-2.3219,-2.3219,-2.3219,-2.3219,-2.3219,-2.3219,-2.3219,-2.3219,-2.3219,-2.3219,-2.3219,-2.3219,-2.3219,-2.3158,-2.3035,-2.2879,-2.2744,-2.2493,-2.235,-2.2344,-2.2344,-2.2344,-2.2344,-2.2344,-2.2344,-2.2261,-2.2207,-2.2167,-2.2038,-2.1896,-2.1794,-2.1767,-2.1781,-2.1855,-2.1957,-2.2093,-2.216,-2.2188,-2.2201,-2.2249,-2.2255,-2.2207,-2.2247,-2.2323,-2.2337,-2.2344,-2.2344,-2.2344,-2.2344,-2.2344,-2.2344,-2.2344,-2.2274,-2.2274,-2.2199,-2.1922,-2.1853,-2.1155,-2.0803,-2.0457,-2.011,-1.9619,-1.8996,-1.8441,-1.8025,-1.7678,-1.7112,-1.667,-1.6115,-1.505,-1.3087,-1.2214,-1.1254,-1.0632,-0.9565,-0.8064,-0.6097,-0.4206,-0.2879,-0.2734,-0.2665,-0.2533,-0.2327,0.0,0.0,0.0,-0.1106,-0.0968,0.0,0.0,0.0,0.0,0.0,0.0,0.0,0.0,0.0,0.0,0.0,0.0,0.0,0.0,0.0,-2.3219,-2.3219,-2.3219,-2.3219,-2.3219,-2.3219,-2.3219,-2.3219,-2.3219,-2.3219,-2.3219,-2.3219,-2.3219,-2.3219,-2.3219,-2.3219,-2.3219,-2.3219,-2.3219,-2.3219,-2.3219,-2.3219,-2.3219,-2.3219,-2.3219,-2.3171,-2.309,-2.2954,-2.2805,-2.2588,-2.2418,-2.2344,-2.2344,-2.2344,-2.2344,-2.2344,-2.2344,-2.2344,-2.2316,-2.2242,-2.2133,-2.2018,-2.1964,-2.1909,-2.193,-2.2025,-2.2113,-2.2262,-2.233,-2.2344,-2.2344,-2.2344,-2.2337,-2.2268,-2.2268,-2.2344,-2.2344,-2.2344,-2.2344,-2.2344,-2.2344,-2.2344,-2.2344,-2.2344,-2.2344,-2.2274,-2.2274,-2.2199,-2.2274,-2.2205,-2.206,-2.1922,-2.1708,-2.157,-2.0941,-2.0387,-2.011,-1.9903,-1.9457,-1.9001,-1.8351,-1.7496,-1.647,-1.5689,-1.4952,-1.4105,-1.345,-1.2493,-0.9904,-0.7119,-0.5627,-0.4844,-0.4845,-0.4851,-0.4712,-0.457,-0.3898,-0.3291,-0.2819,-0.2473,-0.1777,0.0,0.0,0.0,0.0,0.0,0.0,0.0,0.0,0.0,0.0,0.0,0.0,0.0,0.0,-2.3219,-2.3219,-2.3219,-2.3219,-2.3219,-2.3219,-2.3219,-2.3219,-2.3219,-2.3219,-2.3219,-2.3219,-2.3219,-2.3219,-2.3219,-2.3219,-2.3219,-2.3219,-2.3219,-2.3219,-2.3219,-2.3219,-2.3219,-2.3219,-2.3219,-2.3171,-2.311,-2.3029,-2.2934,-2.2723,-2.2506,-2.2371,-2.2371,-2.2371,-2.2274,-2.2344,-2.2344,-2.2344,-2.233,-2.2276,-2.2181,-2.2106,-2.2059,-2.1984,-2.2032,-2.212,-2.2167,-2.2249,-2.2344,-2.2344,-2.2344,-2.2344,-2.2344,-2.2344,-2.2344,-2.2344,-2.2344,-2.2344,-2.2344,-2.2344,-2.2344,-2.2344,-2.2344,-2.2344,-2.2344,-2.2344,-2.2344,-2.2344,-2.2344,-2.2344,-2.2199,-2.2129,-2.206,-2.1991,-2.1708,-2.1362,-2.1293,-2.1116,-2.0889,-2.0445,-2.0014,-1.9229,-1.9005,-1.8094,-1.7704,-1.7214,-1.6416,-1.5795,-1.413,-1.0883,-0.9324,-0.8024,-0.8283,-0.8486,-0.7736,-0.7462,-0.646,-0.5727,-0.5191,-0.4431,-0.3999,-0.3995,0.0,-0.3449,-0.2634,-0.2024,0.0,0.0,0.0,0.0,0.0,0.0,-0.0606,-0.0673,0.0,-2.3219,-2.3219,-2.3219,-2.3219,-2.3219,-2.3219,-2.3219,-2.3219,-2.3219,-2.3219,-2.3219,-2.3219,-2.3219,-2.3219,-2.3219,-2.3219,-2.3219,-2.3219,-2.3219,-2.3219,-2.3219,-2.3219,-2.3219,-2.3219,-2.3219,-2.3212,-2.3171,-2.3103,-2.2981,-2.2812,-2.2726,-2.252,-2.2493,-2.2445,-2.2364,-2.2357,-2.2344,-2.2344,-2.2337,-2.2323,-2.2269,-2.2188,-2.212,-2.214,-2.2208,-2.2194,-2.2242,-2.2303,-2.2344,-2.2344,-2.2344,-2.2344,-2.2344,-2.2344,-2.2344,-2.2344,-2.2344,-2.2344,-2.2344,-2.2344,-2.2344,-2.2344,-2.2344,-2.2344,-2.2344,-2.2344,-2.2344,-2.2344,-2.2344,-2.2344,-2.2344,-2.2344,-2.2344,-2.2344,-2.2344,-2.2344,-2.2337,-2.216,-2.1983,-2.1676,-2.1321,-2.1103,-2.0879,-2.065,-2.0338,-1.9593,-1.8651,-1.7943,-1.7505,-1.5461,-1.4372,-1.3262,-1.3011,-1.2797,-1.1659,-1.0661,-0.9801,-0.8854,-0.8252,-0.735,-0.6454,-0.6618,-0.6848,-0.5552,-0.4599,-0.4192,-0.3649,0.0,0.0,-0.229,-0.1952,-0.1952,-0.1952,-0.202,-0.1885,-2.3219,-2.3219,-2.3219,-2.3219,-2.3219,-2.3219,-2.3219,-2.3219,-2.3219,-2.3219,-2.3219,-2.3219,-2.3219,-2.3219,-2.3219,-2.3219,-2.3219,-2.3219,-2.3219,-2.3219,-2.3219,-2.3219,-2.3219,-2.3219,-2.3219,-2.3219,-2.3212,-2.3144,-2.3022,-2.2934,-2.2812,-2.2739,-2.2678,-2.252,-2.2425,-2.2391,-2.2344,-2.2344,-2.2344,-2.2337,-2.2337,-2.2269,-2.2173,-2.222,-2.222,-2.2276,-2.2296,-2.2344,-2.2344,-2.2344,-2.2344,-2.2344,-2.2344,-2.2344,-2.2344,-2.2344,-2.2344,-2.2344,-2.2344,-2.2344,-2.2344,-2.2344,-2.2344,-2.2344,-2.2344,-2.2344,-2.2344,-2.2344,-2.2344,-2.2344,-2.2344,-2.2344,-2.2344,-2.2344,-2.2344,-2.2344,-2.2296,-2.2146,-2.2065,-2.1956,-2.1744,-2.1744,-2.1526,-2.1532,-2.1269,-2.1155,-2.0289,-1.9954,-1.9579,-1.906,-1.8299,-1.7601,-1.68,-1.604,-1.4847,-1.4045,-1.3442,-1.2489,-1.1347,-1.1217,-1.0825,-1.0074,-0.9429,-0.8755,-0.7876,-0.6793,-0.6242,-0.5684,-0.4586,-0.4107,-0.3701,-0.3364,-0.3431,-0.3701,-0.3836,-2.3219,-2.3219,-2.3219,-2.3219,-2.3219,-2.3219,-2.3219,-2.3219,-2.3219,-2.3219,-2.3219,-2.3219,-2.3219,-2.3219,-2.3219,-2.3219,-2.3219,-2.3219,-2.3219,-2.3219,-2.3219,-2.3219,-2.3219,-2.3219,-2.3219,-2.3219,-2.3212,-2.3151,-2.3063,-2.3022,-2.2961,-2.2812,-2.2767,-2.2664,-2.2596,-2.2445,-2.2378,-2.235,-2.2344,-2.2344,-2.2344,-2.2344,-2.2268,-2.2268,-2.2344,-2.2344,-2.2344,-2.2344,-2.2344,-2.2344,-2.2344,-2.2344,-2.2344,-2.2344,-2.2344,-2.2344,-2.2344,-2.2344,-2.2344,-2.2344,-2.2344,-2.2344,-2.2344,-2.2344,-2.2344,-2.2344,-2.2344,-2.2337,-2.2337,-2.2303,-2.2303,-2.2269,-2.2269,-2.2289,-2.2289,-2.233,-2.2276,-2.2208,-2.2154,-2.2106,-2.2106,-2.2113,-2.2113,-2.2051,-2.2072,-2.2025,-2.1909,-2.176,-2.1431,-2.0683,-1.9971,-1.9492,-1.8923,-1.8239,-1.764,-1.7035,-1.6363,-1.5649,-1.4714,-1.5124,-1.5019,-1.3836,-1.3082,-1.2823,-1.1871,-1.0636,-0.9597,-0.8958,-0.7776,-0.6729,-0.5851,-0.5648,-0.5919,-0.6187,-0.6257,-2.3219,-2.3219,-2.3219,-2.3219,-2.3219,-2.3219,-2.3219,-2.3219,-2.3219,-2.3219,-2.3219,-2.3219,-2.3219,-2.3219,-2.3219,-2.3219,-2.3219,-2.3219,-2.3219,-2.3219,-2.3219,-2.3219,-2.3219,-2.3219,-2.3219,-2.3219,-2.3219,-2.3198,-2.3144,-2.3151,-2.311,-2.2968,-2.2947,-2.2791,-2.2637,-2.2493,-2.2445,-2.2391,-2.2344,-2.2344,-2.2344,-2.2344,-2.2344,-2.2344,-2.2344,-2.2344,-2.2344,-2.2344,-2.2344,-2.2344,-2.2344,-2.2344,-2.2344,-2.2344,-2.2344,-2.2344,-2.2344,-2.2344,-2.2344,-2.2344,-2.2344,-2.2344,-2.2344,-2.2344,-2.2344,-2.2344,-2.2261,-2.2241,-2.2214,-2.2188,-2.2147,-2.2052,-2.2025,-2.2086,-2.2113,-2.2242,-2.2283,-2.2215,-2.2154,-2.2133,-2.214,-2.214,-2.214,-2.2106,-2.2032,-2.1943,-2.1794,-2.1645,-2.1536,-2.1482,-2.1375,-2.0977,-2.0512,-2.0446,-1.9848,-1.9443,-1.8844,-1.8274,-1.7858,-1.7707,-1.751,-1.7118,-1.6491,-1.6039,-1.5616,-1.4643,-1.3651,-1.2244,-1.1696,-1.0698,-0.8874,-0.8133,-0.8471,-0.8605,-0.8739]},{"header":{"parameterUnit":"m.s-1","parameterCategory":1,"la1":31.0,"la2":29.5877,"lo1":-88.7671,"lo2":-86.6584,"dy":0.0162,"dx":0.0185,"nx":115,"ny":88,"refTime":"2024-06-17T06:00:00:Z","depth":0,"parameterNumber":3,"parameterNumberName":"V-component_of_WINDS"},"data":[0.0,0.0,0.0,0.0,0.0,0.0,0.0,0.0,0.0,0.0,0.0,0.0,0.0,0.0,0.0,0.0,0.0,0.0,0.0,0.0,0.0,0.0,0.0,0.0,0.0,0.0,0.0,0.0,0.0,0.0,0.0,0.0,0.0,0.0,0.0,0.0,0.0,0.0,0.0,0.0,0.0,0.0,0.0,0.0,0.0,0.0,0.0,0.0,0.0,0.0,0.0,0.0,0.0,0.0,0.0,0.0,0.0,0.0,0.0,0.0,0.0,0.0,0.0,0.0,0.0,0.0,0.0,0.0,0.0,0.0,0.0,0.0,0.0,0.0,0.0,0.0,0.0,0.0,0.0,0.0,0.0,0.0,0.0,0.0,0.0,0.0,0.0,0.0,0.0,0.0,0.0,0.0,0.0,0.0,0.0,0.0,0.0,0.0,0.0,0.0,0.0,0.0,0.0,0.0,0.0,0.0,0.0,0.0,0.0,0.0,0.0,0.0,0.0,0.0,0.0,0.0,0.0,0.0,0.0,0.0,0.0,0.0,0.0,0.0,0.0,0.0,0.0,0.0,0.0,0.0,0.0,0.0,0.0,0.0,0.0,0.0,0.0,0.0,0.0,0.0,0.0,0.0,0.0,0.0,0.0,0.0,0.0,0.0,0.0,0.0,0.0,0.0,0.0,0.0,0.0,0.0,0.0,0.0,0.0,0.0,0.0,0.0,0.0,0.0,0.0,0.0,0.0,0.0,0.0,0.0,0.0,0.0,0.0,0.0,0.0,0.0,0.0,0.0,0.0,0.0,0.0,0.0,0.0,0.0,0.0,0.0,0.0,0.0,0.0,0.0,0.0,0.0,0.0,0.0,0.0,0.0,0.0,0.0,0.0,0.0,0.0,0.0,0.0,0.0,0.0,0.0,0.0,0.0,0.0,0.0,0.0,0.0,0.0,0.0,0.0,0.0,0.0,0.0,0.0,0.0,0.0,0.0,0.0,0.0,0.0,0.0,0.0,0.0,0.0,0.0,0.0,0.0,0.0,0.0,0.0,0.0,0.0,0.0,0.0,0.0,0.0,0.0,0.0,0.0,0.0,0.0,0.0,0.0,0.0,0.0,0.0,0.0,0.0,0.0,0.0,0.0,0.0,0.0,0.0,0.0,0.0,0.0,0.0,0.0,0.0,0.0,0.0,0.0,0.0,0.0,0.0,0.0,0.0,0.0,0.0,0.0,0.0,0.0,0.0,0.0,0.0,0.0,0.0,0.0,0.0,0.0,0.0,0.0,0.0,0.0,0.0,0.0,0.0,0.0,0.0,0.0,0.0,0.0,0.0,0.0,0.0,0.0,0.0,0.0,0.0,0.0,0.0,0.0,0.0,0.0,0.0,0.0,0.0,0.0,0.0,0.0,0.0,0.0,0.0,0.0,0.0,0.0,0.0,0.0,0.0,0.0,0.0,0.0,0.0,0.0,0.0,0.0,0.0,0.0,0.0,0.0,0.0,0.0,0.0,0.0,0.0,0.0,0.0,0.0,0.0,0.0,0.0,0.0,0.0,0.0,0.0,0.0,0.0,0.0,0.0,0.0,0.0,0.0,0.0,0.0,0.0,0.0,0.0,0.0,0.0,0.0,0.0,0.0,0.0,0.0,0.0,0.0,0.0,0.0,0.0,0.0,0.0,0.0,0.0,0.0,0.0,0.0,0.0,0.0,0.0,0.0,0.0,0.0,0.0,0.0,0.0,0.0,0.0,0.0,0.0,0.0,0.0,0.0,0.0,0.0,0.0,0.0,0.0,0.0,0.0,0.0,0.0,0.0,0.0,0.0,0.0,0.0,0.0,0.0,0.0,0.0,0.0,0.0,0.0,0.0,0.0,0.0,0.0,0.0,0.0,0.0,0.0,0.0,0.0,0.0,0.0,0.0,0.0,0.0,0.0,0.0,0.0,0.0,0.0,0.0,0.0,0.0,0.0,0.0,0.0,0.0,0.0,0.0,0.0,0.0,0.0,0.0,0.0,0.0,0.0,0.0,0.0,0.0,0.0,0.0,0.0,0.0,0.0,0.0,0.0,0.0,0.0,0.0,0.0,0.0,0.0,0.0,0.0,0.0,0.0,0.0,0.0,0.0,0.0,0.0,0.0,0.0,0.0,0.0,0.0,0.0,0.0,0.0,0.0,0.0,0.0,0.0,0.0,0.0,0.0,0.0,0.0,0.0,0.0,0.0,0.0,0.0,0.0,0.0,0.0,0.0,0.0,0.0,0.0,0.0,0.0,0.0,0.0,0.0,0.0,0.0,0.0,0.0,0.0,0.0,0.0,0.0,0.0,0.0,0.0,0.0,0.0,0.0,0.0,0.0,0.0,0.0,0.0,0.0,0.0,0.0,0.0,0.0,0.0,0.0,0.0,0.0,0.0,0.0,0.0,0.0,0.0,0.0,0.0,0.0,0.0,0.0,0.0,0.0,0.0,0.0,0.0,0.0,0.0,0.0,0.0,0.0,0.0,0.0,0.0,0.0,0.0,0.0,0.0,0.0,0.0,0.0,0.0,0.0,0.0,0.0,0.0,0.0,0.0,0.0,0.0,0.0,0.0,0.0,0.0,0.0,0.0,0.0,0.0,0.0,0.0,0.0,0.0,0.0,0.0,0.0,0.0,0.0,0.0,0.0,0.0,0.0,0.0,0.0,0.0,0.0,0.0,0.0,0.0,0.0,0.0,0.0,0.0,0.0,0.0,0.0,0.0,0.0,0.0,0.0,0.0,0.0,0.0,0.0,0.0,0.0,0.0,0.0,0.0,0.0,0.0,0.0,0.0,0.0,0.0,0.0,0.0,0.0,0.0,0.0,0.0,0.0,0.0,0.0,0.0,0.0,0.0,0.0,0.0,0.0,0.0,0.0,0.0,0.0,0.0,0.0,0.0,0.0,0.0,0.0,0.0,0.0,0.0,0.0,0.0,0.0,0.0,0.0,0.0,0.0,0.0,0.0,0.0,0.0,0.0,0.0,0.0,0.0,0.0,0.0,0.0,0.0,0.0,0.0,0.0,0.0,0.0,0.0,0.0,0.0,0.0,0.0,0.0,0.0,0.0,0.0,0.0,0.0,0.0,0.0,0.0,0.0,0.0,0.0,0.0,0.0,0.0,0.0,0.0,0.0,0.0,0.0,0.0,0.0,0.0,0.0,0.0,0.0,0.0,0.0,0.0,0.0,0.0,0.0,0.0,0.0,0.0,0.0,0.0,0.0,0.0,0.0,0.0,0.0,0.0,0.0,0.0,0.0,0.0,0.0,0.0,0.0,0.0,0.0,0.0,0.0,0.0,0.0,0.0,0.0,0.0,0.0,0.0,0.0,0.0,0.0,0.0,0.0,0.0,0.0,0.0,0.0,0.0,0.0,0.0,0.0,0.0,0.0,0.0,0.0,0.0,0.0,0.0,0.0,0.0,0.0,0.0,0.0,0.0,0.0,0.0,0.0,0.0,0.0,0.0,0.0,0.0,0.0,0.0,0.0,0.0,0.0,0.0,0.0,0.0,0.0,0.0,0.0,0.0,0.0,0.0,0.0,0.0,0.0,0.0,0.0,0.0,0.0,0.0,0.0,0.0,0.0,0.0,0.0,0.0,0.0,0.0,0.0,0.0,0.0,0.0,0.0,0.0,0.0,0.0,0.0,0.0,0.0,0.0,0.0,0.0,0.0,0.0,0.0,0.0,0.0,0.0,0.0,0.0,0.0,0.0,0.0,0.0,0.0,0.0,0.0,0.0,0.0,0.0,0.0,0.0,0.0,0.0,0.0,0.0,0.0,0.0,0.0,0.0,0.0,0.0,0.0,0.0,0.0,0.0,0.0,0.0,0.0,0.0,0.0,0.0,0.0,0.0,0.0,0.0,0.0,0.0,0.0,0.0,0.0,0.0,0.0,0.0,0.0,0.0,0.0,0.0,0.0,0.0,0.0,0.0,0.0,0.0,0.0,0.0,0.0,0.0,0.0,0.0,0.0,0.0,0.0,0.0,0.0,0.0,0.0,0.0,0.0,0.0,0.0,0.0,0.0,0.0,0.0,0.0,0.0,0.0,0.0,0.0,0.0,0.0,0.0,0.0,0.0,0.0,0.0,0.0,0.0,0.0,0.0,0.0,0.0,0.0,0.0,0.0,0.0,0.0,0.0,0.0,0.0,0.0,0.0,0.0,0.0,0.0,0.0,0.0,0.0,0.0,0.0,0.0,0.0,0.0,0.0,0.0,0.0,0.0,0.0,0.0,0.0,0.0,0.0,0.0,0.0,0.0,0.0,6.043,0.0,0.0,0.0,0.0,0.0,0.0,0.0,0.0,0.0,0.0,0.0,0.0,0.0,0.0,0.0,0.0,0.0,0.0,0.0,0.0,0.0,0.0,0.0,0.0,0.0,0.0,0.0,0.0,0.0,0.0,0.0,0.0,0.0,0.0,0.0,0.0,0.0,0.0,0.0,0.0,0.0,0.0,0.0,0.0,0.0,0.0,0.0,0.0,0.0,0.0,0.0,0.0,0.0,0.0,0.0,0.0,0.0,0.0,0.0,0.0,0.0,0.0,0.0,0.0,0.0,0.0,0.0,0.0,0.0,0.0,0.0,0.0,0.0,0.0,0.0,0.0,0.0,0.0,0.0,0.0,0.0,0.0,0.0,0.0,0.0,0.0,0.0,0.0,0.0,0.0,0.0,0.0,0.0,0.0,0.0,0.0,0.0,0.0,0.0,0.0,0.0,0.0,0.0,0.0,0.0,0.0,0.0,0.0,0.0,0.0,6.1914,6.2383,6.1953,6.1758,6.1797,0.0,0.0,0.0,0.0,0.0,0.0,0.0,0.0,0.0,0.0,0.0,0.0,0.0,0.0,0.0,0.0,0.0,0.0,0.0,0.0,0.0,0.0,0.0,0.0,0.0,0.0,0.0,0.0,0.0,0.0,0.0,0.0,0.0,0.0,0.0,0.0,0.0,0.0,0.0,0.0,0.0,0.0,0.0,0.0,0.0,0.0,0.0,0.0,0.0,0.0,0.0,0.0,0.0,0.0,0.0,0.0,0.0,0.0,0.0,0.0,0.0,0.0,0.0,0.0,0.0,0.0,0.0,0.0,0.0,0.0,0.0,0.0,0.0,0.0,0.0,0.0,0.0,0.0,0.0,0.0,0.0,0.0,0.0,0.0,0.0,0.0,0.0,0.0,0.0,0.0,0.0,0.0,0.0,0.0,0.0,0.0,0.0,0.0,0.0,0.0,0.0,0.0,0.0,0.0,0.0,0.0,0.0,0.0,0.0,0.0,0.0,0.0,6.2656,6.25,6.2969,0.0,0.0,0.0,0.0,0.0,0.0,0.0,0.0,0.0,0.0,0.0,0.0,0.0,0.0,0.0,0.0,0.0,0.0,0.0,0.0,0.0,0.0,0.0,0.0,0.0,0.0,0.0,0.0,0.0,0.0,0.0,0.0,0.0,0.0,0.0,0.0,0.0,0.0,0.0,0.0,0.0,0.0,0.0,0.0,0.0,0.0,0.0,0.0,0.0,0.0,0.0,0.0,0.0,0.0,0.0,0.0,0.0,0.0,0.0,0.0,0.0,0.0,0.0,0.0,0.0,0.0,0.0,0.0,0.0,0.0,0.0,0.0,0.0,0.0,0.0,0.0,0.0,0.0,0.0,0.0,0.0,0.0,0.0,0.0,0.0,0.0,0.0,0.0,0.0,0.0,0.0,0.0,0.0,0.0,0.0,0.0,0.0,0.0,0.0,0.0,0.0,0.0,0.0,0.0,0.0,0.0,0.0,0.0,0.0,0.0,6.332,6.414,6.4101,0.0,6.3008,0.0,0.0,0.0,0.0,0.0,0.0,0.0,0.0,0.0,0.0,0.0,0.0,0.0,0.0,0.0,0.0,0.0,0.0,0.0,0.0,0.0,0.0,0.0,0.0,0.0,0.0,0.0,0.0,0.0,0.0,0.0,0.0,0.0,0.0,0.0,0.0,0.0,0.0,0.0,0.0,0.0,0.0,0.0,0.0,0.0,0.0,0.0,0.0,0.0,0.0,0.0,0.0,0.0,0.0,0.0,0.0,0.0,0.0,0.0,0.0,0.0,0.0,0.0,0.0,0.0,0.0,0.0,0.0,0.0,0.0,0.0,0.0,0.0,0.0,0.0,0.0,0.0,0.0,0.0,0.0,0.0,0.0,0.0,0.0,0.0,0.0,0.0,0.0,0.0,0.0,0.0,0.0,0.0,0.0,0.0,0.0,0.0,0.0,0.0,0.0,0.0,0.0,0.0,0.0,0.0,0.0,0.0,0.0,0.0,0.0,6.3672,6.5039,6.5078,6.4414,0.0,0.0,0.0,0.0,0.0,0.0,0.0,0.0,0.0,0.0,0.0,0.0,0.0,0.0,0.0,0.0,0.0,0.0,0.0,0.0,0.0,0.0,0.0,0.0,0.0,0.0,0.0,0.0,0.0,0.0,0.0,0.0,0.0,0.0,0.0,0.0,0.0,0.0,0.0,0.0,0.0,0.0,0.0,0.0,0.0,0.0,0.0,0.0,0.0,0.0,0.0,0.0,0.0,0.0,0.0,0.0,0.0,0.0,0.0,0.0,0.0,0.0,0.0,0.0,0.0,0.0,0.0,0.0,0.0,0.0,0.0,0.0,0.0,0.0,0.0,0.0,0.0,0.0,0.0,0.0,0.0,0.0,0.0,0.0,0.0,0.0,0.0,0.0,0.0,0.0,0.0,0.0,0.0,0.0,0.0,0.0,0.0,0.0,0.0,0.0,0.0,0.0,0.0,0.0,0.0,0.0,0.0,0.0,0.0,0.0,6.3594,6.4453,6.582,6.5742,6.4883,6.3398,0.0,0.0,0.0,0.0,0.0,0.0,0.0,0.0,0.0,0.0,0.0,0.0,0.0,0.0,0.0,0.0,0.0,0.0,0.0,0.0,0.0,0.0,0.0,0.0,0.0,0.0,0.0,0.0,0.0,0.0,0.0,0.0,0.0,0.0,0.0,0.0,0.0,0.0,0.0,0.0,0.0,0.0,0.0,0.0,0.0,0.0,0.0,0.0,0.0,0.0,0.0,0.0,0.0,0.0,0.0,0.0,0.0,0.0,0.0,0.0,0.0,0.0,0.0,0.0,0.0,0.0,0.0,0.0,0.0,0.0,0.0,0.0,0.0,0.0,0.0,0.0,0.0,0.0,0.0,0.0,0.0,0.0,0.0,0.0,0.0,0.0,0.0,0.0,0.0,0.0,0.0,0.0,0.0,0.0,0.0,0.0,0.0,0.0,0.0,0.0,0.0,0.0,0.0,0.0,0.0,0.0,0.0,0.0,6.4219,6.5039,6.5898,6.6797,6.6015,6.5156,0.0,0.0,0.0,0.0,0.0,0.0,0.0,0.0,0.0,0.0,0.0,0.0,0.0,0.0,0.0,0.0,0.0,0.0,0.0,0.0,0.0,0.0,0.0,0.0,0.0,0.0,0.0,0.0,0.0,0.0,0.0,0.0,0.0,0.0,0.0,0.0,0.0,0.0,0.0,0.0,0.0,0.0,0.0,0.0,0.0,0.0,0.0,0.0,0.0,0.0,0.0,0.0,0.0,0.0,0.0,0.0,0.0,0.0,0.0,0.0,0.0,0.0,0.0,0.0,0.0,0.0,0.0,0.0,0.0,0.0,0.0,0.0,0.0,0.0,0.0,0.0,0.0,0.0,0.0,0.0,0.0,0.0,0.0,0.0,0.0,0.0,0.0,0.0,0.0,0.0,0.0,0.0,0.0,0.0,0.0,0.0,0.0,0.0,0.0,0.0,0.0,0.0,0.0,0.0,0.0,0.0,0.0,0.0,0.0,6.4297,6.5703,6.6836,6.7656,6.6367,6.5195,0.0,0.0,0.0,0.0,0.0,0.0,0.0,0.0,0.0,0.0,0.0,0.0,0.0,0.0,0.0,0.0,0.0,0.0,0.0,0.0,0.0,0.0,0.0,0.0,0.0,0.0,0.0,0.0,0.0,0.0,0.0,0.0,0.0,0.0,0.0,0.0,0.0,0.0,0.0,0.0,0.0,0.0,0.0,0.0,0.0,0.0,0.0,0.0,0.0,0.0,0.0,0.0,0.0,0.0,0.0,0.0,0.0,0.0,0.0,0.0,0.0,0.0,0.0,0.0,0.0,0.0,0.0,0.0,0.0,0.0,0.0,0.0,0.0,0.0,0.0,0.0,0.0,0.0,0.0,0.0,0.0,0.0,0.0,0.0,0.0,0.0,0.0,0.0,0.0,0.0,0.0,0.0,0.0,0.0,0.0,0.0,0.0,0.0,0.0,0.0,0.0,0.0,0.0,0.0,0.0,0.0,0.0,0.0,0.0,6.5547,0.0,6.789,6.8125,6.6523,6.5195,0.0,0.0,0.0,0.0,0.0,0.0,0.0,0.0,0.0,0.0,0.0,0.0,0.0,0.0,0.0,0.0,0.0,0.0,0.0,0.0,0.0,0.0,0.0,0.0,0.0,0.0,0.0,0.0,0.0,0.0,0.0,0.0,0.0,0.0,0.0,0.0,0.0,0.0,0.0,0.0,0.0,0.0,0.0,0.0,0.0,0.0,0.0,0.0,0.0,0.0,0.0,0.0,0.0,0.0,0.0,0.0,0.0,0.0,0.0,0.0,0.0,0.0,0.0,0.0,0.0,0.0,0.0,0.0,0.0,0.0,0.0,0.0,0.0,0.0,0.0,0.0,0.0,0.0,0.0,0.0,0.0,0.0,0.0,0.0,0.0,0.0,0.0,0.0,0.0,0.0,0.0,0.0,0.0,0.0,0.0,0.0,0.0,0.0,0.0,0.0,0.0,0.0,0.0,0.0,0.0,0.0,0.0,0.0,6.5625,6.8086,6.8945,6.9062,6.8242,6.664,6.5234,0.0,0.0,0.0,0.0,0.0,0.0,0.0,0.0,0.0,0.0,0.0,0.0,0.0,0.0,0.0,0.0,0.0,0.0,0.0,0.0,0.0,0.0,0.0,0.0,0.0,0.0,0.0,0.0,0.0,0.0,0.0,0.0,0.0,0.0,0.0,0.0,0.0,0.0,0.0,0.0,0.0,0.0,0.0,0.0,0.0,0.0,0.0,0.0,0.0,0.0,0.0,0.0,0.0,0.0,0.0,0.0,0.0,0.0,0.0,0.0,0.0,0.0,0.0,0.0,0.0,0.0,0.0,0.0,0.0,0.0,0.0,0.0,0.0,0.0,0.0,0.0,0.0,0.0,0.0,0.0,0.0,0.0,0.0,0.0,0.0,0.0,0.0,0.0,0.0,0.0,0.0,0.0,0.0,0.0,0.0,0.0,0.0,0.0,0.0,0.0,0.0,0.0,0.0,0.0,0.0,0.0,0.0,0.0,0.0,6.9883,7.0156,7.0469,7.0742,6.8594,6.6719,0.0,0.0,0.0,0.0,0.0,0.0,0.0,0.0,0.0,0.0,0.0,0.0,0.0,0.0,0.0,0.0,0.0,0.0,0.0,0.0,0.0,0.0,0.0,0.0,0.0,0.0,0.0,0.0,0.0,0.0,0.0,0.0,0.0,0.0,0.0,0.0,0.0,0.0,0.0,0.0,0.0,0.0,0.0,0.0,0.0,0.0,0.0,0.0,0.0,0.0,0.0,0.0,0.0,0.0,0.0,0.0,0.0,0.0,0.0,0.0,0.0,0.0,0.0,0.0,0.0,0.0,0.0,0.0,0.0,0.0,0.0,0.0,0.0,0.0,0.0,0.0,0.0,0.0,0.0,0.0,0.0,0.0,0.0,0.0,0.0,0.0,0.0,0.0,0.0,0.0,0.0,0.0,0.0,0.0,0.0,0.0,0.0,0.0,0.0,0.0,0.0,0.0,0.0,0.0,0.0,0.0,0.0,0.0,0.0,7.2578,7.2656,7.2734,7.2969,7.0469,6.832,6.6601,0.0,0.0,0.0,0.0,0.0,0.0,0.0,0.0,0.0,0.0,0.0,0.0,0.0,0.0,0.0,0.0,0.0,0.0,0.0,0.0,0.0,0.0,0.0,0.0,0.0,0.0,0.0,0.0,0.0,0.0,0.0,0.0,0.0,0.0,0.0,0.0,0.0,0.0,0.0,0.0,0.0,0.0,0.0,0.0,0.0,0.0,0.0,0.0,0.0,0.0,0.0,0.0,0.0,0.0,0.0,0.0,0.0,0.0,0.0,0.0,0.0,0.0,0.0,0.0,0.0,0.0,0.0,0.0,0.0,0.0,0.0,0.0,0.0,0.0,0.0,0.0,0.0,0.0,0.0,0.0,0.0,0.0,0.0,0.0,0.0,0.0,0.0,0.0,0.0,0.0,0.0,0.0,0.0,0.0,0.0,0.0,0.0,0.0,0.0,0.0,0.0,0.0,0.0,0.0,0.0,0.0,0.0,0.0,7.6094,7.6211,7.5781,7.4726,7.2265,7.0078,0.0,0.0,0.0,0.0,0.0,0.0,0.0,0.0,0.0,0.0,0.0,0.0,0.0,0.0,0.0,0.0,0.0,0.0,0.0,0.0,0.0,0.0,0.0,0.0,0.0,0.0,0.0,0.0,0.0,0.0,0.0,0.0,0.0,0.0,0.0,0.0,0.0,0.0,0.0,0.0,0.0,0.0,0.0,0.0,0.0,0.0,0.0,0.0,0.0,0.0,0.0,0.0,0.0,0.0,0.0,0.0,0.0,0.0,0.0,0.0,0.0,0.0,0.0,0.0,0.0,0.0,0.0,0.0,0.0,0.0,0.0,0.0,0.0,0.0,0.0,0.0,0.0,0.0,0.0,0.0,0.0,0.0,0.0,0.0,0.0,0.0,0.0,0.0,0.0,0.0,0.0,0.0,0.0,0.0,0.0,0.0,0.0,0.0,0.0,0.0,0.0,0.0,0.0,0.0,0.0,0.0,0.0,0.0,0.0,7.8594,7.9961,7.9336,7.6601,7.4609,7.2148,0.0,0.0,0.0,0.0,0.0,0.0,0.0,0.0,0.0,0.0,0.0,0.0,0.0,0.0,0.0,0.0,0.0,0.0,0.0,0.0,0.0,0.0,0.0,0.0,0.0,0.0,0.0,0.0,0.0,0.0,0.0,0.0,0.0,0.0,0.0,0.0,0.0,0.0,0.0,0.0,0.0,0.0,0.0,0.0,0.0,0.0,0.0,0.0,0.0,0.0,0.0,0.0,0.0,0.0,0.0,0.0,0.0,0.0,0.0,0.0,0.0,0.0,0.0,0.0,0.0,0.0,0.0,0.0,0.0,0.0,0.0,0.0,0.0,0.0,0.0,0.0,0.0,0.0,0.0,0.0,0.0,0.0,0.0,0.0,0.0,0.0,0.0,0.0,0.0,0.0,0.0,0.0,0.0,0.0,0.0,0.0,0.0,0.0,0.0,0.0,0.0,0.0,0.0,0.0,0.0,0.0,0.0,0.0,7.8086,8.0742,8.25,8.2109,7.9414,7.7344,7.4609,0.0,0.0,0.0,0.0,0.0,0.0,0.0,0.0,0.0,0.0,0.0,0.0,0.0,0.0,0.0,0.0,0.0,0.0,0.0,0.0,0.0,0.0,0.0,0.0,0.0,0.0,0.0,0.0,0.0,0.0,0.0,0.0,0.0,0.0,0.0,0.0,0.0,0.0,0.0,0.0,0.0,0.0,0.0,0.0,0.0,0.0,0.0,0.0,0.0,0.0,0.0,0.0,0.0,0.0,0.0,0.0,0.0,0.0,0.0,0.0,0.0,0.0,0.0,0.0,0.0,0.0,0.0,0.0,0.0,0.0,0.0,0.0,0.0,0.0,0.0,0.0,0.0,0.0,0.0,0.0,0.0,0.0,0.0,0.0,0.0,0.0,0.0,0.0,0.0,0.0,0.0,0.0,0.0,0.0,0.0,0.0,0.0,0.0,0.0,0.0,0.0,0.0,0.0,0.0,0.0,0.0,0.0,0.0,8.0859,8.2695,8.4336,8.4414,8.2851,8.0117,7.6992,0.0,0.0,0.0,0.0,0.0,0.0,0.0,0.0,0.0,0.0,0.0,0.0,0.0,0.0,0.0,0.0,0.0,0.0,0.0,0.0,0.0,0.0,0.0,0.0,0.0,0.0,0.0,0.0,0.0,0.0,0.0,0.0,0.0,0.0,0.0,0.0,0.0,0.0,0.0,0.0,0.0,0.0,0.0,0.0,0.0,0.0,0.0,0.0,0.0,0.0,0.0,0.0,0.0,0.0,0.0,0.0,0.0,0.0,0.0,0.0,0.0,0.0,0.0,0.0,0.0,0.0,0.0,0.0,0.0,0.0,0.0,0.0,0.0,0.0,0.0,0.0,0.0,0.0,0.0,0.0,0.0,0.0,0.0,0.0,0.0,0.0,0.0,0.0,0.0,0.0,0.0,0.0,0.0,0.0,0.0,0.0,0.0,0.0,0.0,0.0,0.0,0.0,0.0,0.0,0.0,0.0,0.0,0.0,8.2929,8.5312,8.6406,8.6758,8.6406,8.1875,7.7851,0.0,0.0,0.0,0.0,0.0,0.0,0.0,0.0,0.0,0.0,0.0,0.0,0.0,0.0,0.0,0.0,0.0,0.0,0.0,0.0,0.0,0.0,0.0,0.0,0.0,0.0,0.0,0.0,0.0,0.0,0.0,0.0,0.0,0.0,0.0,0.0,0.0,0.0,0.0,0.0,0.0,0.0,0.0,0.0,0.0,0.0,0.0,0.0,6.9453,0.0,0.0,0.0,0.0,0.0,0.0,0.0,0.0,0.0,0.0,0.0,0.0,0.0,0.0,0.0,0.0,0.0,0.0,0.0,0.0,0.0,0.0,0.0,0.0,0.0,0.0,0.0,0.0,0.0,0.0,0.0,0.0,0.0,0.0,0.0,0.0,0.0,0.0,0.0,0.0,0.0,0.0,0.0,0.0,0.0,0.0,0.0,0.0,0.0,0.0,0.0,0.0,0.0,0.0,0.0,0.0,0.0,0.0,0.0,8.4609,8.6758,8.8008,8.832,8.7422,8.3633,7.9726,0.0,0.0,0.0,0.0,0.0,0.0,0.0,0.0,0.0,0.0,0.0,0.0,0.0,0.0,0.0,0.0,0.0,0.0,0.0,0.0,0.0,0.0,0.0,0.0,0.0,0.0,0.0,0.0,0.0,0.0,0.0,0.0,0.0,0.0,0.0,0.0,0.0,0.0,0.0,0.0,0.0,0.0,0.0,0.0,0.0,0.0,0.0,0.0,0.0,0.0,0.0,0.0,0.0,0.0,0.0,0.0,0.0,0.0,0.0,0.0,0.0,0.0,0.0,0.0,0.0,0.0,0.0,0.0,0.0,0.0,0.0,0.0,0.0,0.0,0.0,0.0,0.0,0.0,0.0,0.0,0.0,0.0,0.0,0.0,0.0,0.0,0.0,0.0,0.0,0.0,0.0,0.0,0.0,0.0,0.0,0.0,0.0,0.0,0.0,0.0,0.0,0.0,0.0,0.0,0.0,0.0,0.0,8.3711,8.6328,8.8047,8.9609,8.9609,8.789,8.5117,8.1719,7.7734,0.0,0.0,0.0,0.0,0.0,0.0,0.0,0.0,0.0,0.0,0.0,0.0,0.0,0.0,0.0,0.0,0.0,0.0,0.0,0.0,0.0,0.0,0.0,0.0,0.0,0.0,0.0,0.0,0.0,0.0,0.0,0.0,0.0,0.0,0.0,0.0,0.0,0.0,7.207,7.3789,0.0,0.0,0.0,0.0,0.0,0.0,0.0,0.0,7.3515,0.0,0.0,0.0,0.0,0.0,0.0,0.0,0.0,0.0,0.0,0.0,0.0,0.0,0.0,0.0,0.0,0.0,0.0,0.0,0.0,0.0,0.0,0.0,0.0,0.0,0.0,0.0,0.0,0.0,0.0,0.0,0.0,0.0,0.0,0.0,0.0,0.0,0.0,0.0,0.0,0.0,0.0,0.0,0.0,0.0,0.0,0.0,0.0,0.0,0.0,0.0,0.0,0.0,0.0,0.0,0.0,8.2929,8.6328,8.8906,9.0664,9.164,9.1367,8.957,8.5703,8.2226,7.9297,0.0,0.0,0.0,0.0,0.0,0.0,0.0,0.0,0.0,0.0,0.0,0.0,0.0,0.0,0.0,0.0,0.0,0.0,0.0,0.0,0.0,0.0,0.0,0.0,0.0,0.0,0.0,0.0,0.0,0.0,0.0,0.0,0.0,0.0,0.0,0.0,0.0,0.0,0.0,7.5039,7.5625,0.0,0.0,0.0,0.0,0.0,0.0,0.0,0.0,7.4023,0.0,0.0,0.0,0.0,0.0,0.0,0.0,0.0,0.0,0.0,0.0,0.0,0.0,0.0,0.0,0.0,0.0,0.0,0.0,0.0,0.0,0.0,0.0,0.0,0.0,0.0,0.0,0.0,0.0,0.0,0.0,0.0,0.0,0.0,0.0,0.0,0.0,0.0,0.0,0.0,0.0,0.0,0.0,0.0,0.0,0.0,0.0,0.0,0.0,0.0,0.0,0.0,0.0,0.0,0.0,8.3554,8.7422,9.0195,9.1914,9.2812,9.2461,9.0664,8.6523,8.2812,0.0,0.0,0.0,0.0,0.0,0.0,0.0,0.0,0.0,0.0,0.0,0.0,0.0,0.0,0.0,0.0,0.0,0.0,0.0,0.0,0.0,0.0,0.0,0.0,0.0,0.0,0.0,0.0,0.0,0.0,0.0,0.0,0.0,0.0,0.0,0.0,0.0,0.0,0.0,0.0,7.6406,7.7265,7.7265,0.0,0.0,0.0,0.0,0.0,0.0,7.625,7.582,0.0,0.0,0.0,0.0,0.0,0.0,0.0,0.0,0.0,0.0,0.0,0.0,0.0,0.0,0.0,0.0,0.0,0.0,0.0,0.0,0.0,0.0,0.0,0.0,0.0,0.0,0.0,0.0,0.0,0.0,0.0,0.0,0.0,0.0,0.0,0.0,0.0,0.0,0.0,0.0,0.0,0.0,0.0,0.0,0.0,0.0,0.0,0.0,0.0,0.0,0.0,0.0,0.0,0.0,0.0,8.4101,8.8164,9.1211,9.3047,9.3828,9.3242,9.1289,8.7148,8.3242,0.0,0.0,0.0,0.0,0.0,0.0,0.0,0.0,0.0,0.0,0.0,0.0,0.0,0.0,0.0,0.0,0.0,0.0,0.0,0.0,0.0,0.0,0.0,0.0,0.0,0.0,0.0,0.0,0.0,0.0,0.0,0.0,0.0,0.0,0.0,0.0,0.0,0.0,0.0,0.0,0.0,7.8711,7.875,7.8281,0.0,0.0,0.0,0.0,7.8633,7.8164,0.0,0.0,0.0,0.0,0.0,0.0,0.0,0.0,0.0,0.0,0.0,0.0,0.0,0.0,0.0,0.0,0.0,0.0,0.0,0.0,0.0,0.0,0.0,0.0,0.0,0.0,0.0,0.0,0.0,0.0,0.0,0.0,0.0,0.0,0.0,0.0,0.0,0.0,0.0,0.0,0.0,0.0,0.0,0.0,0.0,0.0,0.0,0.0,0.0,0.0,0.0,0.0,0.0,0.0,0.0,0.0,8.582,8.9336,9.2344,9.4726,9.5,9.3828,9.1328,8.7148,8.3242,0.0,0.0,0.0,0.0,0.0,0.0,0.0,0.0,0.0,0.0,0.0,0.0,0.0,0.0,0.0,0.0,0.0,0.0,0.0,0.0,0.0,0.0,0.0,0.0,0.0,0.0,0.0,0.0,0.0,0.0,0.0,0.0,0.0,0.0,0.0,0.0,0.0,0.0,0.0,0.0,0.0,7.957,7.957,8.0156,8.0312,0.0,0.0,7.9414,7.9531,7.9492,0.0,0.0,0.0,0.0,0.0,0.0,0.0,0.0,0.0,0.0,0.0,0.0,0.0,0.0,0.0,0.0,0.0,0.0,0.0,0.0,0.0,0.0,0.0,0.0,0.0,0.0,0.0,0.0,0.0,0.0,0.0,0.0,0.0,0.0,0.0,0.0,0.0,0.0,0.0,0.0,0.0,0.0,0.0,0.0,0.0,0.0,0.0,0.0,0.0,0.0,0.0,0.0,0.0,0.0,0.0,8.2226,8.6875,9.0781,9.3789,9.582,9.5469,9.4179,9.2109,8.789,8.3789,0.0,0.0,0.0,0.0,0.0,0.0,0.0,0.0,0.0,0.0,0.0,0.0,0.0,0.0,0.0,0.0,0.0,0.0,0.0,0.0,0.0,0.0,0.0,0.0,0.0,0.0,0.0,0.0,0.0,0.0,0.0,0.0,0.0,0.0,0.0,0.0,0.0,0.0,0.0,0.0,0.0,0.0,8.1797,8.2226,0.0,0.0,0.0,8.2109,8.2578,0.0,0.0,0.0,0.0,0.0,0.0,0.0,0.0,0.0,0.0,0.0,0.0,0.0,0.0,0.0,0.0,0.0,0.0,0.0,0.0,0.0,0.0,0.0,0.0,0.0,0.0,0.0,0.0,0.0,0.0,0.0,0.0,0.0,0.0,0.0,0.0,0.0,0.0,0.0,0.0,0.0,0.0,0.0,0.0,0.0,0.0,0.0,0.0,0.0,0.0,0.0,0.0,0.0,0.0,0.0,0.0,0.0,8.7773,9.1836,9.4844,9.6679,9.5937,9.4687,9.2929,8.8789,0.0,0.0,0.0,0.0,0.0,0.0,0.0,0.0,0.0,0.0,0.0,0.0,0.0,0.0,0.0,0.0,0.0,0.0,0.0,0.0,0.0,0.0,0.0,0.0,0.0,0.0,0.0,6.5273,0.0,0.0,0.0,0.0,0.0,0.0,0.0,0.0,0.0,0.0,0.0,0.0,0.0,0.0,8.2304,8.4023,8.4453,8.4804,0.0,0.0,8.4726,8.5156,8.414,8.3047,0.0,0.0,0.0,0.0,0.0,0.0,0.0,0.0,0.0,0.0,0.0,0.0,0.0,0.0,0.0,0.0,0.0,0.0,0.0,0.0,0.0,0.0,0.0,0.0,0.0,0.0,0.0,0.0,0.0,0.0,0.0,0.0,0.0,0.0,0.0,0.0,0.0,0.0,0.0,0.0,0.0,0.0,0.0,0.0,0.0,0.0,0.0,0.0,0.0,0.0,0.0,0.0,0.0,0.0,8.3554,8.8554,9.2109,9.5117,9.7461,9.6836,9.5586,9.3789,8.9648,8.5742,0.0,0.0,0.0,0.0,0.0,0.0,0.0,0.0,0.0,0.0,0.0,0.0,0.0,0.0,0.0,0.0,0.0,0.0,0.0,0.0,0.0,0.0,0.0,0.0,0.0,0.0,0.0,0.0,0.0,0.0,0.0,0.0,0.0,0.0,0.0,0.0,0.0,0.0,0.0,0.0,0.0,8.4062,8.5781,8.6719,8.7265,0.0,8.7265,8.6992,8.625,8.6015,8.5117,8.2695,0.0,0.0,0.0,0.0,0.0,0.0,0.0,0.0,0.0,0.0,0.0,0.0,0.0,0.0,0.0,0.0,0.0,0.0,0.0,0.0,0.0,0.0,0.0,0.0,0.0,7.1562,0.0,0.0,0.0,0.0,0.0,0.0,0.0,0.0,0.0,0.0,0.0,0.0,0.0,0.0,0.0,0.0,0.0,0.0,0.0,0.0,0.0,0.0,0.0,0.0,0.0,0.0,0.0,8.5117,9.0234,9.3203,9.5703,9.7578,9.6914,9.5664,9.3945,9.0742,8.6914,0.0,0.0,0.0,0.0,0.0,0.0,0.0,0.0,0.0,0.0,0.0,0.0,0.0,0.0,0.0,0.0,0.0,0.0,0.0,0.0,0.0,0.0,0.0,0.0,0.0,0.0,0.0,0.0,6.9726,7.0664,7.1719,0.0,0.0,0.0,0.0,0.0,0.0,0.0,0.0,0.0,0.0,8.6015,8.8242,8.9297,0.0,0.0,9.0195,8.9726,8.9414,8.8008,8.6679,8.5664,8.4179,0.0,0.0,0.0,0.0,0.0,0.0,0.0,0.0,0.0,0.0,0.0,0.0,0.0,0.0,0.0,0.0,0.0,0.0,0.0,0.0,0.0,0.0,0.0,0.0,0.0,0.0,7.3047,7.3125,0.0,0.0,0.0,0.0,0.0,0.0,0.0,0.0,0.0,0.0,0.0,0.0,0.0,0.0,0.0,0.0,0.0,0.0,0.0,0.0,0.0,0.0,0.0,0.0,8.664,9.125,9.4375,9.6523,9.7695,9.7383,9.6406,9.4687,9.2148,8.8711,0.0,0.0,0.0,0.0,0.0,0.0,0.0,0.0,0.0,0.0,0.0,0.0,0.0,0.0,0.0,0.0,0.0,0.0,0.0,0.0,0.0,0.0,0.0,0.0,0.0,0.0,0.0,0.0,7.1523,7.2539,7.4297,0.0,0.0,0.0,0.0,0.0,0.0,0.0,0.0,0.0,0.0,8.8554,9.0859,9.1914,9.2695,9.3281,9.2851,9.2383,9.2109,9.0351,8.8828,8.8359,0.0,0.0,0.0,0.0,0.0,0.0,0.0,0.0,0.0,0.0,0.0,0.0,0.0,0.0,0.0,0.0,0.0,0.0,0.0,0.0,0.0,0.0,0.0,0.0,0.0,0.0,7.8359,7.8242,0.0,7.582,7.5625,0.0,0.0,0.0,0.0,0.0,0.0,0.0,0.0,0.0,0.0,0.0,0.0,0.0,0.0,0.0,0.0,0.0,0.0,0.0,0.0,0.0,0.0,8.7851,9.1328,9.5508,9.7656,9.7773,9.8515,9.8125,9.6445,9.3906,9.1289,8.8476,0.0,0.0,0.0,0.0,0.0,0.0,0.0,0.0,0.0,0.0,0.0,0.0,0.0,0.0,0.0,0.0,0.0,0.0,0.0,0.0,0.0,0.0,0.0,0.0,0.0,0.0,7.4414,7.4492,7.5195,0.0,0.0,0.0,0.0,0.0,0.0,0.0,0.0,0.0,8.7109,8.9609,9.1797,9.3554,9.457,9.5117,9.5195,9.5156,9.4844,9.4023,9.3086,9.1914,0.0,0.0,0.0,0.0,0.0,0.0,0.0,0.0,0.0,0.0,0.0,0.0,0.0,0.0,0.0,0.0,0.0,0.0,0.0,0.0,0.0,0.0,0.0,0.0,0.0,0.0,0.0,8.2109,8.1015,0.0,0.0,0.0,0.0,0.0,0.0,0.0,0.0,0.0,0.0,0.0,9.3437,9.289,0.0,0.0,0.0,0.0,0.0,0.0,0.0,0.0,0.0,0.0,0.0,0.0,8.9297,9.3789,9.6406,9.8281,9.9375,9.9726,9.9062,9.7344,9.5937,9.2617,8.7187,0.0,0.0,0.0,0.0,0.0,0.0,0.0,0.0,0.0,0.0,0.0,0.0,0.0,0.0,0.0,0.0,0.0,0.0,0.0,0.0,0.0,0.0,0.0,0.0,0.0,7.4844,0.0,0.0,0.0,0.0,0.0,0.0,0.0,0.0,0.0,0.0,8.6094,8.8398,8.9844,9.1758,9.3867,9.6133,9.6679,9.7265,0.0,0.0,0.0,0.0,0.0,0.0,0.0,0.0,0.0,0.0,0.0,0.0,0.0,8.9687,8.7812,8.5,8.4023,8.3437,8.2851,0.0,0.0,0.0,0.0,0.0,0.0,0.0,0.0,0.0,0.0,0.0,0.0,0.0,0.0,8.7226,8.5859,8.4922,8.3437,0.0,0.0,0.0,0.0,0.0,0.0,0.0,9.5039,9.6953,9.914,9.8906,9.8633,9.8281,9.7422,9.3945,0.0,0.0,0.0,0.0,0.0,0.0,0.0,0.0,9.1679,9.5547,9.789,9.9453,10.0273,10.0586,10.0078,9.8633,9.7226,9.3828,8.8164,8.5195,8.2109,0.0,0.0,0.0,0.0,0.0,0.0,0.0,0.0,0.0,0.0,0.0,0.0,0.0,0.0,0.0,0.0,0.0,0.0,0.0,0.0,0.0,0.0,0.0,7.6406,0.0,0.0,0.0,0.0,0.0,0.0,0.0,0.0,0.0,8.6797,8.9414,9.1797,9.2929,9.457,9.6406,9.832,0.0,0.0,0.0,0.0,0.0,0.0,0.0,9.6328,9.5742,9.4961,9.4375,9.4375,9.4375,9.4375,9.4375,0.0,0.0,8.914,8.8437,8.8242,8.7695,8.7578,8.75,8.7187,8.7109,8.7031,0.0,0.0,0.0,0.0,9.4062,0.0,0.0,0.0,9.4414,9.3554,0.0,9.0117,0.0,0.0,0.0,0.0,8.9023,9.1601,0.0,0.0,10.0429,10.2656,10.4375,10.5195,10.5195,10.4414,10.3554,10.1719,9.8867,9.2461,8.7812,0.0,0.0,0.0,0.0,0.0,9.4844,9.6758,9.9922,10.125,10.0547,10.1289,10.125,10.0234,9.7851,9.4922,9.1562,8.9687,8.7226,8.3867,8.207,0.0,0.0,0.0,0.0,0.0,0.0,0.0,0.0,0.0,0.0,0.0,0.0,0.0,0.0,0.0,0.0,0.0,0.0,0.0,0.0,7.8164,0.0,0.0,0.0,0.0,0.0,0.0,0.0,0.0,0.0,9.2187,9.0664,9.2539,9.4687,9.6367,0.0,0.0,0.0,0.0,10.0469,10.0508,10.0469,10.0508,10.0429,9.9726,9.914,9.9101,0.0,0.0,9.7773,9.7773,9.7734,9.7773,9.7695,9.6719,9.3476,9.2773,9.2695,9.2617,9.2539,9.2383,9.1601,9.125,9.1054,10.6406,0.0,0.0,0.0,0.0,9.8476,9.8594,9.8828,9.8554,9.7969,9.707,9.5742,0.0,0.0,0.0,0.0,0.0,0.0,9.8711,10.1484,10.3476,10.5937,10.8789,10.9023,10.9336,10.9648,10.8828,10.7031,10.4414,10.1328,9.6601,9.0469,0.0,0.0,0.0,0.0,9.6562,10.0,10.1719,10.2734,10.3086,10.332,10.2461,10.0351,9.8398,9.6328,9.414,9.2422,9.0156,8.7383,8.5625,0.0,0.0,0.0,0.0,0.0,0.0,0.0,0.0,0.0,0.0,0.0,0.0,0.0,0.0,0.0,0.0,0.0,0.0,0.0,7.9844,8.1797,8.3242,0.0,0.0,0.0,0.0,0.0,0.0,0.0,0.0,0.0,9.7344,9.7422,9.7969,0.0,0.0,10.1406,10.289,10.3086,10.332,10.3906,10.4023,0.0,10.3164,10.2851,10.25,10.1875,10.1054,10.0273,9.9648,9.957,9.9531,9.957,9.957,9.9219,9.832,9.707,9.6094,9.5547,9.539,9.5078,9.4297,9.4101,9.4023,11.3867,10.875,10.5898,10.4336,10.3867,10.3867,10.3867,10.3867,10.3867,10.3164,10.1992,10.1172,9.9844,9.8203,9.6953,0.0,0.0,0.0,10.2265,10.4492,10.6914,10.9297,11.1601,11.2304,11.289,11.332,11.2187,11.0625,10.8711,10.6328,10.2695,9.7734,0.0,9.4336,9.5898,9.7109,9.9336,10.25,10.3476,10.4219,10.4687,10.4375,10.2969,10.039,9.9258,9.7773,9.5781,9.4687,9.2929,9.0351,8.8945,8.6484,0.0,0.0,0.0,0.0,0.0,0.0,0.0,0.0,0.0,0.0,0.0,8.1094,8.2422,0.0,0.0,0.0,8.1758,8.1719,8.2929,8.4804,0.0,0.0,0.0,0.0,0.0,0.0,0.0,9.6758,9.9375,10.1406,10.2265,10.2461,10.2422,10.1914,10.2578,10.3515,10.457,0.0,10.4922,10.5429,10.5508,10.5312,10.4804,10.4726,10.4531,10.4023,10.3515,10.3008,10.25,10.2344,10.2344,10.2383,10.2383,10.2344,10.2344,10.1211,9.9765,9.832,9.7734,9.7304,9.6797,9.6445,9.6211,12.0273,11.8242,11.2656,11.0117,10.9726,10.9648,10.9609,10.9609,10.9609,10.8672,10.707,10.625,10.4922,10.3203,10.1601,0.0,10.2187,10.3867,10.5508,10.7226,11.0508,11.2539,11.3554,11.5078,11.5859,11.5859,11.4258,11.3047,11.207,10.8867,10.6758,10.582,10.1836,9.9687,9.9531,10.1054,10.2773,10.4492,10.5273,10.5664,10.5586,10.4687,10.3008,10.0625,10.039,9.9179,9.6836,9.664,9.5469,9.3047,9.2031,8.9648,8.5703,0.0,0.0,0.0,0.0,0.0,0.0,0.0,0.0,0.0,0.0,0.0,0.0,0.0,0.0,8.5429,8.4726,0.0,8.6679,8.7734,0.0,0.0,0.0,9.457,9.7773,9.8242,9.9258,10.1719,0.0,0.0,10.5703,10.7187,10.7344,10.5,10.5312,10.582,10.5898,10.5976,10.5898,10.6093,10.5976,10.5976,10.6172,10.6093,10.6015,10.5742,10.5703,10.5586,10.5312,10.5312,10.5429,10.5273,10.5469,10.539,10.5469,10.457,10.3554,10.1054,9.9844,9.9179,9.8984,9.8398,9.7929,12.3789,12.2109,12.0,11.6875,11.3242,11.2539,11.2265,11.2265,11.2265,11.164,11.0586,10.9765,10.8437,10.6758,10.6367,10.6289,10.6523,10.7578,10.9023,11.0703,11.2187,11.4023,11.6093,11.6523,11.7031,11.7578,11.6601,11.5625,11.4726,11.2656,11.0898,10.9375,10.7695,10.5547,10.3086,10.4023,10.539,10.707,10.7304,10.707,10.6406,10.4961,10.3594,10.2304,10.0976,9.9687,9.8437,9.7773,9.6836,9.5625,9.4101,9.2226,8.9883,8.7109,0.0,0.0,0.0,0.0,0.0,0.0,0.0,0.0,0.0,8.7187,8.8672,0.0,8.9765,0.0,9.0195,9.0898,9.1992,9.4023,0.0,0.0,9.8281,10.0039,10.1523,10.2851,10.414,10.5351,10.6992,10.8164,10.8359,10.9336,10.9765,10.914,10.8672,10.8633,10.9258,10.9414,10.9375,10.9297,10.9258,10.9375,10.9258,10.9375,10.8867,10.7617,10.7422,10.6992,10.5742,10.5508,10.5508,10.5508,10.5508,10.5508,10.5547,10.5312,10.4765,10.3476,10.2031,10.0781,10.0156,9.9804,9.9687,12.6367,12.5039,12.3437,12.1133,11.8398,11.6758,11.5625,11.4922,11.4883,11.4375,11.3515,11.2304,11.1211,11.0273,10.9492,10.914,10.9258,11.0468,11.1562,11.2578,11.414,11.5664,11.6992,11.7383,11.7812,11.8242,11.7422,11.6758,11.6211,11.4609,11.3086,11.1758,11.0898,10.9336,10.7148,10.7148,10.7851,10.914,10.914,10.8554,10.7304,10.6367,10.4922,10.2969,10.1992,10.0703,9.9062,9.8554,9.7734,9.6562,9.5586,9.4101,9.1992,8.9726,8.789,0.0,0.0,0.0,0.0,0.0,0.0,0.0,0.0,0.0,0.0,0.0,9.414,9.414,9.5273,9.6367,9.7265,9.9297,10.0898,10.164,10.3008,10.4375,10.5586,10.6601,10.7656,10.8867,11.0234,11.1172,11.1562,11.2343,11.2773,11.2383,11.1914,11.1367,11.0703,11.0586,11.0586,11.0586,11.0586,11.0586,11.0586,11.0586,11.0273,10.9414,10.914,10.8828,10.7929,10.7422,10.7187,10.7187,10.6875,10.6601,10.6601,10.625,10.5859,10.5312,10.4258,10.2812,10.1211,10.0547,10.0312,12.8359,12.7265,12.4961,12.3828,12.3359,12.1054,11.9062,11.7304,11.7226,11.6679,11.5781,11.4218,11.3515,11.3437,11.1953,11.1289,11.1328,11.2812,11.3593,11.3828,11.5976,11.707,11.7187,11.7968,11.8281,11.8242,11.7539,11.7148,11.7109,11.5586,11.4453,11.3672,11.2812,11.1953,11.1093,11.0429,11.039,11.0898,11.0937,11.0156,10.8554,10.8281,10.6679,10.3711,10.3125,10.1836,9.9648,9.9297,9.8515,9.707,9.6875,9.5781,9.3554,9.25,9.1289,0.0,8.9609,0.0,0.0,0.0,0.0,0.0,0.0,0.0,0.0,9.7656,9.875,9.8828,10.0312,10.164,10.25,10.414,10.5781,10.7187,10.7461,10.8164,10.9726,10.9961,11.0586,11.2226,11.3086,11.3828,11.4453,11.5312,11.5468,11.4726,11.4492,11.3711,11.1836,11.1211,11.1054,11.0937,11.0937,11.1133,11.1093,11.1015,11.0976,11.082,11.0703,11.0703,11.0468,10.9843,10.9414,10.9336,10.8672,10.8125,10.8164,10.7461,10.6836,10.6601,10.5976,10.4804,10.2773,10.1601,10.0859,12.9765,12.8281,12.707,12.539,12.3476,12.2968,12.1367,11.9062,11.8359,11.7578,11.6679,11.5664,11.5273,11.5273,11.4961,11.4804,11.4765,11.5078,11.5625,11.6289,11.6797,11.7383,11.8047,11.8203,11.8281,11.8281,11.8125,11.8047,11.8047,11.7031,11.6445,11.625,11.5468,11.4648,11.3828,0.0,0.0,0.0,11.2695,11.2226,11.1172,10.9765,10.8437,10.7031,10.4336,0.0,10.2148,10.082,9.9922,9.9609,9.8906,0.0,0.0,0.0,0.0,0.0,0.0,0.0,0.0,0.0,0.0,0.0,10.1289,10.1523,10.0547,10.2617,10.4297,10.4922,10.5937,10.6914,10.7773,10.9414,11.0586,11.0898,11.1523,11.2383,11.3398,11.3476,11.3906,11.4843,11.5195,11.5351,11.5508,11.5625,11.5703,11.5586,11.5547,11.5351,11.4765,11.3476,11.2734,11.2695,11.2695,11.2695,11.2695,11.2695,11.2461,11.1875,11.164,11.1406,11.082,11.0547,11.0351,11.0351,10.9648,10.9062,10.9062,10.8359,10.7617,10.6836,10.6601,10.6133,10.5,10.4062,10.3437,13.0429,12.914,12.7851,12.6523,0.0,12.4492,12.3125,12.1406,11.9687,11.8437,11.7578,11.6718,11.6367,11.6367,11.5937,11.5742,11.5781,11.6133,11.6562,11.6992,11.7461,11.7851,11.8281,11.8281,11.8281,11.8281,11.8281,11.8281,11.8281,11.7851,11.7422,11.6992,11.6601,11.5937,11.5156,11.5508,11.5273,11.4453,11.4453,11.3828,11.2578,11.1679,11.0195,10.8047,10.6328,0.0,0.0,0.0,0.0,0.0,0.0,0.0,0.0,9.9726,0.0,9.8984,9.8594,9.8906,10.0156,10.1054,10.2304,10.4023,10.6523,10.7461,10.6133,10.7265,10.8554,10.9804,11.0703,11.1406,11.1836,11.3008,11.3789,11.3789,11.4179,11.4648,11.5039,11.5117,11.5468,11.6172,11.6367,11.6523,11.6953,11.6992,11.6797,11.6484,11.6406,11.6211,11.5742,11.5,11.4453,11.4414,11.4453,11.4414,11.4453,11.4453,11.4179,11.3437,11.3203,11.2812,11.2031,11.1523,11.1211,11.1172,11.0547,10.9961,10.9922,10.957,10.914,10.875,10.8633,10.8359,10.75,10.6054,10.4844,13.0781,12.9961,12.8242,12.7422,12.7187,12.582,12.457,12.332,12.0742,0.0,0.0,11.7617,11.7226,11.7187,11.6484,11.6211,11.6289,11.6914,11.7226,11.7265,11.7968,11.8281,11.8281,11.8281,11.8281,11.8281,11.8281,11.8281,11.8281,11.8281,11.7929,11.7265,11.7226,11.6875,11.6211,11.6015,11.6015,11.6133,11.6015,11.5234,11.3906,11.3593,11.1992,10.8984,10.8476,10.7226,10.5195,10.4961,10.4531,10.3828,10.3789,10.3789,10.3789,10.3125,10.2734,10.2734,10.2734,10.3164,10.4179,10.5586,10.6875,10.8008,11.0703,11.1992,11.1133,11.1328,11.2109,11.3515,11.4453,11.4922,11.4922,11.5664,11.6133,11.6133,11.6211,11.6211,11.6172,11.6211,11.6523,11.7109,11.7226,11.7461,11.8125,11.8203,11.8047,11.7422,11.7226,11.6992,11.6328,11.5898,11.5547,11.5547,11.5468,11.5625,11.5664,11.5664,11.5508,11.4765,11.4648,11.4414,11.3593,11.2812,11.2343,11.2148,11.1406,11.0937,11.082,11.0625,11.0625,11.0586,11.0586,11.039,10.957,10.789,10.6406,13.1133,13.0898,12.914,12.7968,12.7304,12.7031,12.5625,12.332,12.0742,11.9531,11.9336,11.8476,11.8125,11.8125,11.7968,11.7929,11.7968,11.8047,11.8125,11.8125,11.8242,11.8281,11.8281,11.8281,11.8281,11.8281,11.8281,11.8281,11.8281,11.8281,11.8242,11.8125,11.8125,11.8047,11.789,11.7187,11.7187,11.789,11.7187,11.6718,11.6445,11.5078,11.3711,11.2461,11.0273,10.8984,10.8593,10.7851,10.7383,10.7265,10.7304,10.7265,10.7265,10.7109,10.7109,10.7109,10.7109,10.7812,10.9375,10.9765,11.0937,11.3125,11.3867,11.3789,11.2968,11.4179,11.5117,11.5468,11.6172,11.664,11.6718,11.7383,11.7812,11.789,11.789,11.7929,11.7812,11.7851,11.789,11.8008,11.8125,11.8086,11.8242,11.8281,11.8242,11.8125,11.7968,11.8008,11.7656,11.6679,11.5859,11.5703,11.5703,11.5703,11.5937,11.5742,11.5742,11.5547,11.5547,11.5273,11.4453,11.414,11.3789,11.3164,11.2422,11.1914,11.1797,11.1093,11.0976,11.0937,11.0937,11.0742,11.0508,10.9883,10.9023,13.1538,13.0952,12.9703,12.8726,12.7906,12.7437,12.6309,12.4635,12.2565,12.0854,11.9609,11.9179,11.875,11.832,11.8281,11.8281,11.8281,11.8281,11.8281,11.8281,11.8281,11.8281,11.8281,11.8281,11.8281,11.8281,11.8281,11.8281,11.8281,11.8281,11.8281,11.8281,11.8281,11.8281,11.8242,11.789,11.789,11.8281,11.789,11.7461,11.6992,11.582,11.4765,11.3945,11.2265,11.1406,11.1406,11.0586,11.0117,11.0117,10.9687,10.9414,10.9414,10.9414,10.9609,11.0078,11.0117,11.0859,11.2617,11.3125,11.3867,11.5078,11.5586,11.5703,11.5312,11.5937,11.6601,11.7109,11.75,11.7695,11.7695,11.8086,11.8281,11.8281,11.8281,11.8281,11.8281,11.8281,11.8281,11.8281,11.8281,11.8281,11.8281,11.8281,11.8281,11.8281,11.8281,11.8281,11.8281,11.7656,11.7148,11.7109,11.7109,11.7148,11.7148,11.7148,11.6914,11.6523,11.6406,11.6054,11.539,11.5195,11.4843,11.414,11.3867,11.3789,11.3437,11.3398,11.3164,11.2734,11.2695,11.2461,11.164,11.0976,10.9843,13.189,13.1188,13.0095,12.9197,12.838,12.7519,12.6673,12.5716,12.4276,12.2311,12.0267,11.9764,11.9218,11.8593,11.8398,11.8281,11.8281,11.8281,11.8281,11.832,11.8515,11.8593,11.8633,11.8789,11.8789,11.8633,11.8593,11.8476,11.832,11.8281,11.8281,11.8281,11.8281,11.8281,11.8281,11.8281,11.8281,11.8281,11.8281,11.7968,11.7304,11.6484,11.5742,11.5078,11.4218,11.3789,11.375,11.3125,11.2773,11.2734,11.2109,11.1797,11.1758,11.1758,11.207,11.2695,11.2773,11.3476,11.4922,11.582,11.6289,11.6289,11.6914,11.7304,11.7304,11.7304,11.7578,11.8164,11.8242,11.8242,11.8242,11.8281,11.8281,11.8281,11.8281,11.8281,11.8281,11.8281,11.8281,11.8281,11.8281,11.8281,11.8281,11.8281,11.8281,11.8281,11.8281,11.8281,11.8281,11.8281,11.8281,11.8281,11.8281,11.8203,11.8281,11.8242,11.7929,11.7343,11.7304,11.6914,11.6328,11.6054,11.5703,11.5039,11.5195,11.5234,11.4922,11.5156,11.5234,11.4726,11.4375,11.3867,11.25,11.1523,11.0351,13.2088,13.174,13.0208,12.9049,12.8226,12.7407,12.6548,12.5662,12.4755,12.3406,12.1591,12.0215,11.9607,11.9375,11.8672,11.8398,11.8398,11.8281,11.8359,11.8476,11.9101,11.9492,11.9531,12.0273,12.0234,11.957,11.9453,11.9062,11.8398,11.832,11.8281,11.8281,11.8281,11.8281,11.8281,11.8281,11.8281,11.8281,11.8281,11.8281,11.8164,11.7343,11.6836,11.6758,11.5976,11.5547,11.5468,11.539,11.5351,11.5351,11.5234,11.5273,11.5234,11.5234,11.5273,11.5351,11.539,11.5859,11.6718,11.7578,11.7968,11.8047,11.8047,11.8125,11.8125,11.8164,11.8203,11.8281,11.8281,11.8281,11.8281,11.8281,11.8281,11.8281,11.8281,11.8281,11.8281,11.8281,11.8281,11.8281,11.8281,11.8281,11.8281,11.8281,11.8281,11.8281,11.8281,11.8281,11.8281,11.8281,11.8281,11.8281,11.8281,11.8281,11.8281,11.8281,11.8203,11.8125,11.8164,11.7734,11.7148,11.6875,11.6601,11.5859,11.5781,11.5859,11.5703,11.5703,11.5859,11.5625,11.5078,11.4218,11.3242,11.2383,11.1172,13.2112,13.1521,13.0316,12.9039,12.7834,12.7438,12.6556,12.5382,12.5054,12.4004,12.2517,12.1334,12.062,12.0246,11.9894,11.9738,11.9738,11.9738,11.9699,11.9738,12.0129,12.0246,12.0286,12.0645,12.061,12.0299,11.9839,11.9412,11.9061,11.8554,11.8281,11.8281,11.8281,11.8281,11.8281,11.8281,11.8281,11.8281,11.8281,11.8281,11.8203,11.7422,11.7265,11.7617,11.6953,11.6758,11.7148,11.6758,11.6445,11.6445,11.6015,11.5742,11.5781,11.5781,11.5976,11.6484,11.6992,11.7422,11.7734,11.8086,11.8281,11.8281,11.8281,11.8281,11.8281,11.8281,11.8281,11.8281,11.8281,11.8281,11.8281,11.8281,11.8281,11.8281,11.8281,11.8281,11.8281,11.8281,11.8281,11.8281,11.8281,11.8281,11.8281,11.8281,11.8281,11.8281,11.8281,11.8281,11.8281,11.8281,11.8281,11.8281,11.8281,11.8281,11.8281,11.8281,11.8281,11.8281,11.8281,11.8047,11.789,11.7773,11.75,11.6601,11.6836,11.6875,11.6562,11.6953,11.7187,11.6523,11.5273,11.4218,11.3398,11.2929,11.2148,13.2206,13.1461,13.0424,12.9106,12.7789,12.7556,12.6657,12.5453,12.5174,12.4499,12.3467,12.2596,12.1953,12.146,12.096,12.0683,12.068,12.0683,12.0644,12.0722,12.0878,12.0995,12.1037,12.1327,12.1302,12.1039,12.0552,12.0021,11.9558,11.8666,11.8279,11.8281,11.8281,11.8281,11.8281,11.8281,11.8281,11.8281,11.8281,11.8281,11.8203,11.7695,11.7656,11.8164,11.7695,11.7656,11.8242,11.7695,11.7343,11.7343,11.6758,11.6445,11.6484,11.6484,11.6758,11.7304,11.7929,11.8281,11.8281,11.8281,11.8281,11.8281,11.8281,11.8281,11.8281,11.8281,11.8281,11.8281,11.8281,11.8281,11.8281,11.8281,11.8281,11.8281,11.8281,11.8281,11.8281,11.8281,11.8281,11.8281,11.8281,11.8281,11.8281,11.8281,11.8281,11.8281,11.8281,11.8281,11.8281,11.8281,11.8281,11.8281,11.8281,11.8281,11.8281,11.8281,11.8281,11.8281,11.8281,11.8281,11.8281,11.8281,11.8242,11.75,11.8047,11.8086,11.7539,11.789,11.7773,11.6797,11.5625,11.4414,11.3437,11.3242,11.2968,13.2381,13.2071,13.0495,12.9276,12.8386,12.7613,12.6771,12.5823,12.5172,12.477,12.4551,12.3844,12.3497,12.3265,12.1569,12.0644,12.0644,12.0711,12.0707,12.0785,12.1417,12.174,12.1825,12.2569,12.2544,12.1855,12.1642,12.0893,11.9566,11.8712,11.8259,11.8354,11.8433,11.8357,11.8437,11.8476,11.832,11.8398,11.8398,11.832,11.8281,11.8242,11.8203,11.8281,11.8242,11.8203,11.8281,11.8242,11.8203,11.8242,11.8125,11.8086,11.8125,11.8125,11.8125,11.8203,11.8242,11.8281,11.8281,11.8281,11.8281,11.8281,11.8281,11.8281,11.8281,11.8281,11.8281,11.8281,11.8281,11.8281,11.8281,11.8281,11.8281,11.8281,11.8281,11.8281,11.8281,11.8281,11.8281,11.8281,11.8281,11.8281,11.8281,11.8281,11.8359,11.8359,11.8359,11.8398,11.8554,11.8476,11.8476,11.8437,11.8398,11.832,11.8281,11.8281,11.8281,11.8281,11.8281,11.8281,11.8281,11.8281,11.8242,11.8203,11.8242,11.8281,11.8242,11.7929,11.7383,11.664,11.6015,11.4922,11.3515,11.3281,11.3047,13.1652,13.1073,12.9917,12.8915,12.8055,12.7257,12.6492,12.5748,12.5444,12.5074,12.4644,12.4354,12.4247,12.4252,12.3016,12.221,12.1793,12.1761,12.1761,12.18,12.2033,12.2189,12.224,12.2626,12.2679,12.2329,12.1942,12.1222,12.0309,11.9863,11.9773,11.984,11.9893,11.9908,11.9957,11.9959,11.9725,11.9218,11.914,11.8867,11.8398,11.8281,11.8281,11.8281,11.8281,11.8281,11.8281,11.8281,11.8281,11.8281,11.8281,11.8281,11.8281,11.8281,11.8281,11.8281,11.8281,11.8281,11.8281,11.8281,11.8281,11.8281,11.8281,11.8281,11.8281,11.8281,11.8281,11.8281,11.8281,11.8281,11.8281,11.8281,11.8281,11.8281,11.8281,11.8281,11.8281,11.8281,11.8281,11.8281,11.8281,11.8281,11.8281,11.8281,11.8515,11.9023,11.914,11.9336,11.9843,11.9922,11.9687,11.9258,11.9101,11.8945,11.832,11.8281,11.8281,11.8281,11.8281,11.8281,11.8281,11.8281,11.8242,11.8242,11.8281,11.8281,11.8281,11.8203,11.7539,11.6484,11.5859,11.5234,11.3515,11.3476,11.332,13.1372,13.0794,12.9987,12.9102,12.8243,12.7448,12.665,12.5963,12.5655,12.5439,12.5214,12.5004,12.4738,12.4454,12.3962,12.3106,12.2225,12.2256,12.2356,12.2356,12.2317,12.2317,12.2334,12.2433,12.2504,12.2363,12.1819,12.1233,12.0823,12.0553,12.0458,12.0567,12.068,12.0762,12.0836,12.0847,12.0541,12.0077,12.0039,11.9726,11.9179,11.8867,11.8711,11.8672,11.8476,11.8281,11.8281,11.8281,11.8281,11.8281,11.8281,11.8281,11.8281,11.8281,11.8281,11.8281,11.8281,11.8281,11.8281,11.8281,11.8281,11.8281,11.8281,11.8281,11.8281,11.8281,11.8281,11.8281,11.8281,11.8281,11.8281,11.8281,11.8281,11.8281,11.8281,11.8281,11.8281,11.8281,11.8281,11.8281,11.8281,11.8281,11.8359,11.8593,11.8984,11.9531,11.9804,12.0273,12.0742,12.0898,12.0742,12.0156,12.0039,11.9609,11.9101,11.8906,11.8554,11.8476,11.8281,11.8281,11.8281,11.8281,11.8281,11.8281,11.8281,11.8281,11.8281,11.8281,11.7539,11.6406,11.6133,11.582,11.4648,11.3711,11.3633,13.1679,13.1525,13.0833,12.9948,12.9102,12.8179,12.7409,12.6664,12.5844,12.5907,12.6289,12.5714,12.4942,12.429,12.3991,12.3148,12.2195,12.2206,12.2314,12.2314,12.2362,12.2362,12.2401,12.2459,12.2533,12.2545,12.1662,12.1333,12.1408,12.0807,12.0534,12.0527,12.0717,12.0882,12.0781,12.1015,12.096,12.0892,12.0897,12.0859,12.0781,12.0,11.9609,11.9531,11.8828,11.8398,11.8359,11.832,11.8281,11.8281,11.8281,11.8281,11.8281,11.8281,11.8281,11.8281,11.8281,11.8281,11.8281,11.8281,11.8281,11.8281,11.8281,11.8281,11.8281,11.8281,11.8281,11.8281,11.8281,11.8281,11.8281,11.8281,11.8359,11.832,11.8476,11.8476,11.8476,11.8359,11.8281,11.832,11.8359,11.832,11.8515,11.9101,11.9687,12.0,12.0468,12.1015,12.1289,12.1367,12.1054,12.0859,12.0781,12.0508,12.0039,11.9531,11.9062,11.8633,11.8398,11.8281,11.8281,11.8281,11.8281,11.8281,11.8281,11.8281,11.8281,11.8242,11.7851,11.6992,11.6797,11.6328,11.5312,11.4414,11.414,13.1679,13.1602,13.0833,13.0371,12.991,12.8512,12.7705,12.7448,12.664,12.646,12.6486,12.5794,12.5216,12.4755,12.3832,12.3293,12.3266,12.2916,12.2702,12.2791,12.3253,12.3457,12.3506,12.3572,12.3738,12.3812,12.3629,12.325,12.2786,12.2545,12.2303,12.1986,12.1959,12.2124,12.2318,12.2434,12.2323,12.1809,12.1789,12.1521,12.0974,12.0664,12.0508,12.039,11.9648,11.9218,11.9179,11.8633,11.832,11.8281,11.8281,11.8281,11.8281,11.8281,11.8281,11.8281,11.8281,11.8281,11.8281,11.8281,11.8281,11.8281,11.8281,11.8281,11.8281,11.8281,11.8281,11.8281,11.8281,11.8281,11.8281,11.8281,11.8554,11.914,11.9179,11.9414,11.9765,11.9531,11.8945,11.8476,11.8828,11.914,11.9336,11.9961,12.0664,12.1172,12.1601,12.1914,12.2461,12.2461,12.207,12.125,12.1328,12.1172,12.0351,11.9922,11.9765,11.914,11.875,11.8398,11.8359,11.8281,11.8281,11.8281,11.8281,11.8281,11.8281,11.8164,11.7812,11.7461,11.707,11.6406,11.5586,11.5195,11.5,13.1679,13.1641,13.1141,13.0756,13.041,12.9256,12.8486,12.7897,12.7371,12.6986,12.6601,12.614,12.5524,12.4793,12.3793,12.3485,12.3639,12.3358,12.3524,12.3755,12.3909,12.4101,12.4101,12.4172,12.4287,12.4371,12.4393,12.4226,12.3828,12.3831,12.3647,12.3333,12.3436,12.3593,12.3814,12.3996,12.3704,12.3066,12.3036,12.2631,12.1938,12.1514,12.1363,12.125,12.0547,11.9961,11.9609,11.9062,11.8633,11.8359,11.8281,11.8281,11.8281,11.8281,11.8281,11.8281,11.8281,11.8281,11.8281,11.8281,11.8281,11.8281,11.8281,11.8281,11.8281,11.8281,11.8281,11.8281,11.8281,11.8281,11.832,11.8633,11.914,11.9961,11.9765,12.0039,12.0625,12.0429,11.9961,11.9609,11.9765,12.0039,12.0234,12.0859,12.1562,12.2109,12.25,12.2773,12.3281,12.3125,12.2265,12.1562,12.1406,12.1015,12.039,12.0273,12.039,11.9804,11.914,11.8711,11.8437,11.8359,11.8281,11.8281,11.8281,11.8281,11.8281,11.8281,11.8086,11.7695,11.7383,11.6992,11.6523,11.625,11.5976,13.1679,13.1679,13.1679,13.1256,13.0641,13.041,12.9448,12.8128,12.7859,12.7409,12.6794,12.6447,12.5678,12.4486,12.4101,12.3755,12.3332,12.3909,12.4639,12.4986,12.4832,12.4562,12.4755,12.4805,12.4829,12.4687,12.4649,12.4503,12.4387,12.4409,12.4426,12.4399,12.4527,12.4844,12.4801,12.5241,12.4908,12.4303,12.4321,12.3964,12.3302,12.2571,12.2197,12.2217,12.1439,12.0622,12.0117,11.9648,11.9101,11.8437,11.8281,11.8281,11.8281,11.8281,11.8281,11.8281,11.8281,11.8281,11.8281,11.8281,11.8281,11.8281,11.8281,11.8281,11.8281,11.8437,11.8554,11.8515,11.8633,11.8593,11.8789,11.9218,12.0039,12.0703,12.0586,12.0586,12.0898,12.0976,12.082,12.0781,12.0898,12.0976,12.1015,12.1758,12.2226,12.2461,12.2968,12.332,12.3281,12.3008,12.2343,12.1836,12.1328,12.1093,12.0547,12.0976,12.1093,12.0781,11.9961,11.9218,11.8593,11.8359,11.8281,11.8281,11.8281,11.8281,11.8281,11.8281,11.8281,11.8086,11.7851,11.7773,11.7539,11.7187,11.6953,13.1679,13.1679,13.1679,13.1602,13.1295,13.0794,12.991,12.8833,12.8166,12.7486,12.6717,12.5986,12.5563,12.5024,12.4409,12.4293,12.4639,12.4909,12.5524,12.6229,12.6178,12.6409,12.6794,12.6858,12.6858,12.682,12.6678,12.6306,12.5187,12.5199,12.4935,12.4377,12.4644,12.4701,12.4803,12.5112,12.5043,12.4858,12.4505,12.4321,12.4011,12.3308,12.2967,12.2919,12.22,12.1707,12.1364,12.0273,11.9218,11.8398,11.8281,11.8281,11.8281,11.8281,11.8281,11.8281,11.8281,11.8281,11.832,11.832,11.832,11.8281,11.8398,11.8281,11.832,11.8906,11.9179,11.9375,11.9804,12.0156,12.0195,12.039,12.0976,12.1758,12.2031,12.2109,12.1914,12.1836,12.164,12.1093,12.1523,12.1797,12.2031,12.25,12.3047,12.3125,12.3281,12.3515,12.3359,12.2656,12.1914,12.1406,12.1015,12.0976,12.1015,12.1523,12.1758,12.1679,12.0898,11.9765,11.9023,11.832,11.8281,11.8281,11.8281,11.8281,11.8281,11.8281,11.8281,11.8281,11.8203,11.8047,11.8086,11.789,11.7851,13.1679,13.1679,13.1679,13.1679,13.1641,13.1179,13.0333,12.9256,12.8679,12.7755,12.6767,12.6178,12.5755,12.537,12.487,12.4909,12.537,12.5409,12.587,12.6652,12.7025,12.7409,12.7871,12.8166,12.8436,12.8448,12.8448,12.7678,12.6678,12.6447,12.6022,12.5528,12.5373,12.5456,12.5661,12.5765,12.5714,12.5513,12.5177,12.4956,12.4586,12.3926,12.3652,12.3565,12.2962,12.249,12.2012,12.0854,11.9609,11.8593,11.8281,11.8281,11.8281,11.8281,11.8281,11.8281,11.8281,11.8437,11.8789,11.8867,11.8828,11.8867,11.8828,11.8867,11.8945,11.9336,11.9648,12.0156,12.0625,12.0859,12.0976,12.1211,12.1836,12.2617,12.3203,12.3281,12.2773,12.2734,12.2539,12.2265,12.2422,12.2734,12.2734,12.3203,12.3437,12.3476,12.3437,12.3515,12.3398,12.2422,12.1601,12.1133,12.0468,12.0234,12.0703,12.1289,12.1875,12.1875,12.1523,12.0429,11.9375,11.8515,11.832,11.832,11.832,11.8281,11.8281,11.8281,11.8281,11.8281,11.8281,11.8281,11.8281,11.8281,11.8281,13.1679,13.1679,13.1679,13.1679,13.1679,13.1641,13.0679,12.941,12.914,12.8217,12.696,12.6678,12.6217,12.5524,12.5563,12.5563,12.5601,12.5678,12.6178,12.6948,12.764,12.8205,12.8525,12.9063,12.9333,12.9333,12.9333,12.8679,12.7859,12.7705,12.7371,12.665,12.6579,12.6691,12.6552,12.6833,12.665,12.6181,12.5899,12.561,12.5151,12.4512,12.4246,12.4208,12.3699,12.2846,12.2132,12.1268,12.0306,11.8672,11.8515,11.8437,11.8398,11.8281,11.8398,11.8515,11.8593,11.8906,11.957,11.9726,11.9726,11.9726,11.9726,11.9726,11.9804,12.0,12.039,12.0976,12.1093,12.1406,12.1484,12.1953,12.2578,12.3203,12.3476,12.3515,12.3515,12.3515,12.3515,12.3515,12.3476,12.3476,12.3515,12.3515,12.3515,12.3515,12.3515,12.3515,12.3242,12.2422,12.164,12.1015,12.0273,11.9414,12.0117,12.0976,12.1523,12.1875,12.1679,12.0898,11.9726,11.8945,11.8554,11.8398,11.832,11.8281,11.8281,11.8281,11.8281,11.8281,11.8281,11.8281,11.8281,11.8281,11.8281,13.1679,13.1679,13.1679,13.1679,13.1679,13.1641,13.0756,12.9217,12.9179,12.8256,12.6986,12.6717,12.6563,12.6421,12.6332,12.6409,12.6383,12.6409,12.6871,12.7666,12.8525,12.9333,12.9794,13.0179,13.0217,13.0217,13.0217,12.941,12.832,12.7974,12.7486,12.6844,12.6753,12.6727,12.6763,12.6803,12.6806,12.6553,12.6212,12.5948,12.5678,12.512,12.4747,12.4682,12.4214,12.3301,12.2227,12.1844,12.1283,12.0407,11.9687,11.914,11.8633,11.8437,11.875,11.9179,11.9336,11.9726,12.0429,12.0625,12.0625,12.0625,12.0625,12.0625,12.0664,12.1211,12.1601,12.2031,12.25,12.2734,12.2773,12.3047,12.3242,12.3437,12.3515,12.3515,12.3515,12.3515,12.3515,12.3515,12.3515,12.3515,12.3515,12.3515,12.3515,12.3515,12.3515,12.3515,12.3047,12.2461,12.1758,12.1054,12.0195,11.9492,12.0039,12.0937,12.1758,12.2226,12.2109,12.164,12.0468,11.9765,11.9492,11.8945,11.8281,11.8359,11.8554,11.8281,11.832,11.8281,11.8398,11.8476,11.8515,11.8437,11.8281,13.1679,13.1679,13.1679,13.1679,13.1679,13.1641,13.0756,12.941,12.9179,12.8256,12.6948,12.6717,12.6717,12.6717,12.6717,12.6678,12.6832,12.714,12.7717,12.8563,12.941,13.0256,13.091,13.1064,13.1064,13.1064,13.1064,13.0256,12.9371,12.864,12.814,12.7255,12.6909,12.6729,12.6729,12.6751,12.6748,12.6695,12.6479,12.6261,12.6205,12.5686,12.4833,12.4356,12.3795,12.303,12.2358,12.2404,12.2033,12.1382,12.0848,12.0337,11.9685,11.9492,11.9765,12.0078,12.0234,12.0625,12.125,12.1523,12.1523,12.1523,12.1523,12.1523,12.1562,12.1953,12.2383,12.2773,12.3164,12.3476,12.3515,12.3515,12.3515,12.3515,12.3515,12.3515,12.3515,12.3515,12.3515,12.3515,12.3515,12.3515,12.3515,12.3515,12.3515,12.3515,12.3515,12.3476,12.3281,12.2656,12.1797,12.1015,12.0156,11.9765,12.0195,12.0976,12.2031,12.2578,12.289,12.2383,12.1562,12.1015,12.0625,11.9883,11.914,11.8945,11.9062,11.8711,11.8633,11.8906,11.9023,11.8945,11.8906,11.8984,11.8711,13.1679,13.1679,13.1679,13.1679,13.1679,13.1679,13.0833,12.9563,12.9256,12.8371,12.7075,12.6794,12.6717,12.6717,12.6717,12.6717,12.6871,12.7294,12.7948,12.9102,12.9679,13.0602,13.1333,13.1564,13.1564,13.1679,13.1602,13.1102,13.0371,12.9756,12.8833,12.7948,12.7255,12.6909,12.6767,12.6729,12.6703,12.6715,12.665,12.6621,12.6637,12.6107,12.5278,12.4118,12.3301,12.2805,12.2556,12.2606,12.2552,12.1981,12.1998,12.1744,12.1335,12.0933,12.1015,12.1015,12.1093,12.1562,12.2187,12.2383,12.2383,12.2383,12.2422,12.2383,12.2422,12.2461,12.2773,12.3164,12.3515,12.3593,12.3672,12.3554,12.3515,12.3515,12.3515,12.3515,12.3515,12.3515,12.3515,12.3515,12.3515,12.3515,12.3515,12.3515,12.3515,12.3515,12.3515,12.3476,12.3242,12.2929,12.2187,12.1445,12.0664,12.0195,12.0508,12.1172,12.2226,12.2851,12.3359,12.3008,12.2461,12.2265,12.1718,12.082,12.0234,11.9961,11.9726,11.9531,11.957,11.9726,11.9765,11.9687,11.9648,11.9609,11.9101,13.1679,13.1679,13.1679,13.1679,13.1679,13.1679,13.1141,13.0256,12.9525,12.864,12.7717,12.7063,12.6832,12.6755,12.6717,12.6717,12.6794,12.7178,12.7948,12.9063,12.964,13.041,13.1487,13.1679,13.1679,13.1679,13.1679,13.1295,13.0718,13.0294,12.9448,12.8217,12.7705,12.7371,12.6909,12.6717,12.6717,12.6717,12.6717,12.6715,12.6674,12.6317,12.5605,12.4226,12.3339,12.2774,12.2459,12.2512,12.2542,12.2474,12.2683,12.2701,12.231,12.1479,12.1376,12.1789,12.1987,12.234,12.2968,12.3203,12.3242,12.3281,12.3203,12.3242,12.3242,12.3242,12.332,12.3515,12.3711,12.3828,12.4492,12.414,12.3633,12.3554,12.3633,12.3633,12.3633,12.3633,12.3633,12.3672,12.3633,12.3515,12.3515,12.3515,12.3515,12.3515,12.3515,12.3515,12.3398,12.3203,12.2851,12.2109,12.1289,12.0976,12.082,12.1562,12.2383,12.3047,12.3437,12.3437,12.3164,12.3281,12.2812,12.1836,12.1172,12.0781,12.0586,12.039,12.0468,12.0586,12.0547,12.0468,12.0195,11.9883,11.9258,13.1679,13.1679,13.1679,13.1679,13.1679,13.1679,13.1218,13.0525,13.0064,12.941,12.8679,12.814,12.7717,12.7448,12.7332,12.7101,12.6948,12.7717,12.8448,12.9256,13.0102,13.0794,13.1641,13.1679,13.1679,13.1679,13.1641,13.1525,13.1102,13.0641,12.9987,12.9294,12.8436,12.7678,12.7294,12.6909,12.6755,12.6717,12.6717,12.669,12.6563,12.5981,12.4815,12.3881,12.3004,12.2394,12.2187,12.2186,12.233,12.2409,12.2548,12.2687,12.2545,12.228,12.1967,12.2549,12.2742,12.2951,12.3349,12.3433,12.3398,12.3437,12.3476,12.3515,12.3515,12.3515,12.3711,12.414,12.4687,12.4922,12.539,12.4961,12.4843,12.4726,12.4453,12.4375,12.4531,12.4375,12.4218,12.4023,12.3789,12.3633,12.3515,12.3515,12.3515,12.3515,12.3515,12.3515,12.3515,12.3398,12.3203,12.2383,12.1601,12.1445,12.1289,12.1797,12.2539,12.3164,12.3515,12.3515,12.3515,12.3476,12.3281,12.2695,12.2148,12.1601,12.1367,12.1172,12.1328,12.1445,12.1406,12.1211,12.0625,12.0078,11.9414,13.1679,13.1679,13.1679,13.1679,13.1679,13.1679,13.1333,13.0794,13.0564,13.0102,12.9525,12.9217,12.8756,12.8332,12.8102,12.7871,12.7294,12.8525,12.8948,12.9679,13.0371,13.1141,13.1641,13.1679,13.1679,13.1679,13.1679,13.1679,13.1487,13.1102,13.0641,12.9756,12.8628,12.7859,12.7525,12.6909,12.6755,12.6717,12.6717,12.6652,12.6101,12.4947,12.3716,12.2947,12.2155,12.1799,12.1816,12.1938,12.2061,12.2131,12.2214,12.2326,12.245,12.2519,12.2687,12.2978,12.3194,12.3321,12.3352,12.3366,12.334,12.3387,12.3433,12.3476,12.3593,12.375,12.4179,12.4961,12.5468,12.6015,12.6172,12.6054,12.5937,12.5781,12.539,12.5195,12.5429,12.5312,12.4883,12.457,12.4101,12.375,12.3593,12.3515,12.3515,12.3515,12.3515,12.3515,12.3515,12.3515,12.3203,12.2422,12.1875,12.1797,12.1758,12.1914,12.2617,12.3281,12.3476,12.3515,12.3515,12.3515,12.3281,12.3125,12.2929,12.2422,12.2187,12.1953,12.2031,12.2109,12.2187,12.164,12.0547,12.0,11.9531,13.1679,13.1679,13.1679,13.1679,13.1679,13.1679,13.1641,13.1448,13.0833,13.0487,13.0294,12.9602,12.9256,12.9063,12.8986,12.8948,12.8756,12.8486,12.9063,13.0025,13.0064,13.0602,13.1525,13.1679,13.1679,13.1641,13.1641,13.1679,13.1525,13.141,13.0679,12.9602,12.9025,12.8371,12.7217,12.6871,12.6717,12.6717,12.6717,12.6332,12.5524,12.4562,12.3716,12.2831,12.2124,12.1647,12.1658,12.1783,12.186,12.1881,12.2021,12.2131,12.2169,12.2268,12.2308,12.2519,12.2761,12.3071,12.3139,12.3217,12.3243,12.3347,12.3364,12.3418,12.3742,12.4412,12.5117,12.5742,12.6054,12.6484,12.6875,12.6484,12.6172,12.6133,12.6093,12.5976,12.6093,12.6172,12.5742,12.5195,12.4765,12.4101,12.3672,12.3593,12.3515,12.3515,12.3515,12.3554,12.3515,12.3515,12.3437,12.2695,12.2383,12.2343,12.2343,12.25,12.2773,12.3437,12.3476,12.3515,12.3515,12.3515,12.3515,12.3359,12.3203,12.3047,12.2656,12.2539,12.2656,12.2343,12.1914,12.1015,11.9961,11.9648,11.9531,13.1679,13.1679,13.1679,13.1679,13.1679,13.1679,13.1679,13.1602,13.1333,13.1179,13.1141,13.0833,13.0371,12.9948,12.9487,12.9179,12.9102,12.8794,12.9294,13.0217,13.0141,13.0525,13.141,13.1679,13.1679,13.1602,13.1256,13.0948,13.1025,13.091,13.0333,12.9333,12.8717,12.8166,12.7178,12.6871,12.6755,12.6717,12.6601,12.5986,12.4947,12.4216,12.3485,12.2254,12.1804,12.1651,12.1585,12.1647,12.1681,12.1704,12.1816,12.1871,12.1896,12.2001,12.2043,12.2216,12.2351,12.2581,12.2824,12.3004,12.3114,12.3207,12.3289,12.3534,12.4189,12.5295,12.6202,12.6679,12.7226,12.7616,12.7851,12.7695,12.7578,12.7343,12.6914,12.7109,12.7031,12.6758,12.6523,12.5976,12.5312,12.4531,12.3867,12.3711,12.3711,12.375,12.3867,12.3984,12.3789,12.3515,12.3398,12.3164,12.3008,12.3008,12.3008,12.3086,12.3086,12.3476,12.3476,12.3515,12.3515,12.3515,12.3515,12.3515,12.3398,12.3203,12.2968,12.2617,12.2343,12.1914,12.1445,12.0547,11.9687,11.9609,11.9375,13.1679,13.1679,13.1679,13.1679,13.1679,13.1679,13.1679,13.1679,13.1679,13.1679,13.1679,13.1602,13.1295,13.0833,13.0179,12.9871,12.9563,12.9333,12.9602,12.9987,13.0256,13.0602,13.1179,13.1448,13.1679,13.1641,13.0948,13.0487,13.0141,12.9871,12.941,12.8871,12.8294,12.7782,12.7448,12.7025,12.6717,12.6717,12.6717,12.5794,12.4486,12.4139,12.3101,12.2139,12.1612,12.1612,12.1612,12.1612,12.1612,12.1624,12.1635,12.1693,12.1749,12.1783,12.181,12.1938,12.2043,12.2159,12.2411,12.2595,12.2823,12.2981,12.3398,12.3958,12.4895,12.6329,12.7179,12.7129,12.7917,12.8352,12.8593,12.8515,12.8398,12.8164,12.7968,12.8242,12.8242,12.7539,12.6758,12.6015,12.5351,12.4648,12.4101,12.3945,12.3906,12.3945,12.414,12.4375,12.4179,12.3828,12.3515,12.3398,12.332,12.3281,12.3359,12.3437,12.3476,12.3593,12.3593,12.3554,12.3554,12.3554,12.3515,12.3515,12.3515,12.2812,12.2226,12.2109,12.1875,12.1133,12.0468,12.0078,11.957,11.9492,11.9258,13.1679,13.1679,13.1679,13.1679,13.1679,13.1679,13.1679,13.1679,13.1679,13.1679,13.1679,13.1679,13.1641,13.1525,13.1295,13.091,13.0371,12.9563,12.9525,12.9487,12.941,13.0025,13.0756,13.141,13.1679,13.1525,13.0756,12.9948,12.9294,12.8602,12.8243,12.7935,12.7794,12.7371,12.7063,12.6832,12.6717,12.6678,12.6601,12.5755,12.4524,12.3909,12.3178,12.1997,12.1612,12.1612,12.1612,12.1612,12.1612,12.1612,12.1612,12.1574,12.1647,12.1647,12.1704,12.1931,12.1998,12.2145,12.238,12.2384,12.2457,12.2841,12.3652,12.4642,12.5468,12.6431,12.7036,12.73,12.8061,12.8446,12.854,12.859,12.859,12.8515,12.8359,12.8437,12.8281,12.7695,12.6914,12.6093,12.5351,12.4687,12.4453,12.4258,12.4258,12.4336,12.4414,12.4648,12.4687,12.4375,12.3945,12.3672,12.3515,12.3476,12.3476,12.3593,12.3867,12.3906,12.3906,12.3789,12.3672,12.3633,12.3515,12.3515,12.3398,12.2422,12.1718,12.1914,12.164,12.0312,11.9531,11.9375,11.9297,11.9218,11.8984,13.1679,13.1679,13.1679,13.1679,13.1679,13.1679,13.1679,13.1679,13.1679,13.1679,13.1679,13.1679,13.1679,13.1679,13.1679,13.1564,13.1064,12.9756,12.991,13.0064,13.0025,13.0141,13.0871,13.141,13.1679,13.141,13.0448,12.964,12.9179,12.7909,12.7294,12.7178,12.7217,12.7025,12.6755,12.6717,12.6717,12.6524,12.614,12.5255,12.437,12.3524,12.2793,12.1766,12.1612,12.1612,12.1612,12.1612,12.1612,12.1612,12.1612,12.1612,12.1689,12.1689,12.1908,12.2293,12.2467,12.2671,12.2855,12.2657,12.2455,12.3414,12.4522,12.558,12.6045,12.6933,12.7481,12.7799,12.7995,12.8318,12.8447,12.8516,12.8532,12.8539,12.8545,12.8589,12.8317,12.7732,12.7109,12.6328,12.5508,12.4765,12.4648,12.4609,12.4687,12.4765,12.4843,12.4883,12.4883,12.4726,12.4179,12.375,12.3554,12.3633,12.3672,12.3945,12.4258,12.4297,12.4297,12.4218,12.4101,12.3593,12.3515,12.3515,12.3398,12.2734,12.2304,12.2148,12.1328,11.9843,11.9179,11.8945,11.8906,11.9023,11.9101,13.1679,13.1679,13.1679,13.1679,13.1679,13.1679,13.1679,13.1679,13.1679,13.1679,13.1679,13.1679,13.1679,13.1679,13.1679,13.1448,13.1025,13.0256,13.0294,13.0217,13.0141,13.0333,13.1064,13.1564,13.1641,13.1295,13.0141,12.9179,12.914,12.7486,12.6948,12.6794,12.6717,12.6729,12.6729,12.6717,12.6717,12.6486,12.5832,12.4986,12.4139,12.3332,12.2524,12.1766,12.1612,12.1612,12.1612,12.1612,12.1612,12.1612,12.1612,12.1754,12.187,12.21,12.2447,12.2947,12.3332,12.3601,12.3645,12.3506,12.321,12.4306,12.5155,12.6028,12.6683,12.7246,12.7551,12.7805,12.7974,12.81,12.8242,12.8345,12.839,12.8407,12.8468,12.848,12.8256,12.7792,12.7213,12.6523,12.5781,12.5195,12.5468,12.5508,12.5508,12.5664,12.5898,12.5586,12.4961,12.4687,12.4101,12.3789,12.3515,12.3672,12.3867,12.4297,12.4726,12.5117,12.5078,12.4843,12.4609,12.4101,12.3633,12.3515,12.3359,12.3047,12.2656,12.2265,12.0898,11.9258,11.9062,11.914,11.9336,11.957,11.9883,13.1679,13.1679,13.1679,13.1679,13.1679,13.1679,13.1679,13.1679,13.1679,13.1679,13.1679,13.1679,13.1679,13.1679,13.1679,13.141,13.091,13.0525,13.0294,13.0025,13.0256,13.0487,13.0871,13.1333,13.1679,13.1295,13.0141,12.9179,12.914,12.7525,12.6832,12.6717,12.6717,12.6717,12.6717,12.6717,12.6717,12.6563,12.5832,12.4986,12.4139,12.3332,12.2485,12.1831,12.1766,12.1843,12.187,12.2062,12.21,12.21,12.2062,12.2331,12.2793,12.287,12.3293,12.3985,12.4062,12.4139,12.4151,12.4203,12.4629,12.5159,12.5774,12.6274,12.6876,12.7274,12.7449,12.7596,12.7649,12.7801,12.7986,12.8095,12.8206,12.8257,12.8325,12.8333,12.8115,12.7748,12.7097,12.6677,12.6251,12.5937,12.6289,12.6484,12.6484,12.6601,12.6914,12.6484,12.5547,12.4765,12.4258,12.4101,12.3906,12.4023,12.4336,12.4726,12.5195,12.5664,12.5937,12.5742,12.5312,12.4804,12.4297,12.375,12.3398,12.3203,12.2734,12.2226,12.1093,12.0195,11.9765,11.9765,11.9922,12.0234,12.0625,13.1679,13.1679,13.1679,13.1679,13.1679,13.1679,13.1679,13.1679,13.1679,13.1679,13.1679,13.1679,13.1679,13.1679,13.1679,13.1525,13.1256,13.0641,13.0294,13.0833,13.0718,13.091,13.1218,13.1448,13.1679,13.1218,13.0102,12.9179,12.9179,12.7525,12.6832,12.6717,12.6717,12.6717,12.6717,12.6717,12.6717,12.6563,12.5832,12.4986,12.4139,12.3332,12.2485,12.1689,12.2062,12.237,12.2408,12.2716,12.3024,12.3062,12.3024,12.3293,12.3639,12.3716,12.4101,12.4755,12.4986,12.5255,12.5613,12.5854,12.5661,12.5824,12.6075,12.6486,12.6889,12.6933,12.7114,12.7245,12.7348,12.7475,12.7573,12.7773,12.7852,12.7945,12.8019,12.8132,12.7993,12.746,12.6943,12.6721,12.6375,12.6514,12.6781,12.7157,12.7245,12.7137,12.7334,12.7147,12.6406,12.5312,12.4609,12.4609,12.4492,12.4609,12.4804,12.5429,12.5937,12.6445,12.6758,12.6797,12.6289,12.5351,12.4765,12.414,12.375,12.3398,12.3008,12.2617,12.2109,12.1445,12.1015,12.082,12.1054,12.1328,12.164,13.1679,13.1679,13.1679,13.1679,13.1679,13.1679,13.1679,13.1679,13.1679,13.1679,13.1679,13.1679,13.1679,13.1679,13.1679,13.1679,13.1602,13.1218,13.1025,13.1602,13.1218,13.1295,13.1525,13.1679,13.1679,13.1218,13.0179,12.9179,12.9102,12.7525,12.6794,12.6717,12.6717,12.6717,12.6717,12.6717,12.6717,12.6447,12.5832,12.4986,12.4139,12.3332,12.2485,12.21,12.2293,12.287,12.3101,12.355,12.4139,12.4139,12.4178,12.4293,12.4409,12.4639,12.4986,12.5563,12.5909,12.6152,12.646,12.6575,12.6279,12.6048,12.646,12.6688,12.6748,12.6807,12.686,12.6966,12.7023,12.7147,12.7293,12.745,12.7525,12.7596,12.7709,12.7827,12.7805,12.7257,12.7188,12.6946,12.6906,12.7079,12.719,12.7708,12.801,12.7837,12.7699,12.7408,12.7067,12.5976,12.5,12.4922,12.5039,12.5156,12.5586,12.6289,12.6797,12.7226,12.7304,12.7304,12.6367,12.5312,12.4922,12.4492,12.3906,12.3437,12.3359,12.3047,12.2695,12.2461,12.2265,12.2187,12.2265,12.2343,12.25,13.1679,13.1679,13.1679,13.1679,13.1679,13.1679,13.1679,13.1679,13.1679,13.1679,13.1679,13.1679,13.1679,13.1679,13.1679,13.1679,13.1679,13.1602,13.1641,13.1679,13.1525,13.1641,13.1641,13.1679,13.1679,13.1141,13.0294,12.941,12.9063,12.7525,12.6717,12.6717,12.6717,12.6717,12.6717,12.6717,12.6717,12.6447,12.6063,12.5255,12.4447,12.3562,12.287,12.2524,12.2754,12.3216,12.3562,12.4101,12.4409,12.4447,12.4409,12.4793,12.514,12.5409,12.5986,12.6371,12.6614,12.6652,12.669,12.6717,12.6678,12.6447,12.6601,12.669,12.6703,12.6727,12.676,12.6818,12.6871,12.6933,12.7034,12.7116,12.7187,12.7284,12.7386,12.7445,12.7497,12.7416,12.7449,12.7432,12.7452,12.7484,12.7429,12.7802,12.8097,12.8055,12.7743,12.7337,12.6947,12.6328,12.5508,12.5156,12.5312,12.5664,12.6133,12.6406,12.6679,12.6797,12.7265,12.7226,12.6211,12.5351,12.4961,12.4453,12.3828,12.3476,12.3437,12.3437,12.3398,12.3203,12.2968,12.2851,12.2734,12.3008,12.3125,13.1679,13.1679,13.1679,13.1679,13.1679,13.1679,13.1679,13.1679,13.1679,13.1679,13.1679,13.1679,13.1679,13.1679,13.1679,13.1679,13.1679,13.1679,13.1679,13.1679,13.1679,13.1679,13.1679,13.1679,13.1679,13.1333,13.0641,12.9756,12.8986,12.7563,12.6755,12.6717,12.6717,12.6717,12.6717,12.6717,12.6717,12.6652,12.6344,12.5717,12.4986,12.4178,12.3601,12.3447,12.3524,12.3947,12.4524,12.5293,12.5678,12.5832,12.5909,12.6178,12.6217,12.6344,12.6575,12.6601,12.6678,12.6717,12.6717,12.6717,12.6717,12.6717,12.6717,12.6717,12.6729,12.6729,12.6703,12.6751,12.6763,12.6841,12.686,12.6916,12.6972,12.7009,12.7104,12.7185,12.7245,12.7294,12.7292,12.7154,12.7225,12.7159,12.718,12.758,12.7826,12.7957,12.7767,12.7284,12.6924,12.6375,12.567,12.5282,12.5284,12.5521,12.5486,12.5703,12.6054,12.6367,12.6753,12.6832,12.5937,12.5195,12.4883,12.4414,12.3789,12.3554,12.3515,12.3515,12.3515,12.3515,12.332,12.3242,12.3281,12.3398,12.3515,13.1679,13.1679,13.1679,13.1679,13.1679,13.1679,13.1679,13.1679,13.1679,13.1679,13.1679,13.1679,13.1679,13.1679,13.1679,13.1679,13.1679,13.1679,13.1679,13.1679,13.1679,13.1679,13.1679,13.1679,13.1679,13.141,13.0948,13.0179,12.9333,12.8102,12.714,12.6717,12.6717,12.6717,12.6717,12.6717,12.6717,12.6717,12.6563,12.614,12.5524,12.487,12.4562,12.4255,12.437,12.4909,12.5409,12.6255,12.664,12.6717,12.6717,12.6717,12.6678,12.669,12.669,12.6717,12.6717,12.6717,12.6717,12.6717,12.6717,12.6717,12.6717,12.6717,12.6717,12.6729,12.6729,12.6703,12.6729,12.6741,12.6727,12.6751,12.6748,12.6772,12.6837,12.6927,12.6972,12.7004,12.6876,12.6668,12.6567,12.6491,12.6707,12.72,12.7525,12.7503,12.7299,12.6847,12.6723,12.6597,12.5733,12.5023,12.5062,12.5218,12.5145,12.4994,12.533,12.566,12.6023,12.5913,12.53,12.4922,12.457,12.4179,12.375,12.3633,12.3554,12.3515,12.3515,12.3515,12.3476,12.3398,12.3359,12.3437,12.3476,13.1679,13.1679,13.1679,13.1679,13.1679,13.1679,13.1679,13.1679,13.1679,13.1679,13.1679,13.1679,13.1679,13.1679,13.1679,13.1679,13.1679,13.1679,13.1679,13.1679,13.1679,13.1679,13.1679,13.1679,13.1679,13.141,13.1064,13.0602,13.0064,12.8871,12.764,12.6871,12.6871,12.6871,12.6729,12.6717,12.6717,12.6717,12.664,12.6332,12.5794,12.537,12.5101,12.4678,12.4947,12.5447,12.5717,12.6178,12.6717,12.6717,12.6717,12.6717,12.6717,12.6717,12.6717,12.6717,12.6717,12.6717,12.6717,12.6717,12.6717,12.6717,12.6717,12.6717,12.6717,12.6717,12.6717,12.6717,12.6717,12.6717,12.6703,12.6715,12.6727,12.6739,12.6748,12.6807,12.6818,12.661,12.6094,12.5969,12.5919,12.5844,12.5759,12.6249,12.6975,12.7003,12.6832,12.636,12.585,12.5976,12.5474,12.4507,12.4294,12.4281,12.4251,12.4229,12.4559,12.4908,12.5166,12.4921,12.4232,12.4115,12.4218,12.3975,12.38,12.3694,12.3593,12.3554,12.3515,12.3476,12.3476,12.3437,12.3436,12.3474,12.3476,13.1679,13.1679,13.1679,13.1679,13.1679,13.1679,13.1679,13.1679,13.1679,13.1679,13.1679,13.1679,13.1679,13.1679,13.1679,13.1679,13.1679,13.1679,13.1679,13.1679,13.1679,13.1679,13.1679,13.1679,13.1679,13.1641,13.141,13.1025,13.0333,12.9371,12.8474,12.7717,12.7563,12.7294,12.6832,12.6794,12.6717,12.6717,12.6678,12.6601,12.6294,12.5832,12.5447,12.5563,12.5947,12.587,12.614,12.6486,12.6717,12.6717,12.6717,12.6717,12.6717,12.6717,12.6717,12.6717,12.6717,12.6717,12.6717,12.6717,12.6717,12.6717,12.6717,12.6717,12.6717,12.6717,12.6717,12.6717,12.6717,12.6717,12.6717,12.6717,12.6717,12.6717,12.6717,12.6717,12.6678,12.6075,12.5471,12.5327,12.5308,12.5266,12.5185,12.55,12.6184,12.6381,12.6207,12.5678,12.4557,12.4237,12.4328,12.3587,12.3142,12.3047,12.3199,12.3407,12.3674,12.3707,12.3827,12.3492,12.3151,12.369,12.4186,12.4055,12.3938,12.3913,12.3852,12.3633,12.3593,12.3455,12.3383,12.3383,12.3422,12.3421,12.3423,13.1679,13.1679,13.1679,13.1679,13.1679,13.1679,13.1679,13.1679,13.1679,13.1679,13.1679,13.1679,13.1679,13.1679,13.1679,13.1679,13.1679,13.1679,13.1679,13.1679,13.1679,13.1679,13.1679,13.1679,13.1679,13.1679,13.1641,13.1256,13.0564,13.0064,12.9371,12.8551,12.8205,12.7717,12.7178,12.6986,12.6717,12.6717,12.6717,12.6678,12.6678,12.6294,12.6152,12.6421,12.6421,12.6332,12.6447,12.6717,12.6717,12.6717,12.6717,12.6717,12.6717,12.6717,12.6717,12.6717,12.6717,12.6717,12.6717,12.6717,12.6717,12.6717,12.6717,12.6717,12.6717,12.6717,12.6717,12.6717,12.6717,12.6717,12.6717,12.6717,12.6717,12.6717,12.6717,12.6717,12.6447,12.5998,12.5536,12.5317,12.5315,12.5315,12.5273,12.5312,12.5832,12.5574,12.544,12.4663,12.3615,12.2945,12.2903,12.2807,12.2446,12.2351,12.258,12.2675,12.2742,12.2686,12.2758,12.2809,12.2962,12.3692,12.4134,12.4223,12.4321,12.4424,12.4296,12.3971,12.3587,12.3408,12.3343,12.3313,12.3311,12.3343,12.3339,13.1679,13.1679,13.1679,13.1679,13.1679,13.1679,13.1679,13.1679,13.1679,13.1679,13.1679,13.1679,13.1679,13.1679,13.1679,13.1679,13.1679,13.1679,13.1679,13.1679,13.1679,13.1679,13.1679,13.1679,13.1679,13.1679,13.1641,13.1295,13.0794,13.0564,13.0217,12.9371,12.8705,12.8128,12.7743,12.7294,12.6909,12.6755,12.6717,12.6717,12.6717,12.6717,12.669,12.669,12.6717,12.6717,12.6717,12.6717,12.6717,12.6717,12.6717,12.6717,12.6717,12.6717,12.6717,12.6717,12.6717,12.6717,12.6717,12.6717,12.6717,12.6717,12.6717,12.6717,12.6717,12.6717,12.6717,12.6678,12.6678,12.6486,12.6486,12.6294,12.6294,12.6409,12.6409,12.664,12.6332,12.5947,12.564,12.537,12.537,12.5409,12.5409,12.5459,12.5178,12.4909,12.4255,12.3408,12.2713,12.2366,12.2207,12.2205,12.2057,12.2043,12.2131,12.2177,12.223,12.2481,12.2596,12.2625,12.2874,12.3839,12.447,12.4615,12.4709,12.4703,12.4552,12.4208,12.3818,12.3254,12.322,12.3191,12.3217,12.3204,12.3239,13.1679,13.1679,13.1679,13.1679,13.1679,13.1679,13.1679,13.1679,13.1679,13.1679,13.1679,13.1679,13.1679,13.1679,13.1679,13.1679,13.1679,13.1679,13.1679,13.1679,13.1679,13.1679,13.1679,13.1679,13.1679,13.1679,13.1679,13.1564,13.1256,13.1295,13.1064,13.0256,13.0141,12.9256,12.7974,12.7563,12.7294,12.6986,12.6717,12.6717,12.6717,12.6717,12.6717,12.6717,12.6717,12.6717,12.6717,12.6717,12.6717,12.6717,12.6717,12.6717,12.6717,12.6717,12.6717,12.6717,12.6717,12.6717,12.6717,12.6717,12.6717,12.6717,12.6717,12.6717,12.6717,12.6717,12.6652,12.6537,12.6383,12.5832,12.5601,12.5063,12.4909,12.5255,12.5409,12.614,12.6371,12.5986,12.564,12.5524,12.5563,12.5563,12.5563,12.537,12.4947,12.4447,12.3601,12.2754,12.2139,12.1831,12.1612,12.1681,12.1761,12.1772,12.1871,12.1896,12.199,12.2275,12.2691,12.3068,12.3609,12.4256,12.4735,12.499,12.4926,12.4886,12.4645,12.432,12.3588,12.3051,12.304,12.3052,12.3068,12.3059,12.3049]}]]